     2.11           OBSERVATION DATA    G (GPS)             RINEX VERSION / TYPE
teqc 2010Oct21 OPUS Account 20111029 19:21:27UTC            PGM / RUN BY / DATE
R 1522                                                      MARKER NAME
1171                                                        MARKER NUMBER
CSMIDDLETON NGS                                             OBSERVER / AGENCY
0220320152 TRIMBLE 5700 2.01                                REC # / TYPE / VERS
12214372 TRM41249.00 NONE                                   ANT # / TYPE
  -740081.9355 -5499429.9825  3134366.2933                  APPROX POSITION XYZ
        2.0000        0.0000        0.0000                  ANTENNA: DELTA H/E/N
     1     1                                                WAVELENGTH FACT L1/2
     5    L1    L2    C1    P1    P2                        # / TYPES OF OBSERV
    15                                                      LEAP SECONDS
  2011     9    25     0     0   30.0000000     GPS         TIME OF FIRST OBS
                                                            END OF HEADER
 11  9 25  0  0 30.0000000  0  9G29G12G02G30G10G05G25G15G26
 -17150291.43057 -13355039.53956  22248570.6484                   22248570.4104
 -27946904.59058 -21766473.27056  21882953.7194                   21882953.2234
 -33479371.15258 -26077079.59056  21813316.7194                   21813314.3524
 -12796883.13757  -9961942.02755  22736000.3594                   22736000.7074
 -18920985.56656 -14733943.57853  24109307.5004                   24109309.2584
 -33231822.02058 -25884140.18057  20495046.5704                   20495045.3324
 -24418962.76258 -19016989.85256  21645329.2034                   21645331.1374
  -2352934.34356  -1823708.00053  24310513.8984                   24310516.9694
 -10109983.30957  -7870205.72754  23383528.4384                   23383530.5234
 11  9 25  0  1  0.0000000  0  9G29G12G02G30G10G05G25G15G26
 -17256690.58647 -13437947.90646  22228323.2504                   22228322.8834
 -27899744.28548 -21729725.01246  21891928.1484                   21891927.4654
 -33464443.60247 -26065447.74246  21816157.7114                   21816154.9734
 -12846751.94147 -10000800.83245  22726510.5554                   22726511.3404
 -18840268.96146 -14671047.55143  24124667.0634                   24124669.7624
 -33225383.30948 -25879122.98047  20496271.8834                   20496270.5394
 -24426315.28148 -19022719.09846  21643929.9454                   21643931.7504
  -2476224.60246  -1919777.98043  24287051.5084                   24287055.0514
 -10230607.62947  -7964198.51244  23360574.6094                   23360577.2894
 11  9 25  0  1 30.0000000  0  9G29G12G02G30G10G05G25G15G26
 -17362946.68047 -13520744.78945  22208103.3204                   22208103.0554
 -27852216.80948 -21692690.65246  21900971.7274                   21900971.6054
 -33449410.49248 -26053733.64145  21819018.0944                   21819015.4964
 -12896027.18747 -10039197.10545  22717134.1174                   22717134.3634
 -18759441.46846 -14608065.16043  24140047.0004                   24140051.0634
 -33218445.49648 -25873716.88347  20497592.0234                   20497590.7234
 -24433103.21148 -19028008.41846  21642638.3054                   21642639.9144
  -2599575.95346  -2015895.65243  24263578.3914                   24263581.1254
 -10351077.52047  -8058070.98444  23337649.8054                   23337651.6454
 11  9 25  0  2  0.0000000  0  9G29G12G02G30G10G05G25G15G26
 -17469056.55947 -13603427.75045  22187911.1174                   22187911.0554
 -27804323.78948 -21655371.44946  21910085.7894                   21910085.4494
 -33434270.66848 -26041936.38346  21821899.3754                   21821896.6414
 -12944707.52047 -10077129.81645  22707870.2274                   22707870.9304
 -18678504.27046 -14544997.34843  24155449.8984                   24155452.7664
 -33211009.19948 -25867922.35247  20499006.9384                   20499005.8134
 -24439326.66048 -19032857.86746  21641454.0634                   21641455.7464
  -2722984.79347  -2112058.07043  24240093.7504                   24240097.3634
 -10471388.10547  -8151819.31244  23314755.1884                   23314757.0164
 11  9 25  0  2 30.0000000  0  9G29G12G02G30G10G05G25G15G26
 -17575017.82047 -13685994.89146  22167747.4304                   22167747.3164
 -27756068.09048 -21617769.64146  21919268.9694                   21919268.1454
 -33419024.28147 -26030056.07846  21824800.5314                   21824797.6914
 -12992792.78947 -10114598.83645  22698720.0474                   22698720.6484
 -18597460.20746 -14481846.16443  24170871.7504                   24170874.7504
 -33203076.74248 -25861741.19947  20500516.8134                   20500515.2194
 -24444987.06648 -19037268.59846  21640376.7274                   21640378.6914
  -2846448.60246  -2208263.36343  24216599.5554                   24216603.2274
 -10591535.91047  -8245440.80944  23291892.1414                   23291893.4494
 11  9 25  0  3  0.0000000  0  9G29G12G02G30G10G05G25G15G26
 -17680828.87147 -13768445.00046  22147611.9614                   22147612.0044
 -27707453.14148 -21579887.89846  21928520.2274                   21928519.5084
 -33403671.29347 -26018092.71146  21827721.9144                   21827720.0314
 -13040282.69147 -10151603.94545  22689682.7894                   22689683.3794
 -18516311.76246 -14418613.64143  24186314.8594                   24186316.8204
 -33194649.69548 -25855174.65247  20502120.5164                   20502119.0864
 -24450085.66448 -19041241.53946  21639406.5784                   21639408.3284
  -2969964.48046  -2304509.21544  24193094.7344                   24193098.4184
 -10711517.05147  -8338932.42644  23269060.1174                   23269061.6374
 11  9 25  0  3 30.0000000  0  9G29G12G02G30G10G05G25G15G26
 -17786486.75047 -13850775.74246  22127506.1024                   22127505.8594
 -27658480.33248 -21541727.30146  21937839.3524                   21937838.7734
 -33388210.89547 -26006045.64846  21830664.2584                   21830661.6884
 -13087176.11347 -10188144.25445  22680759.6954                   22680759.6724
 -18435060.40246 -14355300.91843  24201776.2664                   24201778.1994
 -33185728.84048 -25848223.31247  20503817.9144                   20503816.5944
 -24454623.02048 -19044777.15646  21638543.3284                   21638544.9804
  -3093529.07846  -2400793.03544  24169581.3524                   24169585.0164
 -10831327.23447  -8432290.83244  23246260.3674                   23246262.8134
 11  9 25  0  4  0.0000000  0  9G29G12G02G30G10G05G25G15G26
 -17891989.23447 -13932985.39146  22107429.7114                   22107429.5514
 -27609152.62148 -21503290.16446  21947225.9224                   21947225.5164
 -33372643.00847 -25993914.82846  21833626.2814                   21833624.1454
 -13133472.80947 -10224219.57445  22671949.1724                   22671949.4804
 -18353708.43746 -14291909.76243  24217256.5784                   24217258.0664
 -33176316.59448 -25840889.08247  20505609.1564                   20505607.5314
 -24458600.31648 -19047876.35246  21637786.1484                   21637787.9384
  -3217139.27047  -2497112.36744  24146058.9774                   24146062.9104
 -10950962.65647  -8525513.07044  23223493.8524                   23223496.4804
 11  9 25  0  4 30.0000000  0  9G29G12G02G30G10G05G25G15G26
 -17997334.68447 -14015072.68046  22087383.2194                   22087382.9964
 -27559473.20748 -21464578.96946  21956679.7814                   21956678.8634
 -33356968.06247 -25981700.57845  21836609.1564                   21836606.8364
 -13179173.05947 -10259830.12545  22663252.7194                   22663253.2234
 -18272258.93446 -14228442.60543  24232755.9614                   24232757.6334
 -33166415.32048 -25833173.78947  20507492.9224                   20507491.4534
 -24462019.39148 -19050540.57846  21637135.8834                   21637137.3984
  -3340792.84446  -2593465.48844  24122527.9614                   24122531.7774
 -11070420.33647  -8618596.79344  23200762.0784                   23200763.9304
 11  9 25  0  5  0.0000000  0  9G29G12G02G30G10G05G25G15G26
 -18102519.46947 -14097034.77046  22067366.8284                   22067367.0354
 -27509443.28148 -21425594.64145  21966199.9224                   21966199.5164
 -33341184.50847 -25969401.70346  21839612.8674                   21839610.3914
 -13224275.36347 -10294974.74645  22654670.0394                   22654670.3794
 -18190712.78547 -14164900.12543  24248274.2894                   24248275.8134
 -33156025.21948 -25825077.58647  20509470.5784                   20509468.9844
 -24464880.26648 -19052769.83646  21636591.5634                   21636593.3874
  -3464485.82046  -2689849.29744  24098989.4064                   24098993.0904
 -11189694.91447  -8711537.86744  23178065.3054                   23178066.4884
 11  9 25  0  5 30.0000000  0  9G29G12G02G30G10G05G25G15G26
 -18207542.70347 -14178870.97346  22047381.5394                   22047381.4144
 -27459067.38748 -21386340.73046  21975785.9384                   21975785.7734
 -33325293.49247 -25957019.08246  21842636.8914                   21842634.2894
 -13268780.75047 -10329654.22745  22646200.8674                   22646201.6094
 -18109073.83646 -14101285.35543  24263809.0004                   24263810.6994
 -33145149.34448 -25816602.86347  20511540.0084                   20511538.2734
 -24467185.55148 -19054566.16446  21636152.8524                   21636154.7274
  -3588216.51246  -2786262.53544  24075444.2114                   24075448.0204
 -11308784.14547  -8804334.49244  23155402.5554                   23155404.4224
 11  9 25  0  6  0.0000000  0  9G29G12G02G30G10G05G25G15G26
 -18312400.91047 -14260578.59446  22027427.7034                   22027427.8014
 -27408347.07848 -21346818.45346  21985437.8364                   21985437.8714
 -33309293.68447 -25944551.68745  21845681.4774                   21845678.9804
 -13312687.87947 -10363867.53545  22637845.3054                   22637846.0234
 -18027343.21946 -14037599.16043  24279362.0394                   24279363.6374
 -33133788.52748 -25807750.26247  20513701.7664                   20513700.2194
 -24468935.39548 -19055929.68046  21635819.7664                   21635821.4614
  -3711980.78946  -2882701.91444  24051892.1724                   24051895.9344
 -11427682.85547  -8896982.68744  23132777.4224                   23132778.6294
 11  9 25  0  6 30.0000000  0  9G29G12G02G30G10G05G25G15G26
 -18417093.24647 -14342156.95746  22007505.0704                   22007505.2234
 -27357286.09448 -21307030.71546  21995154.6804                   21995154.1994
 -33293186.46947 -25932000.59846  21848746.7734                   21848743.9964
 -13355997.93447 -10397615.59445  22629603.7424                   22629604.3054
 -17945524.34446 -13973844.24243  24294930.7344                   24294933.7194
 -33121945.76248 -25798522.11347  20515955.2734                   20515953.8524
 -24470132.59848 -19056862.57046  21635592.0944                   21635593.5314
  -3835777.28946  -2979166.41444  24028334.5864                   24028337.8874
 -11546388.87147  -8989480.73444  23110188.0864                   23110189.4144
 11  9 25  0  7  0.0000000  0  9G29G12G02G30G10G05G25G15G26
 -18521618.28947 -14423604.96546  21987614.9384                   21987614.8634
 -27305888.65248 -21266980.79746  22004935.5554                   22004934.8014
 -33276972.35947 -25919366.21546  21851831.8134                   21851829.4884
 -13398711.45347 -10430898.81645  22621475.7664                   22621475.9844
 -17863620.46946 -13910023.08243  24310517.6254                   24310519.6024
 -33109623.76248 -25788920.54347  20518300.1954                   20518298.8364
 -24470779.25848 -19057366.45346  21635469.1174                   21635470.4344
  -3959603.59546  -3075654.17244  24004770.9614                   24004774.4844
 -11664899.08247  -9081826.19144  23087636.2814                   23087637.4694
 11  9 25  0  7 30.0000000  0  9G29G12G02G30G10G05G25G15G26
 -18625971.54747 -14504919.12546  21967756.7814                   21967756.6334
 -27254155.29748 -21226669.12946  22014779.6954                   22014779.4454
 -33260649.41047 -25906647.02346  21854937.8754                   21854935.6604
 -13440826.58647 -10463715.76245  22613461.9384                   22613462.1094
 -17781631.73045 -13846135.81643  24326119.6484                   24326121.2274
 -33096822.19548 -25778945.28947  20520736.2034                   20520734.7304
 -24470874.82448 -19057440.93046  21635450.5394                   21635452.3984
  -4083455.11347  -3172161.53544  23981202.7814                   23981206.3524
 -11783207.72747  -9174014.60545  23065122.7664                   23065124.0004
 11  9 25  0  8  0.0000000  0  9G29G12G02G30G10G05G25G15G26
 -18730152.32047 -14586098.85946  21947931.7894                   21947931.4264
 -27202089.76648 -21186098.62946  22024687.9224                   22024687.1484
 -33244218.06647 -25893843.36346  21858064.9064                   21858062.7034
 -13482344.05547 -10496067.00445  22605561.1954                   22605562.1414
 -17699561.55146 -13782185.06243  24341737.2424                   24341738.5634
 -33083544.73448 -25768599.19947  20523262.9384                   20523261.2664
 -24470421.77048 -19057087.90646  21635536.7584                   21635538.5664
  -4207329.86347  -3268687.03944  23957629.8754                   23957633.4264
 -11901311.93046  -9266043.68744  23042647.9534                   23042649.6174
 11  9 25  0  8 30.0000000  0  9G29G12G02G30G10G05G25G15G26
 -18834156.62547 -14667141.12146  21928140.3284                   21928140.4924
 -27149693.53548 -21145270.44146  22034658.7504                   22034657.8054
 -33227677.12948 -25880954.30946  21861212.5084                   21861210.2304
 -13523262.57847 -10527951.54745  22597774.7274                   22597775.1414
 -17617410.89846 -13718171.58243  24357369.2894                   24357371.7814
 -33069791.89548 -25757882.68747  20525879.7974                   20525878.3914
 -24469420.24648 -19056307.51246  21635727.3984                   21635728.8954
  -4331223.50447  -3365227.26643  23934054.0164                   23934056.2934
 -12019206.74647  -9357909.62944  23020213.3284                   23020214.8284
 11  9 25  0  9  0.0000000  0  9G29G12G02G30G10G05G25G15G26
 -18937984.32447 -14748045.75846  21908382.5164                   21908382.5434
 -27096971.51248 -21104188.38346  22044691.1564                   22044690.7934
 -33211028.67647 -25867981.47346  21864380.7584                   21864378.3834
 -13563584.37147 -10559371.09845  22590101.3204                   22590102.0944
 -17535184.55946 -13654099.11343  24373016.8984                   24373019.4924
 -33055567.58247 -25746798.79347  20528586.3594                   20528585.2074
 -24467874.00448 -19055102.65246  21636021.4694                   21636023.3554
  -4455135.27347  -3461781.61744  23910474.4144                   23910476.5594
 -12136890.64146  -9449611.20344  22997818.7584                   22997820.0944
 11  9 25  0  9 30.0000000  0  9G29G12G02G30G10G05G25G15G26
 -19041632.57447 -14828810.57046  21888659.1564                   21888658.8094
 -27043925.99248 -21062854.26246  22054785.3524                   22054784.8594
 -33194271.84047 -25854924.19146  21867569.4304                   21867566.8094
 -13603308.65247 -10590325.06245  22582542.4614                   22582542.8364
 -17452883.86746 -13589968.70343  24388678.2894                   24388680.6094
 -33040872.82448 -25735348.31647  20531382.5634                   20531381.4344
 -24465783.73048 -19053473.88346  21636419.3754                   21636421.0594
  -4579061.95347  -3558347.61344  23886891.4064                   23886893.8054
 -12254358.87947  -9541144.74244  22975465.4224                   22975466.8634
 11  9 25  0 10  0.0000000  0  9G29G12G02G30G10G05G25G15G26
 -19145098.75447 -14909433.51646  21868970.0704                   21868970.1604
 -26990559.34448 -21021269.90246  22064940.5944                   22064940.3444
 -33177405.94148 -25841781.93046  21870778.8524                   21870776.3874
 -13642435.00447 -10620813.11345  22575096.2424                   22575097.0984
 -17370510.60546 -13525781.70743  24404353.1174                   24404355.4144
 -33025709.08248 -25723532.41447  20534268.5314                   20534266.8594
 -24463150.52348 -19051422.04746  21636920.6094                   21636921.9654
  -4702999.94547  -3654922.40644  23863307.0004                   23863309.1174
 -12371607.30947  -9632506.98444  22953153.3754                   22953154.5984
 11  9 25  0 10 30.0000000  0  9G29G12G02G30G10G05G25G15G26
 -19248381.00847 -14989913.15646  21849316.2974                   21849316.0354
 -26936874.75848 -20979437.79346  22075156.6334                   22075156.2274
 -33160430.93448 -25828554.63746  21874009.0634                   21874006.7664
 -13680963.84847 -10650835.59045  22567764.7504                   22567765.1724
 -17288067.62546 -13461540.40643  24420041.5474                   24420043.4344
 -33010079.01648 -25711353.12947  20537242.6174                   20537241.2814
 -24459976.39548 -19048948.72346  21637524.7734                   21637526.4774
  -4826946.67647  -3751503.98444  23839720.3914                   23839722.6604
 -12488632.64147  -9723695.41844  22930884.1484                   22930884.9694
 11  9 25  0 11  0.0000000  0  9G29G12G02G30G10G05G25G15G26
 -19351476.42247 -15070247.20746  21829697.9384                   21829697.6054
 -26882874.69147 -20937359.86346  22085432.5314                   22085431.8244
 -33143346.50047 -25815242.08245  21877260.1254                   21877257.4774
 -13718895.03147 -10680392.35545  22560547.0944                   22560547.5314
 -17205556.80146 -13397246.22343  24435742.5084                   24435744.4024
 -32993984.10948 -25698811.62947  20540305.5164                   20540303.9264
 -24456262.52348 -19046054.82446  21638231.3524                   21638233.2234
  -4950898.86746  -3848089.82044  23816132.1094                   23816134.6954
 -12605430.75047  -9814706.75844  22908657.7734                   22908659.2034
 11  9 25  0 11 30.0000000  0  9G29G12G02G30G10G05G25G15G26
 -19454384.74248 -15150435.46946  21810114.7974                   21810114.6994
 -26828564.21547 -20895040.06645  22095767.3134                   22095766.9884
 -33126154.35947 -25801845.60945  21880531.6644                   21880529.2424
 -13756230.55547 -10709484.96545  22553441.9304                   22553443.0314
 -17122982.12946 -13332902.31642  24451456.0784                   24451458.0434
 -32977428.32448 -25685911.00447  20543455.6564                   20543454.6844
 -24452012.53147 -19042743.16046  21639040.1414                   21639042.0554
  -5074855.46146  -3944679.05144  23792543.7584                   23792546.6334
 -12721999.66047  -9905539.50844  22886475.4384                   22886476.7974
 11  9 25  0 12  0.0000000  0  9G29G12G02G30G10G05G25G15G26
 -19557101.15248 -15230474.19946  21790568.9534                   21790568.2384
 -26773943.23447 -20852478.31245  22106161.5084                   22106161.1604
 -33108851.69547 -25788363.01246  21883823.9534                   21883821.7074
 -13792967.91447 -10738111.47345  22546451.2274                   22546452.0204
 -17040343.26645 -13268508.36742  24467181.9774                   24467183.4694
 -32960410.90248 -25672650.66447  20546694.1024                   20546692.5004
 -24447225.34048 -19039012.91846  21639951.3984                   21639953.1174
  -5198810.68046  -4041267.22744  23768955.4224                   23768958.2034
 -12838332.95747  -9996188.67244  22864338.3594                   22864339.1214
 11  9 25  0 12 30.0000000  0  9G29G12G02G30G10G05G25G15G26
 -19659623.41848 -15310361.64546  21771059.3524                   21771058.9304
 -26719015.16047 -20809677.26245  22116614.0634                   22116613.5704
 -33091438.34447 -25774794.16046  21887137.8594                   21887135.1684
 -13829107.37147 -10766272.08645  22539574.1414                   22539574.7034
 -16957642.62145 -13204066.27042  24482919.0474                   24482921.9844
 -32942934.07848 -25659032.35247  20550019.5554                   20550018.4734
 -24441902.75848 -19034865.48046  21640964.0314                   21640965.6054
  -5322762.03546  -4137852.40644  23745368.6884                   23745370.9384
 -12954427.25047 -10086651.61344  22842246.2424                   22842247.0274
 11  9 25  0 13  0.0000000  0 10G29G12G02G30G10G05G25G15G26G21
 -19761952.71948 -15390098.73846  21751586.5944                   21751586.4144
 -26663785.63347 -20766641.31245  22127123.9844                   22127123.5514
 -33073917.57047 -25761141.60945  21890471.7734                   21890469.5164
 -13864652.70747 -10793969.74645  22532809.8754                   22532810.6454
 -16874885.67246 -13139580.37543  24498667.7194                   24498669.7344
 -32925003.28948 -25645060.28947  20553432.0554                   20553430.5354
 -24436049.91048 -19030304.85246  21642077.5004                   21642079.7074
  -5446710.07446  -4234434.98844  23721781.0084                   23721783.9844
 -13070281.80147 -10176927.75044  22820199.7194                   22820200.0234
   -125541.50055    -92420.02353  25083264.9304                   25083267.1024
 11  9 25  0 13 30.0000000  0  9G29G12G02G30G05G25G15G26G21
 -19864093.79748 -15469689.15246  21732149.6414                   21732149.4654
 -26608265.70347 -20723379.07845  22137688.5704                   22137688.4344
 -33056296.66048 -25747411.02345  21893825.1804                   21893822.6094
 -13899611.37147 -10821210.26245  22526157.8594                   22526158.1994
 -32906628.00848 -25630741.87546  20556928.7424                   20556927.1294
 -24429675.87148 -19025338.10246  21643290.9774                   21643292.9694
  -5570658.93446  -4331018.19944  23698194.4064                   23698197.1644
 -13185900.35247 -10267020.01244  22798197.8444                   22798198.8244
   -210351.14546   -158505.35543  25067126.7034                   25067128.0274
 11  9 25  0 14  0.0000000  0  9G29G12G02G30G05G25G15G26G21
 -19966044.77047 -15549131.43046  21712749.0394                   21712748.8054
 -26552458.21147 -20679892.77345  22148308.8204                   22148308.5984
 -33038575.49647 -25733602.31645  21897197.6414                   21897195.0164
 -13933984.02347 -10847994.14145  22519616.9384                   22519617.4304
 -32887810.66848 -25616078.99246  20560509.4454                   20560507.9144
 -24422782.66048 -19019966.79746  21644602.2734                   21644604.2934
  -5694606.12146  -4427600.12944  23674607.8834                   23674610.3914
 -13301279.43447 -10356925.64844  22776242.7194                   22776242.4104
   -295148.46946   -224581.07443  25050989.8984                   25050991.9104
 11  9 25  0 14 30.0000000  0  9G29G12G02G30G05G25G15G26G21
 -20067793.44147 -15628416.06246  21693386.9774                   21693386.5864
 -26496355.74248 -20636176.60945  22158984.9694                   22158984.4924
 -33020743.91848 -25719707.57045  21900590.4924                   21900587.9734
 -13967760.87547 -10874313.75445  22513189.2814                   22513189.8634
 -32868543.16448 -25601065.34047  20564176.1954                   20564174.3834
 -24415361.97748 -19014184.48446  21646014.5944                   21646016.2344
  -5818538.34447  -4524170.41844  23651024.3594                   23651026.6684
 -13416405.29747 -10446633.98444  22754334.1334                   22754334.4024
   -379923.44546   -290639.34843  25034857.3914                   25034860.0984
 11  9 25  0 15  0.0000000  0  9G29G12G02G30G05G25G15G26G21
 -20169331.77347 -15707536.80146  21674064.8284                   21674064.0394
 -26439956.10547 -20592228.89145  22169717.1724                   22169717.1564
 -33002796.23047 -25705722.35545  21904005.9224                   21904003.3674
 -14000936.69147 -10900165.04745  22506876.1954                   22506877.0904
 -32848822.04748 -25585698.22346  20567928.9694                   20567927.3754
 -24407410.10548 -19007988.24646  21647527.6254                   21647529.6024
  -5942447.24247  -4620722.54744  23627444.9064                   23627447.0164
 -13531268.60547 -10536137.74644  22732476.0704                   22732476.6374
   -464671.17646   -356676.37543  25018730.2814                   25018732.4384
 11  9 25  0 15 30.0000000  0  9G29G12G02G30G05G25G15G26G21
 -20270659.36747 -15786493.30946  21654782.6724                   21654782.1914
 -26383263.72747 -20548053.05145  22180505.4304                   22180505.0634
 -32984734.00447 -25691647.88745  21907443.0474                   21907440.3444
 -14033513.66047 -10925549.71145  22500676.6414                   22500677.6294
 -32828651.26248 -25569980.71146  20571767.2584                   20571765.3524
 -24398930.50848 -19001380.80946  21649141.4614                   21649143.2114
  -6066331.58247  -4717255.55944  23603870.8284                   23603872.4064
 -13645867.30547 -10625435.30944  22710668.6564                   22710669.1294
   -549393.77046   -422693.85543  25002608.1804                   25002610.3404
 11  9 25  0 16  0.0000000  0  9G29G12G02G30G05G25G15G26G21
 -20371774.77347 -15865284.48446  21635541.0864                   21635540.6454
 -26326282.63747 -20503652.26245  22191348.9144                   22191348.6564
 -32966557.71947 -25677484.53145  21910901.6254                   21910899.2034
 -14065492.90647 -10950468.61345  22494591.5944                   22494591.8364
 -32808033.70748 -25553915.07046  20575690.3674                   20575688.9144
 -24389925.84048 -18994364.21146  21650855.1334                   21650856.7584
  -6190189.29747  -4813767.81644  23580301.1954                   23580302.3834
 -13760198.13347 -10714524.13344  22688911.3204                   22688912.5084
   -634092.46946   -488692.66843  24986490.6334                   24986492.6174
 11  9 25  0 16 30.0000000  0  9G29G12G02G30G05G25G15G26G21
 -20472676.04347 -15943908.78146  21616340.2504                   21616339.9344
 -26269015.94547 -20459028.91045  22202246.7814                   22202246.3674
 -32948267.64547 -25663232.52045  21914382.3444                   21914379.6454
 -14096875.18747 -10974922.36745  22488619.5474                   22488620.1724
 -32786971.90248 -25537503.26247  20579698.6954                   20579696.9184
 -24380398.29348 -18986940.17646  21652668.1254                   21652669.9384
  -6314017.57847  -4910257.13344  23556737.4924                   23556738.9384
 -13874257.96547 -10803401.80545  22667207.1644                   22667207.7974
   -718768.14546   -554673.55143  24970376.9534                   24970379.8524
 11  9 25  0 17  0.0000000  0  9G29G12G02G30G05G25G15G26G21
 -20573363.41447 -16022366.40646  21597180.1484                   21597179.2194
 -26211469.39147 -20414187.48445  22213197.1564                   22213197.0514
 -32929866.25847 -25648893.75845  21917883.7894                   21917881.2034
 -14127663.83647 -10998913.53945  22482761.2034                   22482761.4654
 -32765470.55148 -25520748.95347  20583790.1954                   20583788.5514
 -24370352.61348 -18979112.39846  21654579.6484                   21654581.6174
  -6437816.28947  -5006723.44544  23533178.6804                   23533180.1604
 -13988045.88747 -10892067.57444  22645553.8054                   22645554.6954
   -803423.90246   -620638.91043  24954267.4844                   24954269.5044
 11  9 25  0 17 30.0000000  0  9G29G12G02G30G05G25G15G26G21
 -20673832.69147 -16100654.09446  21578061.1724                   21578060.3134
 -26153644.15247 -20369128.90645  22224201.0784                   22224200.8674
 -32911351.31647 -25634466.51645  21921407.0864                   21921404.6024
 -14157857.41047 -11022441.03145  22477015.3054                   22477015.9494
 -32743530.02748 -25503652.43046  20587965.1884                   20587963.6954
 -24359788.81248 -18970880.89146  21656589.8054                   21656592.2234
  -6561580.67246  -5103163.00044  23509626.5004                   23509628.1254
 -14101556.10547 -10980516.97745  22623953.8984                   22623954.2584
   -888058.62946   -686587.87543  24938162.0474                   24938164.3014
 11  9 25  0 18  0.0000000  0  9G29G12G02G30G05G25G15G26G21
 -20774081.57447 -16178770.02746  21558984.4774                   21558983.9224
 -26095542.89547 -20323855.25445  22235257.1174                   22235257.1094
 -32892722.60947 -25619950.62545  21924952.1804                   21924949.5664
 -14187456.34847 -11045505.16045  22471382.5784                   22471383.1954
 -32721152.84448 -25486215.65246  20592223.5704                   20592222.1294
 -24348708.75448 -18962247.09846  21658698.6024                   21658700.6604
  -6685307.44146  -5199573.23044  23486082.5164                   23486083.9184
 -14214784.73047 -11068746.94945  22602406.6484                   22602407.9184
   -972672.56646   -752520.67243  24922060.2504                   24922061.3714
 11  9 25  0 18 30.0000000  0  9G29G12G02G30G05G25G15G26G21
 -19298687.16048 -15029111.95746  21839742.4694                   21839742.3444
 -24461753.53548 -19050772.68445  22546156.9614                   22546157.0514
 -31298563.60547 -24377748.78945  22228310.4694                   22228307.7274
 -12641043.11347  -9840507.86745  22765655.3284                   22765655.8244
 -31122924.33648 -24240842.77746  20896356.2034                   20896354.5664
 -22761697.54748 -17725615.00446  21960696.7814                   21960698.5944
  -5233572.37146  -4068350.87144  23762337.7664                   23762340.1484
 -12752307.21947  -9929153.95345  22880706.5704                   22880707.5664
    518154.05546    409162.57443  25205754.9064                   25205757.0044
 11  9 25  0 19  0.0000000  0  9G29G12G02G30G05G25G15G26G21
 -19398492.45748 -15106882.23046  21820750.4144                   21820749.8484
 -24403113.70747 -19005079.35545  22557315.8754                   22557315.7814
 -31279711.09847 -24363058.50045  22231897.7114                   22231895.2424
 -12669458.73847  -9862649.93445  22760248.1174                   22760248.9614
 -31099683.69148 -24222733.17246  20900778.5474                   20900777.2624
 -22749595.07848 -17716184.52746  21962999.9384                   21963001.6254
  -5357219.77346  -4164699.24644  23738808.7584                   23738810.1524
 -12864966.02347 -10016939.91445  22859268.1414                   22859268.9694
    433576.23046    343257.94543  25189660.1804                   25189662.1844
 11  9 25  0 19 30.0000000  0  9G29G12G02G30G05G25G15G26G21
 -19498073.69548 -15184477.91846  21801800.5474                   21801800.1214
 -24344209.77347 -18959180.22745  22568524.8364                   22568524.6604
 -31260747.66447 -24348281.77345  22235506.7274                   22235504.1334
 -12697284.64847  -9884332.48045  22754953.1954                   22754953.7194
 -31076016.07048 -24204290.86347  20905282.4064                   20905280.9344
 -22736985.43048 -17706358.84846  21965399.3204                   21965401.3204
  -5480823.61347  -4261013.68744  23715287.6724                   23715289.1954
 -12977335.27047 -10104500.24245  22837885.0474                   22837885.9574
    349014.80146    277366.10243  25173568.4694                   25173570.8714
 11  9 25  0 20  0.0000000  0  9G29G12G02G30G05G25G15G26G21
 -19597425.93748 -15261895.14846  21782894.2034                   21782893.7854
 -24285042.45347 -18913075.86745  22579784.1724                   22579783.5824
 -31241670.33247 -24333416.30145  22239136.9844                   22239134.2814
 -12724518.96147  -9905554.02345  22749770.4224                   22749770.8914
 -31051920.98048 -24185515.46146  20909867.7974                   20909866.1024
 -22723868.13748 -17696137.59446  21967895.3674                   21967897.3874
  -5604378.77747  -4357290.19544  23691775.7504                   23691777.1764
 -13089408.76647 -10191830.12945  22816558.3594                   22816558.9654
    264471.55946    211488.38343  25157480.4774                   25157482.5514
 11  9 25  0 20 30.0000000  0  9G29G12G02G30G05G25G15G26G21
 -19696548.90648 -15339133.73046  21764032.0554                   21764031.1524
 -24225617.55547 -18866770.79745  22591092.0864                   22591092.1954
 -31222480.96547 -24318463.51645  22242788.5314                   22242785.7704
 -12751164.38747  -9926316.68445  22744700.3284                   22744700.6454
 -31027402.61348 -24166410.21946  20914533.2584                   20914531.6214
 -22710247.33648 -17685524.00846  21970487.6174                   21970489.2384
  -5727884.24647  -4453528.02045  23668273.2814                   23668274.8324
 -13201184.87547 -10278928.28145  22795288.4064                   22795288.3444
    179943.87546    145622.82843  25141394.8984                   25141396.9694
 11  9 25  0 21  0.0000000  0  9G29G12G02G30G05G25G15G26G21
 -19795440.91848 -15416192.34446  21745213.0554                   21745212.6994
 -24165938.45347 -18820267.64545  22602449.0864                   22602448.6564
 -31203180.01247 -24303423.77745  22246461.1884                   22246458.6214
 -12777222.44147  -9946621.64545  22739741.2344                   22739741.8364
 -31002463.87948 -24146977.43746  20919278.9384                   20919277.3484
 -22696125.87948 -17674520.28546  21973174.4224                   21973176.8164
  -5851337.88747  -4549725.46145  23644781.0704                   23644782.2934
 -13312660.64147 -10365792.40245  22774074.7114                   22774075.4144
     95430.78946     79768.66443  25125312.3674                   25125313.7274
 11  9 25  0 21 30.0000000  0  9G29G12G02G30G05G25G15G26G21
 -19894100.49248 -15493069.84446  21726438.8444                   21726438.3954
 -24106008.12147 -18773568.73045  22613853.7504                   22613853.5594
 -31183768.05947 -24288297.55145  22250155.3674                   22250152.9024
 -12802694.53947  -9966470.01245  22734894.4384                   22734894.8754
 -30977107.70348 -24127219.36346  20924104.3134                   20924102.7384
 -22681506.52348 -17663128.60246  21975956.4774                   21975958.7584
  -5974737.14347  -4645880.47745  23621298.4144                   23621299.8404
 -13423833.00447 -10452420.10945  22752919.3284                   22752919.9694
     10931.14146     13924.95742  25109232.4844                   25109234.1804
 11  9 25  0 22  0.0000000  0  9G29G12G02G30G05G25G15G26G21
 -19992522.28148 -15569762.04746  21707709.9144                   21707709.0594
 -24045827.36747 -18726674.68745  22625305.5004                   22625305.2344
 -31164241.69947 -24273082.18045  22253870.6644                   22253868.2464
 -12827578.18747  -9985859.81645  22730158.8524                   22730159.3984
 -30951333.21948 -24107135.34846  20929008.7034                   20929007.2664
 -22666388.22348 -17651348.12946  21978833.5554                   21978835.6994
  -6098075.98847  -4741988.49244  23597827.8674                   23597829.0124
 -13534694.88347 -10538805.87545  22731822.8594                   22731823.2734
    -73552.64546    -51906.38743  25093155.7424                   25093157.3554
 11  9 25  0 22 30.0000000  0  9G29G12G02G30G05G25G15G26G21
 -20090704.79348 -15646267.80146  21689026.3674                   21689025.3984
 -23985399.88347 -18679588.38745  22636804.7664                   22636804.5744
 -31144601.67247 -24257778.23045  22257608.2274                   22257605.4414
 -12851875.38347 -10004792.64845  22725535.6884                   22725535.8444
 -30925144.20348 -24086728.31246  20933992.6334                   20933991.0594
 -22650774.19548 -17639181.37146  21981804.5474                   21981806.8914
  -6221352.54747  -4838047.96144  23574369.1564                   23574370.2934
 -13645243.91447 -10624947.86345  22710786.3444                   22710786.3874
   -158022.09446   -117726.61743  25077081.3674                   25077083.4414
 11  9 25  0 23  0.0000000  0  9G29G12G02G30G05G25G15G26G21
 -20188647.16048 -15722586.43046  21670388.0084                   21670387.3914
 -23924730.16047 -18632313.34445  22648349.7034                   22648349.1334
 -31124849.41847 -24242386.83245  22261366.6884                   22261364.7154
 -12875588.38347 -10023270.24245  22721022.8134                   22721023.2544
 -30898544.05948 -24066000.91846  20939054.4064                   20939052.6214
 -22634668.16448 -17626631.23846  21984869.6484                   21984871.5124
  -6344565.30946  -4934057.71544  23550921.9384                   23550922.8284
 -13755477.89847 -10710844.37944  22689809.0474                   22689809.3874
   -242478.95746   -183536.99242  25061009.4454                   25061010.9534
 11  9 25  0 23 30.0000000  0  9G29G12G02G30G05G25G15G26G21
 -20286345.04348 -15798714.55146  21651796.6804                   21651795.9884
 -23863819.22747 -18584850.32845  22659940.4384                   22659940.6684
 -31104982.47748 -24226906.08245  22265147.2194                   22265145.3874
 -12898715.82447 -10041291.55545  22716622.0944                   22716622.5124
 -30871533.04348 -24044953.37146  20944194.3284                   20944192.8284
 -22618069.99248 -17613697.62146  21988028.2664                   21988030.0634
  -6467708.82846  -5030013.50444  23527488.0004                   23527489.6134
 -13865390.82047 -10796490.69945  22668893.6174                   22668893.4534
   -326921.69946   -249336.37143  25044941.0864                   25044942.6374
 11  9 25  0 24  0.0000000  0  9G29G12G02G30G05G25G15G26G21
 -20383797.06248 -15874651.09446  21633252.3364                   21633251.6604
 -23802670.94547 -18537202.37545  22671577.1644                   22671576.7274
 -31085001.30548 -24211336.32045  22268949.8984                   22268946.9454
 -12921259.53147 -10058858.01645  22712331.4144                   22712332.2974
 -30844114.32848 -24023588.13346  20949411.8754                   20949410.3364
 -22600982.85948 -17600382.98846  21991279.6334                   21991281.5594
  -6590781.23046  -5125913.85944  23504067.9534                   23504069.5434
 -13974979.87147 -10881884.63744  22648038.7584                   22648038.5354
   -411351.72746   -315125.78543  25028873.8984                   25028876.0704
 11  9 25  0 24 30.0000000  0  9G29G12G02G30G05G25G15G26G21
 -20480999.59048 -15950393.23046  21614754.7344                   21614754.3134
 -23741286.90247 -18489370.69545  22683257.3834                   22683257.7544
 -31064904.83648 -24195676.71545  22272774.3134                   22272771.3284
 -12943219.30547 -10075969.45745  22708152.6484                   22708153.2504
 -30816289.13748 -24001906.15646  20954706.8914                   20954705.1214
 -22583407.86348 -17586688.19946  21994624.3834                   21994626.3554
  -6713778.36746  -5221755.60244  23480661.8754                   23480663.6334
 -14084240.34847 -10967022.57044  22627247.3444                   22627247.1684
   -495768.38346   -380904.87943  25012809.6724                   25012812.2704
 11  9 25  0 25  0.0000000  0  9G29G12G02G30G05G25G15G26G21
 -20577954.76248 -16025942.61346  21596304.9454                   21596304.4574
 -23679675.06647 -18441361.54345  22694982.1484                   22694982.2734
 -31044697.14547 -24179930.44545  22276619.6334                   22276616.9304
 -12964600.46547 -10092630.03945  22704084.0554                   22704084.5314
 -30788064.42248 -23979912.86346  20960077.9224                   20960076.3404
 -22565351.69148 -17572618.48046  21998060.2034                   21998062.0474
  -6836701.78146  -5317539.91844  23457271.2034                   23457271.3244
 -14193172.96947 -11051905.00845  22606518.3364                   22606518.4964
   -580176.57446   -446677.34843  24996747.8364                   24996749.5434
 11  9 25  0 25 30.0000000  0  9G29G12G02G30G05G25G15G26G21
 -20674657.33248 -16101295.16846  21577902.8284                   21577902.3524
 -23617835.46947 -18393174.89845  22706749.8204                   22706749.8094
 -31024375.10247 -24164095.06645  22280486.1254                   22280483.9734
 -12985401.08247 -10108838.25045  22700125.7274                   22700126.5784
 -30759439.07448 -23957607.38746  20965524.9454                   20965523.4574
 -22546813.60548 -17558173.23846  22001587.8054                   22001590.0234
  -6959545.22347  -5413261.89544  23433894.3984                   23433895.4304
 -14301771.01647 -11136526.74645  22585852.5554                   22585852.8014
   -664573.92646   -512441.35243  24980687.5004                   24980688.8914
 11  9 25  0 26  0.0000000  0  9G29G12G02G30G05G25G15G26G21
 -20771104.68048 -16176448.84846  21559549.9144                   21559549.0434
 -23555770.57047 -18344812.70745  22718560.8134                   22718560.3874
 -31003937.86747 -24148169.93745  22284375.7034                   22284372.7504
 -13005621.54747 -10124594.40245  22696278.0704                   22696278.3634
 -30730414.81248 -23934991.06246  20971048.2974                   20971046.4804
 -22527795.44148 -17543353.91046  22005206.6884                   22005209.1684
  -7082305.30147  -5508918.89844  23410533.8594                   23410534.9454
 -14410030.64847 -11220884.79745  22565251.0634                   22565251.9454
   -748960.38746   -578196.88743  24964629.0634                   24964630.7934
 11  9 25  0 26 30.0000000  0  9G29G12G02G30G05G25G15G26G21
 -20867294.87548 -16251402.15246  21541245.1094                   21541244.5864
 -23493484.05147 -18296277.81645  22730413.1804                   22730413.3594
 -30983385.69947 -24132155.25845  22288286.5084                   22288284.3954
 -13025263.50847 -10139899.78145  22692540.3984                   22692541.2664
 -30700994.98048 -23912066.50046  20976646.7194                   20976645.1334
 -22508299.94948 -17528162.63346  22008916.7584                   22008918.7074
  -7204979.29347  -5604508.85245  23387189.5004                   23387190.4304
 -14517948.25847 -11304976.30545  22544715.1254                   22544715.5164
   -833336.58246   -643944.43743  24948572.9454                   24948574.0164
 11  9 25  0 27  0.0000000  0  9G29G12G02G30G05G25G15G26G21
 -20963225.81248 -16326153.43046  21522990.1414                   21522989.3164
 -23430979.80947 -18247573.28945  22742307.8524                   22742307.3324
 -30962719.16847 -24116051.47745  22292219.5554                   22292216.4614
 -13044328.77347 -10154755.78945  22688912.1484                   22688912.7894
 -30671182.60548 -23888836.05946  20982319.5864                   20982317.6954
 -22488330.25848 -17512601.86746  22012716.8754                   22012719.3404
  -7327565.05947  -5700030.05545  23363862.1024                   23363862.8794
 -14625521.14147 -11388799.21545  22524245.0864                   22524244.8834
   -917703.94946   -709685.11343  24932518.4614                   24932519.3284
 11  9 25  0 27 30.0000000  0  9G29G12G02G30G05G25G15G26G21
 -21058894.37948 -16400700.26246  21504784.9384                   21504784.2074
 -23368259.37947 -18198700.30145  22754242.9534                   22754243.1724
 -30941936.87147 -24099857.47345  22296174.5164                   22296171.1414
 -13062817.05547 -10169162.22745  22685393.9774                   22685394.4064
 -30640978.78948 -23865300.60246  20988067.4534                   20988065.7304
 -22467887.44948 -17496672.43046  22016606.8054                   22016609.2384
  -7450058.49647  -5795479.29344  23340552.4774                   23340552.9614
 -14732744.35247 -11472349.64145  22503840.7504                   22503840.7154
  -1002061.77046   -775418.34043  24916465.1884                   24916466.2624
 11  9 25  0 28  0.0000000  0  9G29G12G02G30G05G25G15G26G21
 -21154298.78548 -16475041.26646  21486629.6954                   21486629.0234
 -23305326.30947 -18149661.62145  22766218.7194                   22766219.1414
 -30921039.02047 -24083573.42645  22300150.6334                   22300148.1094
 -13080729.89547 -10183120.26645  22681985.2814                   22681985.9414
 -30610386.12148 -23841462.14546  20993889.0394                   20993887.1484
 -22446974.23848 -17480376.43746  22020586.8834                   22020588.7194
  -7572456.65247  -5890854.30544  23317260.1094                   23317261.4024
 -14839614.80147 -11555625.20345  22483504.0944                   22483503.6764
  -1086411.15646   -841145.01244  24900414.2814                   24900416.0554
 11  9 25  0 28 30.0000000  0  9G29G12G02G30G05G25G15G26G21
 -21249434.94548 -16549173.24246  21468525.8754                   21468525.2544
 -23242181.61747 -18100458.03945  22778234.8914                   22778235.0354
 -30900023.32847 -24067197.54745  22304150.0704                   22304146.7704
 -13098066.81247 -10196629.53945  22678686.2194                   22678686.6134
 -30579405.37148 -23817321.28546  20999784.4304                   20999782.4924
 -22425591.44148 -17463714.55146  22024655.8524                   22024658.2114
  -7694755.02047  -5986151.54345  23293987.7504                   23293989.2304
 -14946127.18747 -11638621.75445  22463234.9614                   22463235.2934
  -1170750.65646   -906863.96944  24884364.9614                   24884365.9494
 11  9 25  0 29  0.0000000  0  9G29G12G02G30G05G25G15G26G21
 -21344302.07848 -16623095.58646  21450473.6954                   21450472.8714
 -23178831.13347 -18051094.10545  22790289.8674                   22790289.9964
 -30878891.54747 -24050731.20745  22308171.0394                   22308168.4024
 -13114830.82447 -10209692.39845  22675496.2344                   22675496.3444
 -30548040.64148 -23792881.22346  21005752.7424                   21005750.9804
 -22403743.25848 -17446690.01646  22028813.4534                   22028815.6844
  -7816952.23047  -6081369.99645  23270733.8984                   23270735.3284
 -15052279.70747 -11721337.87945  22443034.8754                   22443035.0784
  -1255083.25446   -972577.52344  24868316.2734                   24868317.7934
 11  9 25  0 29 30.0000000  0  9G29G12G02G30G05G25G15G26G21
 -21438898.14148 -16696806.71946  21432472.5084                   21432471.4534
 -23115277.77347 -18001572.08245  22802383.5634                   22802384.1454
 -30857643.28547 -24034174.10945  22312213.9534                   22312211.7584
 -13131023.12547 -10222309.77745  22672414.9454                   22672415.1094
 -30516294.62548 -23768144.05546  21011793.7114                   21011792.3404
 -22381432.09048 -17429304.71946  22033058.8204                   22033061.0474
  -7939045.49247  -6176507.41844  23247500.6254                   23247501.0204
 -15158068.40647 -11803770.52345  22422903.8204                   22422903.9344
  -1339408.57046  -1038285.41044  24852269.7664                   24852271.3244
 11  9 25  0 30  0.0000000  0  9G29G12G02G30G05G25G15G26G21
 -21533221.28948 -16770305.19146  21414523.0554                   21414522.2114
 -23051524.95747 -17951894.64545  22814515.4064                   22814516.1374
 -30836279.37947 -24017526.89845  22316279.8364                   22316277.4384
 -13146645.52747 -10234483.07845  22669441.4844                   22669442.4104
 -30484170.19547 -23743112.02046  21017906.7974                   21017905.2074
 -22358661.12548 -17411561.14146  22037392.3984                   22037394.4184
  -8061032.28947  -6271561.88745  23224286.9144                   23224287.7584
 -15263490.88747 -11885917.80145  22402842.5084                   22402842.6134
  -1423728.12946  -1103988.81244  24836224.5394                   24836225.7234
 11  9 25  0 30 30.0000000  0  9G29G12G02G30G05G25G15G26G21
 -21627270.18048 -16843589.95746  21396626.2584                   21396625.6214
 -22987576.58647 -17902064.81245  22826684.8674                   22826685.3524
 -30814800.18047 -24000789.85245  22320367.4614                   22320364.6524
 -13161700.16447 -10246213.96545  22666577.2974                   22666577.3954
 -30451670.76248 -23717787.77046  21024091.0704                   21024089.5354
 -22335433.57448 -17393461.77346  22041812.4064                   22041814.0474
  -8182910.64847  -6366531.89144  23201094.1884                   23201095.0594
 -15368543.95747 -11967777.21545  22382851.7344                   22382851.7274
  -1508043.09846  -1169688.64143  24820179.6484                   24820180.9774
 11  9 25  0 31  0.0000000  0  9G29G12G02G30G05G25G15G26G21
 -21721041.57048 -16916658.49646  21378782.3754                   21378781.2384
 -22923434.78147 -17852084.25845  22838890.6804                   22838890.5044
 -30793204.56647 -23983962.09045  22324476.6804                   22324474.4654
 -13176187.33247 -10257502.66445  22663820.2194                   22663820.7704
 -30418797.60248 -23692172.30546  21030346.8754                   21030345.2664
 -22311750.96148 -17375007.82046  22046319.1484                   22046321.1644
  -8304676.35247  -6461414.08245  23177923.2814                   23177923.5434
 -15473223.16847 -12049345.32045  22362931.5634                   22362931.5204
  -1592353.08646  -1235384.58243  24804136.1884                   24804136.8324
 11  9 25  0 31 30.0000000  0  9G29G12G02G30G05G25G15G26G21
 -21814534.13348 -16989509.78146  21360990.8444                   21360990.0394
 -22859103.71147 -17801956.21945  22851132.9064                   22851132.5234
 -30771493.22747 -23967044.14545  22328608.1644                   22328605.7424
 -13190109.32447 -10268350.96145  22661170.8444                   22661171.6914
 -30385554.17248 -23666268.31646  21036672.8984                   21036671.2114
 -22287616.84048 -17356202.02746  22050911.8594                   22050913.7624
  -8426327.37147  -6556206.92644  23154773.6564                   23154773.7074
 -15577526.08647 -12130620.21945  22343083.0234                   22343082.9414
  -1676659.80146  -1301077.98043  24788092.8674                   24788093.5314
 11  9 25  0 32  0.0000000  0  9G29G12G02G30G05G25G15G26G21
 -21907744.96948 -17062141.53946  21343253.5314                   21343252.6604
 -22794586.41047 -17751683.05145  22863409.9774                   22863410.0514
 -30749665.36748 -23950035.40645  22332762.2734                   22332759.2624
 -13203467.12547 -10278759.62945  22658629.3674                   22658629.1914
 -30351942.42248 -23640077.32846  21043068.7734                   21043067.2814
 -22263033.40648 -17337046.12146  22055590.0474                   22055591.8164
  -8547860.40247  -6650907.83645  23131646.4844                   23131646.6024
 -15681448.77347 -12211598.82445  22323307.9694                   22323307.6454
  -1760963.79346  -1366769.25043  24772049.9224                   24772051.4494
 11  9 25  0 32 30.0000000  0  9G29G12G02G30G05G25G15G26G21
 -22000669.93048 -17134550.55146  21325570.1024                   21325569.2894
 -22729883.81247 -17701265.50845  22875722.1884                   22875722.5314
 -30727718.97347 -23932934.29345  22336938.4224                   22336935.8554
 -13216260.24647 -10288728.27745  22656194.6954                   22656195.0984
 -30317963.43748 -23613600.17646  21049534.8204                   21049533.4064
 -22238001.18748 -17317540.52746  22060353.2814                   22060355.1024
  -8669270.57847  -6745512.99644  23108542.6804                   23108542.6214
 -15784985.57047 -12292276.74245  22303604.8524                   22303605.2664
  -1845262.76246  -1432456.57043  24756008.2734                   24756009.4104
 11  9 25  0 33  0.0000000  0  9G29G12G02G30G05G25G15G26G21
 -22093306.55947 -17206734.88346  21307942.6954                   21307941.3444
 -22664999.11747 -17650706.06245  22888069.5234                   22888069.9064
 -30705653.84447 -23915740.65245  22341137.0784                   22341134.1604
 -13228489.89147 -10298257.84045  22653867.7034                   22653868.0004
 -30283619.10948 -23586838.34446  21056070.4614                   21056068.5864
 -22212522.70748 -17297687.17246  22065201.6804                   22065203.6454
  -8790554.44146  -6840019.74245  23085463.0554                   23085463.4494
 -15888132.89547 -12372651.19145  22283976.9694                   22283976.4884
  -1929557.65246  -1498140.72743  24739967.5474                   24739968.3834
 11  9 25  0 33 30.0000000  0  9G29G12G02G30G05G25G15G26G21
 -22185653.03548 -17278693.14146  21290369.6334                   21290368.5274
 -22599935.57047 -17600007.26245  22900450.7274                   22900450.8594
 -30683470.02347 -23898454.54345  22345358.6254                   22345355.8364
 -13240157.91847 -10307349.78145  22651647.5084                   22651647.1524
 -30248912.35548 -23559794.10246  21062674.9384                   21062673.3914
 -22186600.85248 -17277488.33646  22070134.5164                   22070136.5234
  -8911709.60547  -6934426.20744  23062407.3594                   23062407.7274
 -15990887.72347 -12452719.78545  22264423.1024                   22264422.8754
  -2013849.04746  -1563822.18743  24723926.6564                   24723927.3674
 11  9 25  0 34  0.0000000  0 10G29G12G02G30G18G05G25G15G26G21
 -22277709.99248 -17350425.80546  21272851.5314                   21272850.3134
 -22534699.27047 -17549173.84045  22912864.3594                   22912865.1414
 -30661169.93448 -23881077.82045  22349602.0234                   22349599.1484
 -13251268.49247 -10316007.34045  22649532.7664                   22649533.2304
   1403892.10556   1107668.47752  24656422.5474                   24656424.7504
 -30213848.32848 -23532471.46546  21069347.5394                   21069345.9224
 -22160241.07048 -17256948.25846  22075150.1254                   22075152.6334
  -9032735.43747  -7028731.88345  23039376.9774                   23039377.6134
 -16093249.17647 -12532481.85245  22244944.2974                   22244943.9344
  -2098140.43446  -1629503.63343  24707887.1174                   24707887.6294
 11  9 25  0 34 30.0000000  0 10G29G12G02G30G18G05G25G15G26G21
 -22369480.44547 -17421935.22746  21255387.9924                   21255386.6914
 -22469298.72347 -17498212.44145  22925309.9924                   22925310.1294
 -30638759.25448 -23863614.92645  22353866.7584                   22353864.1094
 -13261828.75847 -10324236.07045  22647523.0314                   22647523.4224
   1287828.33646   1017229.50042  24634336.5314                   24634338.4414
 -30178434.99647 -23504876.64146  21076086.2664                   21076084.6454
 -22133451.57847 -17236073.34046  22080248.4384                   22080250.4144
  -9153634.80947  -7122939.02745  23016370.8204                   23016371.1954
 -16195219.44147 -12611939.11345  22225540.2114                   22225540.2344
  -2182437.69146  -1695189.65643  24691845.8204                   24691846.2304
 11  9 25  0 35  0.0000000  0 10G29G12G02G30G18G05G25G15G26G21
 -22460964.62948 -17493221.58246  21237979.2664                   21237977.9494
 -22403739.63747 -17447127.50045  22937785.3754                   22937785.9454
 -30616239.65647 -23846067.17245  22358152.0864                   22358149.3954
 -13271842.55147 -10332038.99245  22645617.5234                   22645617.7974
   1171929.59846    926919.10243  24612280.2664                   24612282.8164
 -30142677.28548 -23477013.47346  21082890.4774                   21082888.9144
 -22106237.30547 -17214867.42246  22085426.8204                   22085429.1604
  -9274407.28947  -7217047.30145  22993388.4614                   22993388.7464
 -16296797.26647 -12691090.56645  22206210.3674                   22206209.7934
  -2266743.73046  -1760882.57443  24675803.3524                   24675803.2774
 11  9 25  0 35 30.0000000  0 10G29G12G02G30G18G05G25G15G26G21
 -22552156.91047 -17564280.48046  21220626.1804                   21220625.0004
 -22338021.46147 -17395918.59845  22950291.4844                   22950291.5864
 -30593607.95347 -23828432.06245  22362458.7974                   22362456.1134
 -13281308.19147 -10339414.76645  22643816.4224                   22643816.5664
   1056200.59046    836740.92643  24590258.2194                   24590260.9654
 -30106574.63748 -23448881.52046  21089760.9534                   21089759.2154
 -22078597.75047 -17193330.11746  22090686.8914                   22090688.8524
  -9395046.39847  -7311051.64845  22970431.3364                   22970431.5784
 -16397976.10947 -12769931.12945  22186956.5784                   22186955.8014
  -2351056.05146  -1826580.34043  24659758.4144                   24659759.7584
 11  9 25  0 36  0.0000000  0 10G29G12G02G30G18G05G25G15G26G21
 -22643053.25448 -17635108.77046  21203328.9144                   21203327.5004
 -22272146.48047 -17344587.50045  22962826.8134                   22962827.0594
 -30570862.14547 -23810708.02745  22366787.3054                   22366784.1334
 -13290225.49647 -10346363.27745  22642119.2344                   22642119.5704
    940644.30146    746697.37143  24568267.9064                   24568270.7934
 -30070127.65648 -23420481.25446  21096696.3754                   21096694.6994
 -22050533.79747 -17171462.10246  22096027.2974                   22096029.1254
  -9515547.20347  -7404948.24245  22947500.5944                   22947500.9344
 -16498750.61747 -12848456.61345  22167779.7584                   22167779.3594
  -2435373.40246  -1892282.07043  24643713.1254                   24643714.6484
 11  9 25  0 36 30.0000000  0 10G29G12G02G30G18G05G25G15G26G21
 -22733650.63348 -17705704.09846  21186088.8914                   21186087.2504
 -22206116.69147 -17293135.79745  22975392.1564                   22975392.6884
 -30548000.91847 -23792894.07045  22371137.3914                   22371134.6724
 -13298595.27747 -10352885.15245  22640526.6024                   22640526.7854
    825262.80946    656789.98443  24546310.6644                   24546313.9104
 -30033338.09448 -23391814.04746  21103697.0164                   21103695.8524
 -22022047.36747 -17149264.89146  22101447.7664                   22101449.8754
  -9635906.21547  -7498734.35545  22924597.2344                   22924596.6914
 -16599116.53947 -12926663.73445  22148680.4844                   22148680.2384
  -2519695.53146  -1957987.50443  24627666.8054                   24627667.9534
 11  9 25  0 37  0.0000000  0 10G29G12G02G30G18G05G25G15G26G21
 -22823943.87948 -17776062.43046  21168906.5634                   21168905.4844
 -22139932.03947 -17241563.39845  22987987.0314                   22987987.5274
 -30525021.30547 -23774987.86345  22375510.3134                   22375507.5514
 -13306416.23047 -10358979.35545  22639038.6254                   22639038.3134
    710060.26246    567021.99643  24524389.0474                   24524392.0554
 -29996205.44548 -23362879.50046  21110763.3524                   21110761.8874
 -21993138.25047 -17126738.31246  22106949.0234                   22106951.2424
  -9756117.20347  -7592405.12145  22901722.1884                   22901721.0044
 -16699067.35247 -13004547.38345  22129660.3674                   22129660.1684
  -2604020.10246  -2023694.87143  24611620.8834                   24611621.1644
 11  9 25  0 37 30.0000000  0 10G29G12G02G30G18G05G25G15G26G21
 -22913927.75447 -17846179.68746  21151783.1094                   21151781.9734
 -22073593.33647 -17189870.96945  23000610.9144                   23000611.1334
 -30501920.91447 -23756987.53945  22379906.3284                   22379903.6844
 -13313687.44547 -10364645.19545  22637654.6954                   22637655.0944
    595040.14845    477396.19143  24502501.2194                   24502503.7154
 -29958729.52048 -23333677.46146  21117894.6954                   21117893.1564
 -21963806.61347 -17103882.49646  22112530.5784                   22112532.9104
  -9876174.60247  -7685956.21545  22878875.2194                   22878874.8134
 -16798597.53547 -13082103.27745  22110720.5084                   22110720.1914
  -2688344.67246  -2089402.17243  24595574.0864                   24595574.4184
 11  9 25  0 38  0.0000000  0 10G29G12G02G30G18G05G25G15G26G21
 -23003601.68048 -17916055.41846  21134718.8134                   21134717.8134
 -22007105.02047 -17138061.96545  23013263.0004                   23013263.6334
 -30478700.01247 -23738893.31245  22384324.8674                   22384322.0004
 -13320411.96147 -10369885.04345  22636375.1174                   22636374.9184
    480202.45346    387912.50843  24480648.4694                   24480650.8444
 -29920914.71148 -23304211.35946  21125090.6564                   21125089.1644
 -21934056.53148 -17080700.61746  22118191.9774                   22118194.0554
  -9996076.92247  -7779386.46945  22856058.5634                   22856058.7544
 -16897704.68047 -13159329.53145  22091860.8594                   22091860.2894
  -2772671.29746  -2155111.10543  24579527.4614                   24579527.1604
 11  9 25  0 38 30.0000000  0 10G29G12G02G30G18G05G25G15G26G21
 -23092962.68048 -17985687.30546  21117713.9614                   21117712.7624
 -21940469.59847 -17086138.32845  23025943.6024                   23025944.0634
 -30455358.54747 -23720705.15645  22388766.5004                   22388763.4654
 -13326590.89847 -10374699.75445  22635199.2974                   22635199.5164
    365548.95346    298572.32843  24458830.9534                   24458832.2774
 -29882762.53548 -23274482.37146  21132350.7974                   21132349.1054
 -21903890.18048 -17057194.37946  22123932.4224                   22123934.2734
 -10115820.53147  -7872693.03945  22833271.4144                   22833271.7934
 -16996384.66847 -13236222.93745  22073082.5234                   22073082.4064
  -2857000.24646  -2220821.83643  24563480.5314                   24563480.7854
 11  9 25  0 39  0.0000000  0 10G29G12G02G30G18G05G25G15G26G21
 -23182008.17648 -18055073.32046  21100768.8834                   21100767.8134
 -21873689.44147 -17034101.91845  23038651.8054                   23038652.0984
 -30431895.11347 -23702421.94945  22393231.5394                   22393228.6214
 -13332225.25847 -10379090.11345  22634126.8284                   22634127.1054
    251081.65646    209377.21543  24437047.2034                   24437049.7704
 -29844274.98448 -23244492.05146  21139674.6954                   21139672.8754
 -21873309.66448 -17033365.41046  22129752.0394                   22129754.1524
 -10235401.60947  -7965872.97745  22810516.3134                   22810516.6604
 -17094633.75047 -13312780.56645  22054386.4144                   22054385.7974
  -2941330.69946  -2286533.71143  24547432.2274                   24547432.4534
 11  9 25  0 39 30.0000000  0 10G29G12G02G30G18G05G25G15G26G21
 -23270737.19948 -18124212.73046  21083884.3754                   21083883.3204
 -21806769.69547 -16981956.71945  23051385.6174                   23051386.3134
 -30408311.28947 -23684044.92645  22397719.1724                   22397717.0434
 -13337318.52047 -10383058.84445  22633157.5474                   22633157.5904
    136799.89846    120326.68043  24415300.7894                   24415303.2934
 -29805456.42648 -23214243.80546  21147061.6174                   21147060.0204
 -21842319.52347 -17009217.25046  22135649.2734                   22135651.1254
 -10354818.87547  -8058925.27045  22787791.9384                   22787791.9384
 -17192450.00047 -13389000.93445  22035772.2504                   22035771.9144
  -3025665.45746  -2352248.96543  24531384.0554                   24531384.4064
 11  9 25  0 40  0.0000000  0 10G29G12G02G30G18G05G25G15G26G21
 -23359146.69948 -18193103.15646  21067060.2974                   21067059.1724
 -21739712.38347 -16929704.34045  23064146.5704                   23064146.7114
 -30384606.09447 -23665573.34045  22402230.0944                   22402227.5554
 -13341871.73047 -10386606.75045  22632291.2274                   22632291.2894
     22705.84046     31422.38743  24393588.7504                   24393591.2384
 -29766308.23448 -23183738.69546  21154511.3524                   21154509.7074
 -21810921.69547 -16984751.42246  22141624.0234                   22141626.0314
 -10474068.47347  -8151846.91045  22765099.4144                   22765099.2504
 -17289829.38347 -13464880.87945  22017241.2584                   22017241.3404
  -3110003.98046  -2417967.16443  24515334.7344                   24515334.7234
 11  9 25  0 40 30.0000000  0 10G29G12G02G30G18G05G25G15G26G21
 -23447234.43748 -18261742.85546  21050297.5234                   21050296.8754
 -21672520.67647 -16877347.23445  23076933.4614                   23076933.1884
 -30360779.32447 -23647007.00045  22406763.9224                   22406761.3874
 -13345886.53547 -10389735.12145  22631527.1804                   22631527.4614
    -91199.55546    -57334.88343  24371913.7424                   24371915.8404
 -29726832.81248 -23152978.60946  21162023.4924                   21162021.1764
 -21779118.94548 -16959970.06646  22147675.9924                   22147677.7854
 -10593147.30947  -8244635.48845  22742439.3134                   22742439.2894
 -17386768.22747 -13540417.55145  21998794.7274                   21998794.4964
  -3194346.64146  -2483688.59443  24499284.1724                   24499285.1564
 11  9 25  0 41  0.0000000  0 10G29G12G02G30G18G05G25G15G26G21
 -23534997.70748 -18330129.71946  21033597.0394                   21033595.5594
 -21605197.80947 -16824887.91045  23089743.5944                   23089744.1454
 -30336830.34447 -23628345.43745  22411321.8204                   22411318.8914
 -13349364.71147 -10392445.33245  22630865.4144                   22630865.3914
   -204914.94146   -145944.11743  24350274.6254                   24350276.2894
 -29687032.99248 -23121965.73446  21169596.7584                   21169595.1024
 -21746914.02348 -16934875.33646  22153804.4384                   22153805.9884
 -10712052.35547  -8337288.66045  22719812.3674                   22719811.6884
 -17483263.33247 -13615608.45345  21980432.3134                   21980431.4734
  -3278694.04746  -2549413.68744  24483234.0784                   24483233.8634
 11  9 25  0 41 30.0000000  0 10G29G12G02G30G18G05G25G15G26G21
 -23622434.54748 -18398262.22346  21016958.2974                   21016957.0314
 -21537746.58647 -16772328.59044  23102579.1804                   23102579.9494
 -30312759.10247 -23609588.61745  22415902.1024                   22415899.3244
 -13352307.94947 -10394738.70745  22630304.9844                   22630305.6254
   -318439.09046   -234404.30143  24328670.5084                   24328672.6884
 -29646910.85248 -23090701.71146  21177232.0314                   21177230.0864
 -21714309.58247 -16909469.29746  22160008.3204                   22160010.5004
 -10830780.07847  -8429803.65245  22697219.5554                   22697218.7504
 -17579311.05947 -13690450.75045  21962155.0864                   21962154.2234
  -3363046.50446  -2615142.73843  24467182.0554                   24467182.1374
 11  9 25  0 42  0.0000000  0 10G29G12G02G30G18G05G25G15G26G21
 -23709544.62548 -18466140.10546  21000381.7344                   21000380.2734
 -21470172.16047 -16719673.27344  23115437.8444                   23115438.3484
 -30288567.32047 -23590737.85245  22420505.8674                   22420502.7584
 -13354719.75847 -10396617.98845  22629845.9694                   22629846.4534
   -431772.45346   -322715.83643  24307104.0394                   24307105.6844
 -29606470.62948 -23059189.82446  21184927.2344                   21184925.3164
 -21681310.20747 -16883755.51646  22166288.4774                   22166290.1884
 -10949329.82847  -8522179.96945  22674659.7894                   22674659.7304
 -17674909.84447 -13764943.23045  21943963.2974                   21943962.1884
  -3447406.17246  -2680877.39843  24451128.5554                   24451128.9384
 11  9 25  0 42 30.0000000  0 10G29G12G02G30G18G05G25G15G26G21
 -23796323.79348 -18533760.14146  20983868.2034                   20983866.8284
 -21402475.93747 -16666923.04344  23128320.9304                   23128321.1134
 -30264252.38347 -23571791.11745  22425133.0314                   22425130.2974
 -13356600.62547 -10398083.55145  22629488.2274                   22629488.4804
   -544912.75046   -410876.98443  24285574.8204                   24285575.9534
 -29565713.42648 -23027430.94146  21192683.2424                   21192681.6054
 -21647917.22747 -16857735.03146  22172642.5704                   22172644.6484
 -11067696.63347  -8614413.72745  22652135.5084                   22652135.2624
 -17770054.76247 -13839082.03545  21925857.7424                   21925856.9884
  -3531772.09446  -2746616.95744  24435074.4304                   24435074.8984
 11  9 25  0 43  0.0000000  0 10G29G12G02G30G18G05G25G15G26G21
 -23882770.07448 -18601120.78946  20967417.7114                   20967416.7344
 -21334661.23447 -16614080.46544  23141225.5164                   23141225.6134
 -30239814.66847 -23552748.71145  22429783.0474                   22429779.9734
 -13357952.67247 -10399137.03545  22629230.6334                   22629231.0084
   -657858.83246   -498886.71943  24264080.8594                   24264082.3554
 -29524642.14548 -22995427.31246  21200498.4844                   21200496.7194
 -21614133.81247 -16831410.32046  22179071.3674                   22179073.4924
 -11185877.82047  -8706502.84845  22629645.6414                   22629646.0434
 -17864743.05547 -13912865.02345  21907839.3054                   21907838.3914
  -3616144.88746  -2812361.91844  24419018.5864                   24419019.4454
 11  9 25  0 43 30.0000000  0 10G29G12G02G30G18G05G25G15G26G21
 -23968880.42648 -18668219.67646  20951031.4384                   20951030.0554
 -21266730.59847 -16561147.57044  23154152.2584                   23154152.7274
 -30215253.13347 -23533609.82445  22434457.0084                   22434453.9344
 -13358777.10247 -10399779.41845  22629074.0704                   22629074.2664
   -770609.09046   -586743.87943  24242625.1174                   24242627.5124
 -29483258.55948 -22963180.34446  21208373.6414                   21208371.8984
 -21579962.12547 -16804783.05146  22185573.7424                   22185576.2194
 -11303869.62547  -8798444.40645  22607192.7974                   22607192.5394
 -17958970.53547 -13986288.94145  21889907.8834                   21889907.1254
  -3700524.52046  -2878112.16843  24402961.1724                   24402962.1054
 11  9 25  0 44  0.0000000  0 10G29G12G02G30G18G05G25G15G26G21
 -24054653.50848 -18735055.76246  20934709.1334                   20934707.7974
 -21198687.85947 -16508127.30544  23167100.1484                   23167100.8594
 -30190568.26247 -23514374.83245  22439154.3284                   22439151.5744
 -13359076.72347 -10400012.85245  22629016.9064                   22629016.9574
   -883163.10946   -674448.16843  24221206.4304                   24221208.3484
 -29441565.91448 -22930692.53146  21216307.1884                   21216305.3054
 -21545405.84047 -16777856.09446  22192150.0004                   22192152.1334
 -11421669.85947  -8890236.68045  22584776.2274                   22584775.6414
 -18052734.64847 -14059351.79745  21872065.2504                   21872064.0634
  -3784912.14846  -2943868.67244  24386903.1724                   24386904.1024
 11  9 25  0 44 30.0000000  0 10G29G12G02G30G18G05G25G15G26G21
 -24140086.93048 -18801627.18446  20918451.8594                   20918450.1804
 -21130536.05947 -16455022.07845  23180068.9384                   23180069.6684
 -30165759.90247 -23495043.62145  22443875.1804                   22443872.8914
 -13358853.21547 -10399838.67245  22629059.3204                   22629059.2424
   -995519.48046   -761998.40243  24199825.7504                   24199828.0904
 -29399566.53948 -22897965.72346  21224299.8284                   21224297.6954
 -21510467.62947 -16750631.53545  22198798.5004                   22198800.5234
 -11539275.12547  -8981877.04345  22562396.4924                   22562396.3634
 -18146031.80148 -14132050.78145  21854311.4064                   21854310.5864
  -3869308.23846  -3009631.77044  24370843.0394                   24370843.2584
 11  9 25  0 45  0.0000000  0 10G29G12G02G30G18G05G25G15G26G21
 -24225177.16848 -18867931.20346  20902259.4144                   20902258.4454
 -21062276.53947 -16401832.89845  23193058.5004                   23193059.4614
 -30140826.39547 -23475614.88345  22448619.6334                   22448616.8054
 -13358107.50447 -10399257.57445  22629201.4534                   22629201.5314
  -1107675.84846   -849392.81643  24178483.7894                   24178485.0664
 -29357261.96948 -22865001.10546  21232349.9844                   21232348.0514
 -21475149.29747 -16723110.77746  22205519.7194                   22205521.4654
 -11656681.50047  -9073362.41045  22540054.6724                   22540054.1454
 -18238857.88347 -14204382.69945  21836647.0394                   21836646.1644
  -3953711.89846  -3075400.74243  24354781.1804                   24354781.1254
 11  9 25  0 45 30.0000000  0 10G29G12G02G30G18G05G25G15G26G21
 -24309922.30948 -18933966.31646  20886133.0784                   20886131.6914
 -20993913.80947 -16348563.30145  23206067.5084                   23206068.0744
 -30115767.98847 -23456088.83645  22453388.0314                   22453385.4344
 -13356841.96947 -10398271.43745  22629442.1094                   22629442.2854
  -1219631.78546   -936631.03943  24157178.5084                   24157180.2704
 -29314654.77748 -22831800.67646  21240457.9614                   21240456.0904
 -21439454.12147 -16695296.36746  22212312.0164                   22212314.0474
 -11773886.15247  -9164690.59445  22517751.2034                   22517750.9924
 -18331209.69947 -14276345.05545  21819072.6564                   21819072.1094
  -4038123.96546  -3141176.31243  24338718.0084                   24338718.3444
 11  9 25  0 46  0.0000000  0 10G29G12G02G30G18G05G25G15G26G21
 -24394319.90648 -18999730.62546  20870072.8754                   20870071.1644
 -20925450.36347 -16295215.22345  23219096.0314                   23219096.9264
 -30090584.47347 -23436465.29345  22458180.1724                   22458177.9144
 -13355058.44947 -10396881.68745  22629781.7424                   22629781.5004
  -1331386.41446  -1023712.39143  24135912.3054                   24135913.4964
 -29271747.53148 -22798366.44146  21248622.5784                   21248620.7704
 -21403384.87947 -16667190.47346  22219175.9064                   22219177.7274
 -11890885.98447  -9255859.18445  22495486.7734                   22495486.8054
 -18423084.21147 -14347935.50445  21801589.8674                   21801588.7774
  -4122544.71946  -3206958.62144  24322653.5084                   24322653.4384
 11  9 25  0 46 30.0000000  0 10G29G12G02G30G18G05G25G15G26G21
 -24478367.51648 -19065222.22346  20854079.0554                   20854077.2774
 -20856888.99647 -16241790.84045  23232142.8444                   23232143.2234
 -30065274.77747 -23416743.43445  22462997.0164                   22462993.9304
 -13352758.75047 -10395089.72745  22630218.6564                   22630218.9884
  -1442938.02046  -1110635.53543  24114684.5004                   24114686.0434
 -29228542.46948 -22764700.14146  21256844.4534                   21256842.5434
 -21366944.27347 -16638795.20346  22226110.0004                   22226111.9454
 -12007677.42247  -9346865.37945  22473261.7114                   22473261.8204
 -18514477.78947 -14419151.18045  21784198.3204                   21784197.0084
  -4206974.32846  -3272747.84044  24306587.5084                   24306587.4024
 11  9 25  0 47  0.0000000  0 10G29G12G02G30G18G05G25G15G26G21
 -24562063.70348 -19130439.99247  20838152.2814                   20838150.6054
 -20788233.85547 -16188293.39145  23245207.3204                   23245208.1454
 -30039839.64547 -23396923.82445  22467837.2974                   22467833.9614
 -13349945.86747 -10392897.89545  22630755.0944                   22630754.6724
  -1554286.24646  -1197400.22343  24093495.0474                   24093497.2664
 -29185043.04748 -22730804.46946  21265121.9614                   21265120.3054
 -21330136.08247 -16610113.52046  22233114.5634                   22233116.6094
 -12124258.65247  -9437707.77045  22451077.4224                   22451077.1844
 -18605387.95747 -14489990.19145  21766898.1334                   21766897.4344
  -4291414.23446  -3338545.05144  24290518.5314                   24290518.7544
 11  9 25  0 47 30.0000000  0 10G29G12G02G30G18G05G25G15G26G21
 -24645405.28548 -19195381.44946  20822292.6414                   20822291.1294
 -20719486.79347 -16134724.32445  23258289.7814                   23258290.8754
 -30014277.70747 -23377005.40645  22472701.0864                   22472698.0314
 -13346620.76647 -10390306.93445  22631387.0864                   22631387.3444
  -1665429.37146  -1284005.12143  24072345.3134                   24072347.4534
 -29141250.42648 -22696680.33646  21273455.2274                   21273453.6884
 -21292962.19147 -16581146.86746  22240188.6254                   22240190.6724
 -12240625.26647  -9528382.94945  22428933.6174                   22428933.0704
 -18695810.48047 -14560449.22345  21749691.3594                   21749690.8714
  -4375863.92646  -3404349.91843  24274448.1174                   24274448.5984
 11  9 25  0 48  0.0000000  0 10G29G12G02G30G18G05G25G15G26G21
 -24728389.15248 -19260044.16046  20806501.3444                   20806500.0004
 -20650650.33246 -16081085.57844  23271388.1954                   23271389.6024
 -29988587.96547 -23356987.41845  22477590.0474                   22477587.0904
 -13342784.76247 -10387317.85945  22632117.1644                   22632116.8094
  -1776365.55546  -1370448.72343  24051234.9534                   24051236.6644
 -29097166.80948 -22662329.45346  21281844.4384                   21281842.7074
 -21255424.81247 -16551896.96946  22247331.5634                   22247333.6414
 -12356773.61747  -9618888.03945  22406831.2424                   22406830.7934
 -18785741.51647 -14630525.27345  21732578.0634                   21732577.5394
  -4460322.77046  -3470161.85943  24258376.3834                   24258376.6214
 11  9 25  0 48 30.0000000  0 10G29G12G02G30G18G05G25G15G26G21
 -24811015.94948 -19324428.64846  20790777.9384                   20790776.5944
 -20581729.81646 -16027381.33644  23284504.0554                   23284504.7624
 -29962773.05147 -23336871.87945  22482502.0474                   22482498.9924
 -13338442.89547 -10383934.62545  22632943.5314                   22632943.7974
  -1887096.12946  -1456732.10544  24030163.6254                   24030165.2774
 -29052797.27348 -22627755.78146  21290287.7274                   21290285.8164
 -21217529.78547 -16522368.39145  22254543.0314                   22254545.0514
 -12472703.78147  -9709223.12545  22384770.3914                   22384769.8364
 -18875180.76247 -14700218.11345  21715558.4844                   21715557.4884
  -4544794.44546  -3535983.81244  24242301.5474                   24242301.5984
 11  9 25  0 49  0.0000000  0 10G29G12G02G30G18G05G25G15G26G21
 -23317859.00448 -18160929.70346  21074916.1804                   21074914.8874
 -18937308.90246 -14746014.47344  23597426.7664                   23597427.1804
 -28361412.07447 -22089058.14145  22787231.0554                   22787228.5084
 -11758175.86747  -9152557.75445  22933658.2814                   22933658.5124
   -422195.35246   -315250.83243  24308924.6414                   24308926.4494
 -27432724.04348 -21365361.04746  21598577.5164                   21598575.4924
 -19603859.77347 -15264963.20346  22561613.9924                   22561616.2114
 -11012986.77347  -8571781.18445  22662545.1644                   22662545.1914
 -17388700.31247 -13541921.59045  21998426.0084                   21998425.4344
  -3053854.67646  -2374212.42643  24526017.7274                   24526018.2704
 11  9 25  0 49 30.0000000  0 10G29G12G02G30G18G05G25G15G26G21
 -23399761.54748 -18224749.83246  21059330.6884                   21059329.1804
 -18868227.23846 -14692184.65644  23610572.7274                   23610573.1644
 -28335342.69547 -22068744.32445  22792192.0164                   22792188.8014
 -11752825.39147  -9148388.60545  22934676.7814                   22934677.0164
   -532509.01646   -401209.34043  24287932.6484                   24287933.7934
 -27387786.78548 -21330344.98846  21607128.7194                   21607126.5204
 -19565255.03547 -15234881.59845  22568960.3594                   22568962.6214
 -11128467.09847  -8661765.74245  22640569.6094                   22640569.4774
 -17477143.13347 -13610837.99245  21981595.8524                   21981594.8484
  -3138349.49246  -2440052.37943  24509938.6024                   24509939.0904
 11  9 25  0 50  0.0000000  0 10G29G12G02G30G18G05G25G15G26G21
 -23481298.33247 -18288284.96147  21043814.7344                   21043813.2504
 -18799069.20746 -14638295.34444  23623732.6334                   23623733.7034
 -28309145.01247 -22048330.53145  22797177.2664                   22797174.1054
 -11746973.44547  -9143828.69944  22935789.8914                   22935790.2074
   -642612.09046   -487003.75843  24266979.9694                   24266981.8364
 -27342569.32448 -21295110.59846  21615733.5634                   21615731.3524
 -19526299.61747 -15204526.73445  22576373.1564                   22576375.5004
 -11243717.89847  -8751571.44545  22618638.5004                   22618637.3244
 -17565082.58247 -13679362.16445  21964861.8674                   21964860.5004
  -3222856.28146  -2505901.66444  24493857.8204                   24493857.4734
 11  9 25  0 50 30.0000000  0 10G29G12G02G30G18G05G25G15G26G21
 -23562466.26648 -18351532.67647  21028369.0634                   21028367.5634
 -18729837.22346 -14584348.41444  23636907.7664                   23636908.1294
 -28282818.14147 -22027816.06645  22802186.8674                   22802183.7114
 -11740621.81247  -9138879.41045  22936998.5084                   22936999.4104
   -752503.45746   -572633.14843  24246068.7034                   24246070.0434
 -27297073.37148 -21259659.19146  21624391.1884                   21624388.7504
 -19486995.96147 -15173900.52746  22583852.3754                   22583854.5904
 -11358735.94147  -8841195.79345  22596751.0394                   22596750.4264
 -17652514.94547 -13747491.21145  21948223.7114                   21948222.6024
  -3307374.68746  -2571760.00443  24477774.0394                   24477774.1254
 11  9 25  0 51  0.0000000  0 10G29G12G02G30G18G05G25G15G26G21
 -23643264.18448 -18414492.05947  21012993.6174                   21012991.6214
 -18660535.30146 -14530346.95344  23650095.8834                   23650095.7624
 -28256362.94147 -22007201.61745  22807221.2814                   22807217.7854
 -11733773.49647  -9133543.10545  22938301.7344                   22938302.1524
   -862182.74246   -658097.32843  24225197.0944                   24225198.7624
 -27251302.17648 -21223993.30946  21633100.9224                   21633098.8914
 -19447347.93447 -15143005.97346  22591397.3364                   22591399.4454
 -11473518.15647  -8930636.36345  22574908.2814                   22574907.7234
 -17739438.16847 -13815223.51645  21931682.7734                   21931681.5984
  -3391906.00846  -2637628.38743  24461688.7344                   24461688.3954
 11  9 25  0 51 30.0000000  0 10G29G12G02G30G18G05G25G15G26G21
 -23723688.46148 -18477160.28946  20997689.6254                   20997687.4414
 -18591164.95347 -14476292.18744  23663296.1644                   23663296.6414
 -28229777.44147 -21986485.62545  22812280.4924                   22812276.9844
 -11726429.17247  -9127820.28945  22939699.9454                   22939699.8404
   -971647.69946   -743394.46143  24204366.4774                   24204367.5594
 -27205256.77048 -21188113.76246  21641862.8444                   21641860.7814
 -19407357.01647 -15111844.22346  22599007.0084                   22599009.7194
 -11588060.47747  -9019890.02345  22553112.0004                   22553110.9654
 -17825847.65247 -13882555.52045  21915239.4304                   21915238.4654
  -3476449.10946  -2703505.95343  24445600.2194                   24445599.7154
 11  9 25  0 52  0.0000000  0 10G29G12G02G30G18G05G25G15G26G21
 -23803737.27048 -18539535.95746  20982456.5394                   20982454.8634
 -18521729.48847 -14422186.68044  23676509.4534                   23676509.6994
 -28203062.00047 -21965668.39145  22817363.9774                   22817360.7424
 -11718591.57047  -9121713.10245  22941190.8444                   22941191.2704
  -1080897.42246   -828523.85543  24183576.5944                   24183578.2274
 -27158940.09848 -21152022.83246  21650676.3364                   21650674.6884
 -19367026.56647 -15080417.91845  22606682.0004                   22606684.2504
 -11702360.34047  -9108954.75045  22531361.1254                   22531360.5394
 -17911740.41847 -13949484.87145  21898894.5784                   21898893.3284
  -3561005.06246  -2769393.52343  24429508.8914                   24429509.3524
 11  9 25  0 52 30.0000000  0 10G29G12G02G30G18G05G25G15G26G21
 -23883404.62548 -18601614.37546  20967296.2664                   20967294.7234
 -18452228.31247 -14368029.96944  23689735.1954                   23689735.8714
 -28176212.37947 -21944746.58645  22822473.2974                   22822470.4024
 -11710259.36747  -9115220.50845  22942776.2814                   22942776.9774
  -1189927.42246   -913482.05543  24162828.4844                   24162830.0394
 -27112351.37948 -21115719.91446  21659542.2114                   21659540.2544
 -19326356.11347 -15048726.66845  22614421.4534                   22614423.6884
 -11816410.96947  -9197825.26245  22509657.6094                   22509657.4304
 -17997109.92247 -14016006.49645  21882649.1954                   21882648.1914
  -3645570.43746  -2835288.41443  24413417.4534                   24413417.1644
 11  9 25  0 53  0.0000000  0 10G29G12G02G30G18G05G25G15G26G21
 -23962690.30548 -18663395.37546  20952208.8914                   20952207.0824
 -18382666.87547 -14313826.31244  23702972.7504                   23702972.6524
 -28149230.55147 -21923721.78145  22827607.7504                   22827605.3674
 -11701437.19147  -9108346.10945  22944455.3524                   22944455.8244
  -1298739.18446   -998270.17643  24142122.3754                   24142123.8674
 -27065495.02748 -21079208.44946  21668458.5004                   21668457.0044
 -19285351.01648 -15016774.64845  22622224.3754                   22622226.5474
 -11930211.44547  -9286500.86745  22488002.7194                   22488001.5434
 -18081955.71947 -14082120.02745  21866503.2584                   21866502.3014
  -3730148.07046  -2901192.88343  24397322.5004                   24397322.1644
 11  9 25  0 53 30.0000000  0 10G29G12G02G30G18G05G25G15G26G21
 -24041594.77348 -18724879.33246  20937193.8204                   20937192.0744
 -18313050.76247 -14259580.04344  23716219.8134                   23716220.5664
 -28122118.34447 -21902595.37545  22832766.7274                   22832764.1374
 -11692129.39547  -9101093.30545  22946226.7664                   22946226.7344
  -1407333.95746  -1082889.19543  24121457.3364                   24121458.3284
 -27018375.41048 -21042491.85546  21677425.1334                   21677423.2424
 -19244016.36747 -14984565.85245  22630090.1954                   22630092.3014
 -12043761.05547  -9374980.98845  22466394.5314                   22466393.9144
 -18166276.46547 -14147824.43045  21850457.7194                   21850456.5944
  -3814740.30946  -2967108.71943  24381224.7114                   24381225.0204
 11  9 25  0 54  0.0000000  0 10G29G12G02G30G18G05G25G15G26G21
 -24120113.28948 -18786062.53946  20922252.1484                   20922250.3874
 -18243380.03147 -14205291.20744  23729477.7894                   23729478.1764
 -28094873.25047 -21881365.41845  22837951.3284                   22837949.1254
 -11682335.88347  -9093462.01245  22948090.7194                   22948090.0784
  -1515707.85546  -1167336.13743  24100834.3444                   24100835.7274
 -26970992.91448 -21005570.40646  21686441.7344                   21686439.8324
 -19202352.80147 -14952100.75445  22638018.4844                   22638020.4454
 -12157054.04347  -9463261.14545  22444835.3364                   22444834.7424
 -18250067.10947 -14213115.76645  21834512.9224                   21834511.9184
  -3899345.14146  -3033034.34044  24365125.0474                   24365123.9304
 11  9 25  0 54 30.0000000  0 10G29G12G02G30G18G05G25G15G26G21
 -24198243.25848 -18846942.97746  20907384.5084                   20907382.5394
 -18173657.54747 -14150962.05144  23742745.4844                   23742746.7154
 -28067494.37147 -21860031.21145  22843161.7194                   22843159.0084
 -11672058.90647  -9085453.98845  22950045.9224                   22950046.8484
  -1623860.16046  -1251610.39143  24080253.5704                   24080254.7934
 -26923349.76648 -20968445.85246  21695508.3204                   21695505.8984
 -19160363.25047 -14919381.62945  22646009.0084                   22646011.2894
 -12270087.49247  -9551339.05545  22423325.6644                   22423325.4384
 -18333324.12547 -14277991.27345  21818669.5474                   21818668.5634
  -3983962.56646  -3098969.77743  24349022.5314                   24349022.3244
 11  9 25  0 55  0.0000000  0 10G29G12G02G30G18G05G25G15G26G21
 -24275983.83248 -18907519.98846  20892590.8284                   20892589.1604
 -18103887.72346 -14096596.01644  23756021.9694                   23756023.2384
 -28039982.64147 -21838593.47345  22848396.7734                   22848393.8954
 -11661302.05547  -9077072.02745  22952092.8674                   22952093.4844
  -1731791.25046  -1335712.26243  24059715.0474                   24059715.6844
 -26875449.64848 -20931121.05946  21704622.9774                   21704621.3134
 -19118052.00847 -14886411.84445  22654060.7734                   22654062.2774
 -12382859.55547  -9639213.30145  22401866.0634                   22401865.3674
 -18416046.10947 -14342449.88345  21802928.1564                   21802926.8954
  -4068594.46146  -3164916.50444  24332918.1024                   24332916.8954
 11  9 25  0 55 30.0000000  0 10G29G12G02G30G18G05G25G15G26G21
 -24353331.03948 -18967790.47747  20877872.2504                   20877870.3984
 -18034071.58646 -14042193.88744  23769307.4304                   23769308.6884
 -28012336.26647 -21817050.84445  22853657.5084                   22853655.2734
 -11650066.00047  -9068316.65645  22954231.3984                   22954231.3484
  -1839498.40246  -1419639.66843  24039218.5394                   24039219.1914
 -26827293.31248 -20893596.61346  21713786.8364                   21713784.9844
 -19075420.40647 -14853192.43445  22662172.8594                   22662175.1024
 -12495365.48047  -9726880.16445  22380456.7664                   22380456.1804
 -18498228.46947 -14406488.00445  21787288.7034                   21787287.8444
  -4153239.52747  -3230873.46944  24316809.6884                   24316809.2304
 11  9 25  0 56  0.0000000  0 10G29G12G02G30G18G05G25G15G26G21
 -24430284.40648 -19027754.06647  20863228.4614                   20863226.5044
 -17964213.54746 -13987759.08644  23782601.3984                   23782601.9414
 -27984556.33647 -21795404.13345  22858944.2034                   22858941.7234
 -11638354.62947  -9059190.91045  22956459.7114                   22956460.0824
  -1946982.15246  -1503392.98443  24018764.5394                   24018765.5044
 -26778884.88748 -20855875.73046  21722998.4534                   21722996.8524
 -19032473.09447 -14819727.02345  22670345.7894                   22670347.4884
 -12607603.92247  -9814338.59045  22359098.6564                   22359097.4494
 -18579869.57847 -14470104.37545  21771753.3754                   21771752.3014
  -4237899.84846  -3296842.33644  24300699.2734                   24300698.8444
 11  9 25  0 56 30.0000000  0 10G29G12G02G30G18G05G25G15G26G21
 -24506839.66048 -19087407.44547  20848660.3284                   20848658.8484
 -17894315.50846 -13933293.13744  23795902.6644                   23795903.6764
 -27956640.75047 -21773651.71945  22864256.1484                   22864253.3634
 -11626168.51247  -9049695.22345  22958778.3834                   22958778.7854
  -2054239.85946  -1586970.18043  23998353.8594                   23998354.7504
 -26730224.62548 -20817958.61746  21732258.4304                   21732256.2974
 -18989211.25447 -14786016.52045  22678577.8984                   22678579.7854
 -12719569.80947  -9901584.63745  22337792.0084                   22337791.1764
 -18660964.59047 -14533295.20745  21756321.5554                   21756320.7624
  -4322573.61347  -3362821.69544  24284586.2894                   24284585.9184
 11  9 25  0 57  0.0000000  0 10G29G12G02G30G18G05G25G15G26G21
 -24582995.48048 -19146749.57447  20834167.8284                   20834166.7234
 -17824381.00846 -13878798.75044  23809210.3674                   23809211.7704
 -27928590.09047 -21751794.03545  22869593.8134                   22869591.0474
 -11613510.84447  -9039832.10245  22961187.6334                   22961187.8914
  -2161271.30946  -1670371.08243  23977987.0634                   23977987.5354
 -26681315.99648 -20779847.96546  21741565.4064                   21741563.4144
 -18945638.78147 -14752063.96545  22686869.6174                   22686871.5394
 -12831260.85247  -9988616.52045  22316537.9224                   22316537.0634
 -18741511.47747 -14596058.93445  21740993.8444                   21740992.5234
  -4407261.77046  -3428812.27043  24268470.4304                   24268469.9654
 11  9 25  0 57 30.0000000  0 10G29G12G02G30G18G05G25G15G26G21
 -24658748.41848 -19205777.76647  20819753.1414                   20819751.1884
 -17754411.69546 -13824277.25044  23822525.9694                   23822526.0944
 -27900402.65647 -21729829.78945  22874958.1024                   22874954.8324
 -11600382.98847  -9029602.57045  22963685.5554                   22963686.1764
  -2268074.48846  -1753594.12143  23957662.5704                   23957663.7344
 -26632160.52048 -20741544.96546  21750919.1644                   21750917.1954
 -18901757.59847 -14717870.86345  22695219.6644                   22695222.0554
 -12942672.81247 -10075430.92245  22295336.5784                   22295335.7894
 -18821506.22747 -14658392.43446  21725771.3524                   21725769.5434
  -4491963.62947  -3494813.52344  24252352.5784                   24252351.2424
 11  9 25  0 58  0.0000000  0 10G29G12G02G30G18G05G25G15G26G21
 -24734094.96948 -19264489.28947  20805414.8204                   20805413.2344
 -17684408.59046 -13769729.42244  23835847.2114                   23835847.3164
 -27872076.43047 -21707757.37945  22880348.8284                   22880345.2584
 -11586785.46147  -9019007.08245  22966273.1804                   22966273.1374
  -2374646.82046  -1836637.30143  23937382.5554                   23937383.1954
 -26582758.43048 -20703049.80546  21760320.0784                   21760318.3244
 -18857568.96547 -14683438.19145  22703628.6484                   22703631.1174
 -13053801.21547 -10162024.37945  22274189.4694                   22274188.8244
 -18900943.94947 -14720291.87545  21710654.8204                   21710653.5124
  -4576677.76246  -3560824.32844  24236231.0944                   24236230.6174
 11  9 25  0 58 30.0000000  0 10G29G12G02G30G18G05G25G15G26G21
 -24809033.63748 -19322882.98847  20791154.4924                   20791153.0514
 -17614375.52347 -13715158.24244  23849173.6024                   23849174.5944
 -27843612.03547 -21685577.28945  22885765.1174                   22885761.7384
 -11572722.04747  -9008048.54745  22968948.6724                   22968949.3094
  -2480988.26246  -1919500.54744  23917145.7424                   23917146.6294
 -26533113.28948 -20664365.25046  21769767.4454                   21769765.4804
 -18813077.14847 -14648769.27045  22712094.9534                   22712097.4574
 -13164643.75047 -10248395.09045  22253097.1484                   22253096.2544
 -18979823.27347 -14781756.20345  21695644.2344                   21695643.2194
  -4661405.72347  -3626846.01044  24220108.0004                   24220106.9774
 11  9 25  0 59  0.0000000  0 10G29G12G02G30G18G05G25G15G26G21
 -24883562.82848 -19380957.62147  20776972.0704                   20776970.3014
 -17544316.66047 -13660566.93444  23862505.6094                   23862506.2584
 -27815009.69147 -21663289.72345  22891208.1094                   22891204.7584
 -11558195.69147  -8996729.28145  22971713.0394                   22971713.6054
  -2587098.64846  -2002183.78544  23896953.9304                   23896954.1604
 -26483228.27748 -20625493.78546  21779259.9844                   21779258.0944
 -18768285.84447 -14613867.00045  22720618.8444                   22720621.0904
 -13275198.12547 -10334541.25445  22232058.9614                   22232058.0784
 -19058141.68048 -14842783.46145  21680740.7814                   21680739.6884
  -4746148.36747  -3692878.98443  24203982.4774                   24203981.1844
 11  9 25  0 59 30.0000000  0 10G29G12G02G30G18G05G25G15G26G21
 -24957681.17248 -19438712.10547  20762867.8754                   20762865.7464
 -17474235.57847 -13605958.32044  23875841.7504                   23875842.6454
 -27786269.44147 -21640894.69145  22896676.8674                   22896673.2274
 -11543209.50447  -8985051.70745  22974565.1644                   22974565.4104
  -2692977.84446  -2084686.87144  23876805.4534                   23876805.3714
 -26433106.37548 -20586437.72746  21788797.7584                   21788795.9534
 -18723198.56247 -14578734.09445  22729198.6644                   22729200.8674
 -13385461.91847 -10420460.99245  22211076.4694                   22211075.4614
 -19135896.94947 -14903371.90645  21665943.9924                   21665943.2894
  -4830906.07046  -3758923.75444  24187852.9534                   24187852.1884
 11  9 25  1  0  0.0000000  0 10G29G12G02G30G18G05G25G15G26G21
 -25031385.38348 -19496143.89547  20748842.2344                   20748840.2194
 -17404133.75847 -13551333.53944  23889180.9694                   23889181.6174
 -27757390.19947 -21618391.35545  22902172.6174                   22902169.0044
 -11527764.97747  -8973016.96545  22977504.1024                   22977504.4924
  -2798623.91046  -2167008.31244  23856701.5084                   23856701.7304
 -26382748.96148 -20547198.15646  21798380.7194                   21798378.7704
 -18677817.53547 -14543372.29345  22737834.3054                   22737836.9494
 -13495430.98047 -10506151.06245  22190149.9924                   22190149.3244
 -19213085.38347 -14963518.66845  21651255.4224                   21651254.5124
  -4915678.59446  -3824980.09443  24171720.9064                   24171720.6294
 11  9 25  1  0 30.0000000  0 10G29G12G02G30G18G05G25G15G26G21
 -25104672.69548 -19553250.83247  20734895.8594                   20734894.1054
 -17334013.32847 -13496694.25444  23902524.5634                   23902525.1564
 -27728370.94147 -21595778.91845  22907694.7114                   22907690.6564
 -11511863.93047  -8960626.51245  22980529.8594                   22980529.9534
  -2904035.44146  -2249146.99643  23836642.1954                   23836643.0234
 -26332157.55148 -20507776.25046  21808007.7344                   21808005.6454
 -18632145.13747 -14507783.45345  22746525.6024                   22746527.7194
 -13605101.56247 -10591608.56245  22169280.2194                   22169279.2304
 -19289703.41048 -15023220.93745  21636676.1954                   21636674.5664
  -5000465.54747  -3891047.68044  24155586.3364                   24155586.2114
 11  9 25  1  1  0.0000000  0 10G29G12G02G30G18G05G25G15G26G21
 -25177539.68448 -19610030.23847  20721029.8674                   20721028.1214
 -17263876.29347 -13442042.04344  23915871.5314                   23915871.8754
 -27699210.28147 -21573056.30145  22913244.2034                   22913240.3284
 -11495507.67647  -8947881.34845  22983642.5554                   22983642.7304
  -3009210.02746  -2331101.02344  23816628.2034                   23816628.4964
 -26281333.32048 -20468172.92646  21817678.9694                   21817677.3054
 -18586183.30947 -14471969.08245  22755271.7894                   22755274.2154
 -13714469.55548 -10676830.26245  22148468.1724                   22148467.1644
 -19365747.10247 -15082475.68445  21622204.8834                   21622204.0004
  -5085265.59447  -3957125.43743  24139449.4224                   24139448.6484
 11  9 25  1  1 30.0000000  0 10G29G12G02G30G18G05G25G15G26G21
 -25249984.92248 -19666481.01247  20707244.0634                   20707242.0594
 -17193726.21547 -13387379.67244  23929221.0394                   23929221.1914
 -27669908.29747 -21550223.57045  22918819.7344                   22918816.4144
 -11478699.74647  -8934784.21945  22986840.4774                   22986841.0984
  -3114147.89146  -2412870.60943  23796658.8284                   23796659.2664
 -26230279.80548 -20428390.93746  21827394.3284                   21827392.2814
 -18539936.01247 -14435932.27045  22764072.3054                   22764074.8244
 -13823532.90248 -10761814.58245  22127713.6954                   22127712.6054
 -19441214.55548 -15141281.41445  21607844.2274                   21607842.8754
  -5170080.22746  -4023214.59044  24123309.5164                   24123308.8674
 11  9 25  1  2  0.0000000  0 10G29G12G02G30G18G05G25G15G26G21
 -25322009.03948 -19722603.64847  20693537.9924                   20693536.3914
 -17123569.09447 -13332711.81644  23942570.8674                   23942571.5554
 -27640467.21547 -21527282.44945  22924421.6334                   22924418.9654
 -11461445.31246  -8921339.18745  22990124.5634                   22990124.4494
  -3218850.78146  -2494457.07043  23776734.0084                   23776735.0354
 -26179001.78148 -20388434.02046  21837152.2194                   21837150.3054
 -18493408.94147 -14399677.44545  22772926.2894                   22772928.4614
 -13932291.18047 -10846561.18045  22107017.6954                   22107016.8794
 -19516105.68747 -15199638.06246  21593592.6174                   21593591.3014
  -5254912.32447  -4089317.33644  24107167.0474                   24107165.5474
 11  9 25  1  2 30.0000000  0 10G29G12G02G30G18G05G25G15G26G21
 -25393607.70348 -19778394.76647  20679913.2504                   20679911.4734
 -17053405.32446 -13278038.77044  23955922.8204                   23955923.9224
 -27610884.71947 -21504231.14545  22930050.5394                   22930048.5204
 -11443744.59447  -8907546.40645  22993492.5944                   22993492.5784
  -3323315.82046  -2575858.21944  23756855.0234                   23756855.7344
 -26127499.35948 -20348302.24246  21846952.8284                   21846950.9614
 -18446603.02047 -14363205.34445  22781833.5164                   22781835.6484
 -14040739.04348 -10931065.90645  22086381.0864                   22086379.9224
 -19590415.71147 -15257541.89145  21579451.8204                   21579450.4304
  -5339759.69146  -4155431.99244  24091020.4144                   24091019.4344
 11  9 25  1  3  0.0000000  0 10G29G12G02G30G18G05G25G15G26G21
 -25464778.05148 -19833852.12547  20666369.8674                   20666367.9104
 -16983237.09846 -13223362.27744  23969275.1024                   23969276.3054
 -27581159.63747 -21481068.72345  22935707.4144                   22935705.0044
 -11425599.60947  -8893407.44145  22996945.4384                   22996945.4414
  -3427540.96146  -2657072.43043  23737021.9844                   23737022.0904
 -26075774.14148 -20307996.85946  21856795.9144                   21856793.8444
 -18399520.56647 -14326517.76245  22790792.7734                   22790794.8954
 -14148872.74247 -11015325.83245  22065803.5314                   22065802.4224
 -19664140.87547 -15314989.99646  21565422.5864                   21565421.1804
  -5424622.07847  -4221558.34844  24074871.9534                   24074870.9774
 11  9 25  1  3 30.0000000  0 10G29G12G02G30G18G05G25G15G26G21
 -25535518.62548 -19888974.59847  20652908.2584                   20652906.4414
 -16913067.44946 -13168684.68044  23982627.4614                   23982629.2384
 -27551292.25847 -21457795.44945  22941391.7734                   22941388.5554
 -11407013.56646  -8878924.79345  23000482.2814                   23000482.9574
  -3531526.55546  -2738099.96143  23717233.8834                   23717233.7974
 -26023829.26248 -20267520.32046  21866680.9454                   21866678.4924
 -18352165.42247 -14289617.68445  22799803.9454                   22799806.3554
 -14256690.01248 -11099339.19146  22045286.7034                   22045285.6684
 -19737279.47347 -15371981.03545  21551504.4534                   21551503.0904
  -5509500.33247  -4287697.07044  24058719.6804                   24058718.7584
 11  9 25  1  4  0.0000000  0 10G29G12G02G30G18G05G25G15G26G21
 -25605827.35248 -19943760.57047  20639529.1414                   20639527.1954
 -16842899.71546 -13114008.59444  23995980.9304                   23995982.1254
 -27521282.27347 -21434411.02345  22947102.1484                   22947098.7234
 -11387989.16447  -8864100.57845  23004102.9614                   23004102.9534
  -3635271.72346  -2818940.16043  23697492.0394                   23697491.4964
 -25971667.40248 -20226874.69546  21876606.8914                   21876604.3954
 -18304540.78947 -14252507.62145  22808867.2194                   22808868.8094
 -14364187.64148 -11183103.48046  22024830.7344                   22024829.2384
 -19809828.75447 -15428512.86346  21537698.7504                   21537697.8014
  -5594394.54347  -4353848.22344  24042564.6564                   24042563.1454
 11  9 25  1  4 30.0000000  0 10G29G12G02G30G18G05G25G15G26G21
 -25675702.56248 -19998208.74247  20626232.4384                   20626230.4574
 -16772737.71146 -13059336.96944  24009332.2114                   24009333.4144
 -27491129.85947 -21410915.62545  22952840.3284                   22952836.9574
 -11368529.53947  -8848937.23844  23007805.5164                   23007805.2034
  -3738776.26646  -2899592.85543  23677795.7504                   23677795.3524
 -25919291.40248 -20186062.22346  21886573.5084                   21886571.3634
 -18256650.34847 -14215190.42245  22817980.2664                   22817982.4734
 -14471363.54748 -11266617.07046  22004435.6954                   22004434.2544
 -19881786.61747 -15484583.85545  21524005.4384                   21524004.1024
  -5679305.60947  -4420012.49644  24026406.2274                   24026405.4614
 11  9 25  1  5  0.0000000  0 10G29G12G02G30G18G05G25G15G26G21
 -25745141.25848 -20052316.77047  20613018.5864                   20613016.4224
 -16702582.84447 -13004670.88744  24022682.5084                   24022683.8134
 -27460833.57447 -21387308.10945  22958605.3054                   22958601.8204
 -11348636.48047  -8833436.16445  23011590.7274                   23011591.1914
  -3842038.46547  -2980056.70343  23658145.3594                   23658144.9614
 -25866702.27748 -20145083.66846  21896580.8984                   21896578.6374
 -18208496.15247 -14177667.70745  22827143.5784                   22827145.9574
 -14578213.60548 -11349876.76646  21984102.6094                   21984101.3204
 -19953149.72347 -15540191.39146  21510425.7734                   21510424.2774
  -5764232.86747  -4486189.40644  24010245.3524                   24010244.3874
 11  9 25  1  5 30.0000000  0 10G29G12G02G30G18G05G25G15G26G21
 -25814140.41848 -20106082.30147  20599888.5084                   20599886.4344
 -16632436.74247 -12950011.64144  24036030.5004                   24036032.2424
 -27430392.04747 -21363587.43045  22964397.8134                   22964394.5274
 -11328311.25047  -8817598.33245  23015459.1954                   23015458.9654
  -3945055.96147  -3060329.89144  23638541.6724                   23638541.0704
 -25813901.03148 -20103939.82046  21906628.9924                   21906626.3914
 -18160080.14847 -14139940.97745  22836356.6884                   22836359.1214
 -14684733.53148 -11432879.20746  21963832.2034                   21963830.9844
 -20023914.01248 -15595332.32846  21496959.6724                   21496958.2894
  -5849175.16447  -4552378.01244  23994081.6254                   23994079.9304
 11  9 25  1  6  0.0000000  0 10G29G12G02G30G18G05G25G15G26G21
 -25882696.90247 -20159502.89547  20586842.4844                   20586840.6294
 -16562301.44147 -12895360.83644  24049377.5314                   24049378.2384
 -27399803.58647 -21339752.26245  22970218.6024                   22970215.7074
 -11307555.81247  -8801425.28144  23019408.1174                   23019408.5124
  -4047827.51247  -3140411.41443  23618984.2584                   23618984.2854
 -25760889.40648 -20062632.05146  21916716.6804                   21916714.1334
 -18111404.68447 -14102012.06245  22845619.4924                   22845621.7774
 -14790919.43448 -11515621.38346  21943626.1024                   21943624.4304
 -20094076.28147 -15650004.15646  21483607.9224                   21483606.8484
  -5934132.07047  -4618578.02044  23977914.0394                   23977913.0664
 11  9 25  1  6 30.0000000  0 10G29G12G02G30G18G05G25G15G26G21
 -25950809.77348 -20212577.80947  20573881.2194                   20573879.0274
 -16492181.02047 -12840721.59044  24062720.6024                   24062721.4534
 -27369069.41047 -21315803.54345  22976067.4384                   22976064.3594
 -11286373.96946  -8784919.97344  23023439.0234                   23023439.1994
  -4150353.20747  -3220301.40243  23599474.2814                   23599474.0634
 -25707670.93047 -20021163.09446  21926843.6484                   21926841.4534
 -18062473.99647 -14063884.27345  22854930.7974                   22854933.1764
 -14896769.84848 -11598102.12546  21923482.9064                   21923481.7504
 -20163635.03947 -15704205.71945  21470371.7734                   21470370.2034
  -6019104.85547  -4684790.38744  23961744.3754                   23961743.1604
 11  9 25  1  7  0.0000000  0 10G29G12G02G30G18G05G25G15G26G21
 -26018476.27748 -20265304.90647  20561004.3834                   20561002.5044
 -16422077.58247 -12786095.58244  24076060.6024                   24076061.9344
 -27338188.45747 -21291740.45745  22981944.0474                   22981940.7074
 -11264767.78946  -8768084.00845  23027550.7814                   23027551.0864
  -4252631.72747  -3299998.78544  23580010.9064                   23580010.7974
 -25654247.20347 -19979534.21146  21937009.6094                   21937007.6644
 -18013290.63347 -14025559.59845  22864289.7424                   22864292.7034
 -15002280.66048 -11680318.24646  21903405.2504                   21903403.6564
 -20232587.32047 -15757934.69146  21457250.1804                   21457248.4184
  -6104092.79347  -4751014.59044  23945572.2194                   23945570.5514
 11  9 25  1  7 30.0000000  0 10G29G12G02G30G18G05G25G15G26G21
 -26085694.86348 -20317682.98447  20548213.3834                   20548211.2974
 -16351994.07847 -12731485.10944  24089397.6804                   24089398.1024
 -27307160.57447 -21267562.88345  22987848.3364                   22987844.5664
 -11242740.29747  -8750919.74644  23031742.3984                   23031743.0124
  -4354663.00047  -3379503.48044  23560595.3364                   23560594.5474
 -25600620.69547 -19937747.30946  21947214.3594                   21947212.0634
 -17963857.93747 -13987040.63745  22873696.2274                   22873698.8094
 -15107449.44548 -11762267.84846  21883392.0314                   21883390.7814
 -20300930.68047 -15811189.19546  21444244.9924                   21444243.5904
  -6189096.43747  -4817251.02344  23929396.2194                   23929394.6604
 11  9 25  1  8  0.0000000  0 10G29G12G02G30G18G05G25G15G26G21
 -26152465.81648 -20369712.25447  20535506.8674                   20535504.9494
 -16281936.25447 -12676894.62944  24102729.0784                   24102729.9924
 -27275987.98447 -21243272.54745  22993779.9614                   22993776.6804
 -11220296.75447  -8733431.30545  23036013.1954                   23036013.4104
  -4456448.56647  -3458816.73444  23541225.6414                   23541225.1914
 -25546796.22747 -19895806.15646  21957456.8134                   21957454.9844
 -17914181.72747 -13948331.92245  22883149.9384                   22883152.0044
 -15212276.02048 -11843950.79746  21863443.9924                   21863442.6524
 -20368665.34447 -15863969.38746  21431355.3054                   21431354.2544
  -6274119.00047  -4883502.20344  23913216.7974                   23913215.0984
 11  9 25  1  8 30.0000000  0 10G29G12G02G30G18G05G25G15G26G21
 -26218785.84848 -20421390.15247  20522886.7424                   20522884.5634
 -16211905.65247 -12622325.36744  24116055.7424                   24116056.7154
 -27244668.73847 -21218867.94545  22999740.1174                   22999737.0434
 -11197438.48046  -8715619.68444  23040363.3754                   23040363.8874
  -4557986.52747  -3537937.07044  23521903.5704                   23521902.9304
 -25492774.86747 -19853711.58246  21967736.8054                   21967734.9614
 -17864263.64847 -13909434.74245  22892648.9454                   22892650.7664
 -15316755.85548 -11925363.55946  21843562.3204                   21843561.1684
 -20435787.46147 -15916272.27046  21418582.4774                   21418580.7774
  -6359158.94947  -4949766.93744  23897033.8054                   23897032.4694
 11  9 25  1  9  0.0000000  0 10G29G12G02G30G18G05G25G15G26G21
 -26284653.71148 -20472715.71147  20510352.3834                   20510350.4844
 -16141905.32047 -12567779.71944  24129376.3364                   24129377.1684
 -27213203.41047 -21194349.48844  23005727.7424                   23005724.0474
 -11174169.10946  -8697487.74244  23044791.0234                   23044791.4844
  -4659276.97747  -3616864.52344  23502628.6174                   23502628.3164
 -25438559.75847 -19811466.03946  21978054.2894                   21978051.4694
 -17814107.76647 -13870352.24645  22902193.2734                   22902195.5904
 -15420886.89848 -12006504.53546  21823746.1174                   21823745.2154
 -20502295.32047 -15968096.50846  21405926.4064                   21405924.9734
  -6444217.26247  -5016045.99244  23880847.4384                   23880846.1054
 11  9 25  1  9 30.0000000  0 10G29G12G02G30G18G05G25G15G26G21
 -26350067.32048 -20523687.30947  20497904.9064                   20497902.6054
 -16071938.46946 -12513260.12543  24142690.3284                   24142691.1844
 -27181591.84847 -21169717.08644  23011742.9454                   23011739.7464
 -11150491.49647  -8679037.66045  23049297.1954                   23049296.8794
  -4760318.82047  -3695598.26643  23483401.3204                   23483400.2194
 -25384153.45747 -19769071.51246  21988407.0634                   21988404.9454
 -17763717.30547 -13831086.97745  22911782.3284                   22911784.7814
 -15524666.20348 -12087371.43046  21803997.9224                   21803996.2504
 -20568186.99248 -16019440.61746  21393387.6724                   21393385.9454
  -6529294.42647  -5082339.74244  23864658.2114                   23864655.7624
 11  9 25  1 10  0.0000000  0 10G29G12G02G30G18G05G25G15G26G21
 -26415024.81248 -20574303.49247  20485543.8284                   20485541.2624
 -16002007.33646 -12458768.38743  24155997.1094                   24155998.3794
 -27149833.43047 -21144970.23844  23017786.4384                   23017782.4774
 -11126408.30146  -8660271.53944  23053879.9774                   23053879.5314
  -4861111.79347  -3774138.07844  23464220.3524                   23464220.1844
 -25329557.87147 -19726529.48046  21998795.8674                   21998794.0204
 -17713095.27347 -13791641.25045  22921415.0474                   22921417.4264
 -15628090.75048 -12167961.88346  21784316.5944                   21784315.0634
 -20633459.65248 -16070302.36346  21380966.9694                   21380965.0044
  -6614389.82847  -5148647.72344  23848464.8594                   23848463.1294
 11  9 25  1 10 30.0000000  0 10G29G12G02G30G18G05G25G15G26G21
 -26479524.97348 -20624563.30547  20473269.8524                   20473267.3874
 -15932115.86346 -12404307.55943  24169297.7114                   24169298.7304
 -27117928.37147 -21120109.14144  23023857.3594                   23023854.1024
 -11101922.88746  -8641192.00844  23058539.3524                   23058538.9224
  -4961655.42647  -3852483.60244  23445087.5704                   23445087.0234
 -25274775.69947 -19683842.06646  22009220.5394                   22009218.6054
 -17662245.43747 -13752018.01245  22931091.7894                   22931093.8484
 -15731158.35248 -12248274.20746  21764703.7344                   21764702.0634
 -20698111.95747 -16120680.72746  21368663.5084                   21368662.0204
  -6699504.79347  -5214970.92644  23832267.7734                   23832266.0514
 11  9 25  1 11  0.0000000  0 10G29G12G02G30G18G05G25G15G26G21
 -26543564.30548 -20674464.03547  20461083.5164                   20461080.7704
 -15862265.44946 -12349878.69943  24182589.3914                   24182590.5984
 -27085875.23047 -21095132.64544  23029956.8674                   23029953.6684
 -11077036.81246  -8621800.26244  23063274.2664                   23063274.7934
  -5061948.20747  -3930633.68044  23426002.5084                   23426001.9064
 -25219808.05547 -19641010.13346  22019680.9454                   22019678.8594
 -17611169.77047 -13712218.83645  22940811.0864                   22940813.2974
 -15833864.82848 -12328305.12946  21745159.2114                   21745157.5554
 -20762140.15647 -16170572.77746  21356479.3134                   21356478.1254
  -6784638.04347  -5281308.41444  23816067.6094                   23816065.5434
 11  9 25  1 11 30.0000000  0 10G29G12G02G30G18G05G25G15G26G21
 -26607141.84048 -20724004.92647  20448984.9454                   20448982.9494
 -15792460.05146 -12295484.94543  24195873.2504                   24195874.7504
 -27053674.43047 -21070041.10544  23036084.8054                   23036081.5744
 -11051754.10247  -8602099.44944  23068085.8594                   23068085.4144
  -5161990.40646  -4008588.48044  23406964.6334                   23406964.4694
 -25164658.39847 -19598036.36346  22030175.4224                   22030173.1604
 -17559872.42647 -13672246.90245  22950572.6564                   22950574.8404
 -15936208.05948 -12408053.00846  21725684.0944                   21725682.2274
 -20825543.02747 -16219977.55546  21344414.0864                   21344412.2074
  -6869790.73847  -5347661.04744  23799863.0004                   23799861.3054
 11  9 25  1 12  0.0000000  0 10G29G12G02G30G18G05G25G15G26G21
 -26670256.34048 -20773185.01647  20436974.7034                   20436972.5984
 -15722702.50446 -12241128.46543  24209147.8594                   24209148.9614
 -27021325.75047 -21044834.33644  23042240.0704                   23042237.5234
 -11026077.60547  -8582091.78544  23072972.2734                   23072972.5234
  -5261781.85547  -4086347.92244  23387974.7114                   23387974.2704
 -25109329.14847 -19554922.64546  22040704.0944                   22040701.8594
 -17508356.78147 -13632104.86745  22960375.8914                   22960378.3284
 -16038185.43448 -12487515.80146  21706278.3054                   21706276.6524
 -20888318.46548 -16268893.42246  21332468.5004                   21332466.6604
  -6954963.15647  -5414029.05944  23783655.1414                   23783653.9104
 11  9 25  1 12 30.0000000  0 10G29G12G02G30G18G05G25G15G26G21
 -26732904.57048 -20822001.76647  20425052.8134                   20425050.7734
 -15652994.38347 -12186810.50443  24222413.2194                   24222414.1214
 -26988828.18447 -21019511.54344  23048424.5944                   23048421.2734
 -11000009.32847  -8561778.82444  23077932.6254                   23077932.3914
  -5361320.32847  -4163910.20744  23369033.5164                   23369032.7974
 -25053821.71147 -19511670.08246  22051267.0164                   22051264.8054
 -17456625.12947 -13591794.53145  22970220.5554                   22970222.5514
 -16139793.13748 -12566690.53946  21686942.7504                   21686941.0274
 -20950463.25848 -16317317.88746  21320642.5004                   21320640.5274
  -7040154.75447  -5480412.03544  23767443.9144                   23767442.0004
 11  9 25  1 13  0.0000000  0 10G29G12G02G30G18G05G25G15G26G21
 -26795084.66848 -20870453.73847  20413220.4844                   20413218.5234
 -15583338.93747 -12132533.58244  24235668.3834                   24235669.0784
 -26956181.72747 -20994072.75844  23054637.1174                   23054634.0984
 -10973552.31647  -8541162.95344  23082967.1254                   23082966.8754
  -5460605.83646  -4241275.39544  23350139.3834                   23350139.0084
 -24998138.56247 -19468280.59446  22061862.8524                   22061860.6024
 -17404680.82047 -13551318.48445  22980105.5394                   22980107.1724
 -16241028.30947 -12645574.98446  21667678.2894                   21667676.6524
 -21011975.52748 -16365249.47345  21308937.2894                   21308935.7734
  -7125365.84447  -5546810.18744  23751228.7034                   23751226.8444
 11  9 25  1 13 30.0000000  0 10G29G12G02G30G18G05G25G15G26G21
 -26856795.97348 -20918540.43047  20401476.9384                   20401474.8834
 -15513739.87947 -12078300.60544  24248911.9924                   24248913.4384
 -26923386.80147 -20968518.27345  23060878.2194                   23060875.1954
 -10946710.62547  -8520247.31644  23088075.6564                   23088075.1134
  -5559638.74247  -4318443.73444  23331294.3754                   23331293.5394
 -24942282.89847 -19424756.68046  22072491.8594                   22072490.0234
 -17352528.23847 -13510680.15245  22990029.1094                   22990031.5314
 -16341889.91448 -12724168.34446  21648484.9384                   21648482.7464
 -21072854.53548 -16412687.60946  21297351.9694                   21297350.5234
  -7210597.63747  -5613224.48844  23735009.3524                   23735007.9534
 11  9 25  1 14  0.0000000  0 10G29G12G02G30G18G05G25G15G26G21
 -26918033.78548 -20966258.15247  20389824.1414                   20389821.5704
 -15444197.44147 -12024111.74644  24262146.0554                   24262146.9734
 -26890440.47747 -20942845.81245  23067147.7664                   23067144.6174
 -10919484.40647  -8499032.06244  23093256.4454                   23093256.1724
  -5658415.84047  -4395412.75044  23312497.6644                   23312497.0944
 -24886254.32847 -19381098.03946  22083153.9304                   22083151.9304
 -17300167.71547 -13469879.79745  22999993.3594                   22999995.6844
 -16442372.31648 -12802466.22346  21629363.6254                   21629362.1054
 -21133095.14148 -16459628.28146  21285888.5704                   21285886.9264
  -7295847.45347  -5679652.84044  23718786.8914                   23718785.0314
 11  9 25  1 14 30.0000000  0 10G29G12G02G30G18G05G25G15G26G21
 -26978798.36748 -21013607.12547  20378260.7974                   20378258.7504
 -15374715.96547 -11969970.37944  24275367.8204                   24275368.7774
 -26857344.41447 -20917056.66445  23073445.4224                   23073442.1524
 -10891878.44147  -8477520.87944  23098509.2114                   23098508.8754
  -5756938.28947  -4472183.33644  23293749.8054                   23293748.2074
 -24830056.82447 -19337307.75846  22093847.3054                   22093845.6954
 -17247604.36747 -13428921.38745  23009995.4614                   23009997.7974
 -16542474.20747 -12880467.59846  21610315.2504                   21610313.1724
 -21192697.00448 -16506071.23446  21274546.6414                   21274545.3164
  -7381117.31246  -5746096.80544  23702560.6484                   23702559.2624
 11  9 25  1 15  0.0000000  0 10G29G12G02G30G18G05G25G15G26G21
 -27039088.72748 -21060586.57847  20366787.8524                   20366785.7344
 -15305299.21147 -11915879.45744  24288576.9144                   24288578.6094
 -26824098.98847 -20891151.13745  23079772.0004                   23079768.8164
 -10863896.43047  -8455716.69944  23103834.6334                   23103833.8914
  -5855206.50447  -4548755.81644  23275049.8204                   23275048.1914
 -24773693.37948 -19293388.17646  22104573.1254                   22104571.2774
 -17194842.19947 -13387808.04745  23020035.9844                   23020038.2304
 -16642193.53948 -12958170.87946  21591339.0704                   21591336.8874
 -21251659.18448 -16552015.72746  21263326.8834                   21263325.0634
  -7466408.02347  -5812557.03544  23686330.1484                   23686328.4804
 11  9 25  1 15 30.0000000  0 10G29G12G02G30G18G05G25G15G26G21
 -27098900.98047 -21107193.47747  20355405.8364                   20355403.8954
 -15235947.87547 -11861839.50844  24301774.5554                   24301775.8954
 -26790701.70747 -20865127.25845  23086127.3984                   23086123.9694
 -10835539.15247  -8433620.08244  23109229.8134                   23109230.0784
  -5953217.85247  -4625128.12544  23256398.3984                   23256397.3014
 -24717164.38747 -19249339.59046  22115330.2734                   22115328.5554
 -17141882.23847 -13346540.59045  23030113.8914                   23030116.1914
 -16741525.34848 -13035572.19146  21572436.5234                   21572434.8404
 -21309977.27047 -16597458.33246  21252228.9144                   21252226.9454
  -7551717.53146  -5879031.89544  23670096.0234                   23670094.4654
 11  9 25  1 16  0.0000000  0 10G29G12G02G30G18G05G25G15G26G21
 -27158234.98048 -21153427.71147  20344115.2664                   20344112.6054
 -15166666.20347 -11807853.82444  24314958.1024                   24314959.8524
 -26757154.07047 -20838986.23445  23092510.6954                   23092507.5274
 -10806811.51247  -8411234.86744  23114697.0004                   23114697.0594
  -6050973.52746  -4701301.23444  23237796.2274                   23237794.9344
 -24660473.91047 -19205165.16846  22126117.8204                   22126116.0044
 -17088729.58247 -13305122.96945  23040228.9924                   23040231.0044
 -16840468.88347 -13112670.95346  21553608.1724                   21553606.6024
 -21367651.34047 -16642399.09446  21241253.7974                   21241252.2194
  -7637047.98846  -5945523.09444  23653858.2584                   23653856.8094
 11  9 25  1 16 30.0000000  0 10G29G12G02G30G18G05G25G15G26G21
 -27217089.06648 -21199287.98847  20332915.3444                   20332913.3674
 -15097457.30547 -11753924.84844  24328128.7584                   24328129.4344
 -26723455.96947 -20812727.95345  23098923.4304                   23098920.2154
 -10777716.71147  -8388563.55144  23120234.0554                   23120233.5554
  -6148473.31247  -4777274.91844  23219242.3984                   23219241.0274
 -24603624.12547 -19160866.60946  22136935.9774                   22136934.3324
 -17035387.60247 -13263557.83245  23050379.2034                   23050381.6724
 -16939021.37948 -13189465.02046  21534854.4064                   21534852.2344
 -21424679.57447 -16686836.61746  21230401.7814                   21230400.1294
  -7722399.60547  -6012030.78144  23637616.4384                   23637614.9884
 11  9 25  1 17  0.0000000  0 10G29G12G02G30G18G05G25G15G26G21
 -27275461.69548 -21244773.10547  20321807.5164                   20321805.1564
 -15028323.94146 -11700054.72744  24341283.9454                   24341285.7074
 -26689607.29747 -20786352.35244  23105364.0084                   23105361.5434
 -10748257.79747  -8365608.51644  23125839.6094                   23125839.1804
  -6245716.74247  -4853048.84444  23200737.3134                   23200735.7304
 -24546617.47747 -19116445.83245  22147784.2114                   22147782.0984
 -16981859.73447 -13221847.84845  23060565.1564                   23060567.9414
 -17037180.41048 -13265952.48846  21516174.7274                   21516173.1844
 -21481060.12547 -16730769.44146  21219672.5554                   21219670.8484
  -7807772.68746  -6078555.18744  23621370.5944                   23621368.3794
 11  9 25  1 17 30.0000000  0 10G29G12G02G30G18G05G25G15G26G21
 -27333350.41048 -21289881.14847  20310791.5004                   20310789.1804
 -14959268.35546 -11646245.23043  24354425.3054                   24354426.6214
 -26655607.34046 -20759858.86344  23111834.0784                   23111829.9734
 -10718437.22347  -8342371.65644  23131514.0704                   23131513.8954
  -6342702.59847  -4928622.07844  23182281.1564                   23182280.0234
 -24489455.87548 -19071904.30146  22158662.1254                   22158659.6524
 -16928148.63747 -13179995.07045  23070786.0394                   23070788.4454
 -17134942.68748 -13342130.78946  21497571.1644                   21497569.3364
 -21536790.76247 -16774195.85246  21209067.7664                   21209065.9964
  -7893166.86746  -6145096.04344  23605120.4774                   23605118.2154
 11  9 25  1 18  0.0000000  0 10G29G12G02G30G18G05G25G15G26G21
 -27390752.68448 -21334610.14847  20299868.2894                   20299865.9614
 -14890292.53246 -11592497.91843  24367550.9844                   24367551.6764
 -26621454.63746 -20733246.35244  23118332.9534                   23118329.5044
 -10688257.12947  -8318854.67644  23137257.3674                   23137256.8984
  -6439429.82447  -5003993.78544  23163874.1724                   23163873.4804
 -24432140.40648 -19027242.86745  22169568.9064                   22169566.3444
 -16874256.47347 -13138001.20745  23081041.1884                   23081044.3324
 -17232304.55948 -13417997.09846  21479043.8674                   21479041.9104
 -21591868.36347 -16817113.39546  21198586.4064                   21198584.7544
  -7978581.10946  -6211652.52744  23588866.9064                   23588864.6174
 11  9 25  1 18 30.0000000  0 10G29G12G02G30G18G05G25G15G26G21
 -27447666.63348 -21378958.64147  20289037.9384                   20289035.1804
 -14821398.80646 -11538814.47343  24380660.2344                   24380661.3874
 -26587148.94146 -20706514.66844  23124860.7734                   23124857.7274
 -10657720.39147  -8295059.78144  23143068.1564                   23143067.9454
  -6535897.74247  -5079163.40244  23145517.2814                   23145516.2704
 -24374673.32847 -18982463.29346  22180504.4454                   22180501.8874
 -16820186.56647 -13095868.83245  23091330.6094                   23091332.9024
 -17329263.19548 -13493549.18746  21460592.9534                   21460591.3284
 -21646291.33248 -16859520.84046  21188230.1954                   21188228.4064
  -8064015.58246  -6278224.77044  23572608.9924                   23572606.6214
 11  9 25  1 19  0.0000000  0 10G29G12G02G30G18G05G25G15G26G21
 -27504091.05948 -21422925.69147  20278300.7274                   20278298.1254
 -14752590.47746 -11485197.70743  24393754.0864                   24393755.7734
 -26552690.26646 -20679663.74244  23131418.5084                   23131415.1454
 -10626830.50047  -8270989.70744  23148946.2194                   23148945.8634
  -6632106.45747  -5154131.05144  23127208.4144                   23127207.5274
 -24317057.14848 -18937567.55146  22191468.4064                   22191466.0234
 -16765942.37547 -13053600.65245  23101653.2504                   23101655.4184
 -17425816.18748 -13568785.19146  21442219.6954                   21442217.8444
 -21700057.93448 -16901416.82446  21177998.8914                   21177996.8794
  -8149470.82446  -6344813.20344  23556347.4064                   23556345.5864
 11  9 25  1 19 30.0000000  0 10G29G12G02G30G18G05G25G15G26G21
 -27560024.83648 -21466510.42247  20267656.7664                   20267654.3094
 -14683870.85246 -11431650.01243  24406831.2894                   24406832.1254
 -26518078.91046 -20652693.85944  23138005.4384                   23138001.0164
 -10595591.03547  -8246647.24644  23154891.1724                   23154890.9844
  -6728056.00047  -5228896.76244  23108950.6724                   23108948.9924
 -24259294.66048 -18892557.78946  22202460.1484                   22202457.9304
 -16711527.85247 -13011199.74645  23112007.7584                   23112010.0984
 -17521961.70348 -13643703.69146  21423923.7344                   21423921.9654
 -21753167.37547 -16942800.75046  21167892.2814                   21167890.6254
  -8234947.38346  -6411418.23844  23540081.8594                   23540079.7704
 11  9 25  1 20  0.0000000  0 10G29G12G02G30G18G05G25G15G26G21
 -27615465.23848 -21509710.70347  20257106.8284                   20257104.2234
 -14615241.44546 -11378172.55143  24419890.9844                   24419891.6094
 -26483313.67646 -20625604.05944  23144621.3204                   23144617.6374
 -10564003.97347  -8222033.93444  23160901.8674                   23160901.3054
  -6823745.00047  -5303459.44944  23090740.9534                   23090740.1174
 -24201387.00448 -18847434.92246  22213479.9454                   22213477.1214
 -16656945.03547 -12968667.69544  23122394.6094                   23122396.8874
 -17617695.88748 -13718301.68046  21405706.0394                   21405704.2854
 -21805616.74248 -16983670.32446  21157911.4774                   21157909.6254
  -8320444.31246  -6478039.14844  23523811.9144                   23523810.2664
 11  9 25  1 20 30.0000000  0 10G29G12G02G30G18G05G25G15G26G21
 -26094987.72348 -20324923.00447  20546444.0004                   20546441.4304
 -12971286.13746 -10097168.46943  24732725.6954                   24732727.1134
 -24872974.23046 -19370794.08644  23451058.1484                   23451054.8324
  -8956652.35547  -6969552.14844  23466770.1564                   23466770.3834
  -5343748.60247  -4150215.32844  23372375.1954                   23372373.9384
 -22567917.25048 -17574601.32445  22524318.7274                   22524316.1024
 -15026777.96547 -11698407.64544  23432605.0394                   23432607.4104
 -16137591.85248 -12564973.77346  21687360.3134                   21687358.5164
 -20281981.31647 -15796421.88346  21447849.6564                   21447848.3524
  -6830537.89146  -5317073.02344  23807332.1724                   23807329.4774
 11  9 25  1 21  0.0000000  0 10G29G12G02G30G18G05G25G15G26G21
 -26149434.38348 -20367348.94547  20536083.1414                   20536080.8094
 -12902843.27046 -10043836.37943  24745749.6334                   24745750.7424
 -24837898.20746 -19343462.10944  23457733.2114                   23457730.0594
  -8924377.24647  -6944402.70344  23472912.5394                   23472912.1764
  -5438912.97747  -4224369.22744  23354265.6954                   23354264.2154
 -22509723.58248 -17529255.58645  22535392.5394                   22535389.8014
 -14971866.21547 -11655619.27344  23443054.5784                   23443056.9654
 -16232492.83648 -12638922.51646  21669301.2664                   21669299.4654
 -20333103.16848 -15836257.05146  21438121.6414                   21438119.5004
  -6916073.72346  -5383724.23444  23791054.6334                   23791052.8164
 11  9 25  1 21 30.0000000  0 10G29G12G02G30G18G05G25G15G26G21
 -26203383.00048 -20409386.81247  20525817.1254                   20525814.6684
 -12834498.89546  -9990581.06643  24758755.2344                   24758756.3554
 -24802667.93746 -19316009.93445  23464437.6804                   23464434.1884
  -8891764.20347  -6918989.95744  23479118.1644                   23479118.2544
  -5533815.61747  -4298319.17644  23336206.6174                   23336204.9024
 -22451391.80948 -17483802.23046  22546492.1954                   22546490.1454
 -14916796.34047 -11612707.70744  23453534.0704                   23453536.2114
 -16326974.98848 -12712544.89546  21651321.8364                   21651320.0234
 -20383560.16448 -15875574.13746  21428519.9924                   21428517.6214
  -7001630.48446  -5450391.75044  23774774.0784                   23774771.4414
 11  9 25  1 22  0.0000000  0 10G29G12G02G30G18G05G25G15G26G21
 -26256832.34848 -20451035.62547  20515645.9924                   20515643.5824
 -12766255.89546  -9937404.73043  24771740.9694                   24771743.0204
 -24767283.06647 -19288437.30545  23471171.1724                   23471167.3324
  -8858816.51247  -6893316.40644  23485387.6254                   23485388.0744
  -5628456.42247  -4372065.10244  23318196.5314                   23318195.2424
 -22392924.21947 -17438243.05145  22557618.5864                   22557616.4734
 -14861571.73447 -11569675.54344  23464042.6564                   23464045.1804
 -16421035.64548 -12785838.84046  21633422.6804                   21633420.6954
 -20433350.95348 -15914372.10946  21419044.6954                   21419043.1214
  -7087208.24646  -5517075.64144  23758488.3984                   23758486.3914
 11  9 25  1 22 30.0000000  0 10G29G12G02G30G18G05G25G15G26G21
 -26309780.21148 -20492293.67647  20505570.5474                   20505567.9344
 -12698116.60546  -9884309.21543  24784708.2114                   24784709.8984
 -24731742.78947 -19260743.55945  23477933.8204                   23477930.5704
  -8825536.52347  -6867383.98444  23491721.1174                   23491720.8244
  -5722834.71147  -4445606.47344  23300236.4924                   23300235.8634
 -22334322.25447 -17392579.17246  22568770.4064                   22568767.6684
 -14806194.98447 -11526524.82845  23474580.7504                   23474582.8204
 -16514671.76248 -12858801.97346  21615604.0634                   21615602.3914
 -20482473.40248 -15952649.28546  21409697.1024                   21409695.2704
  -7172806.98047  -5583775.86344  23742199.6884                   23742197.6294
 11  9 25  1 23  0.0000000  0 10G29G12G02G30G18G05G25G15G26G21
 -26362224.78948 -20533159.55147  20495590.2344                   20495587.8914
 -12630083.34046  -9831296.32444  24797654.6094                   24797655.6254
 -24696047.15246 -19232928.76645  23484726.4694                   23484722.7664
  -8791927.52346  -6841195.14844  23498115.8054                   23498116.0784
  -5816950.10947  -4518943.01244  23282327.5234                   23282325.8754
 -22275587.99647 -17346812.21145  22579946.5004                   22579944.5554
 -14750669.29347 -11483258.06245  23485146.8524                   23485149.0204
 -16607880.74647 -12931432.27746  21597866.9384                   21597865.1174
 -20530925.85948 -15990404.39846  21400476.9774                   21400475.0354
  -7258426.50046  -5650492.28544  23725906.4924                   23725904.6724
 11  9 25  1 23 30.0000000  0 10G29G12G02G30G18G05G25G15G26G21
 -26414163.99648 -20573631.63347  20485706.5314                   20485704.1414
 -12562158.73046  -9778368.07844  24810579.7194                   24810581.9574
 -24660195.22347 -19204992.18745  23491548.3134                   23491545.7504
  -8757992.14147  -6814752.02044  23504574.1024                   23504574.4264
  -5910801.67247  -4592073.94944  23264467.8134                   23264466.1454
 -22216723.36747 -17300943.66045  22591148.1484                   22591146.2304
 -14694997.56247 -11439877.49645  23495741.5394                   23495743.5004
 -16700659.45747 -13003727.30546  21580212.0004                   21580209.8164
 -20578706.66448 -16027636.14146  21391384.6174                   21391382.2974
  -7344066.28147  -5717224.49644  23709610.1484                   23709607.8954
 11  9 25  1 24  0.0000000  0 10G29G12G02G30G18G05G25G15G26G21
 -26465596.35948 -20613708.77347  20475919.4304                   20475916.9534
 -12494344.99646  -9725526.24644  24823484.9224                   24823486.1954
 -24624186.39146 -19176933.35944  23498400.4224                   23498398.0704
  -8723733.15246  -6788056.73444  23511093.7734                   23511093.0274
  -6004388.50447  -4664998.59844  23246659.0164                   23246656.6524
 -22157730.00847 -17254974.81645  22602374.5004                   22602372.2114
 -14639182.60547 -11396385.32445  23506362.0314                   23506364.7114
 -16793004.92247 -13075684.73846  21562638.9454                   21562637.0904
 -20625813.64848 -16064342.82846  21382420.4144                   21382418.1764
  -7429726.06247  -5783972.28144  23693310.1334                   23693307.0634
 11  9 25  1 24 30.0000000  0 10G29G12G02G30G18G05G25G15G26G21
 -26516520.68048 -20653390.02747  20466228.8914                   20466226.5904
 -12426644.78146  -9672772.87544  24836367.1024                   24836369.0744
 -24588020.80547 -19148752.38344  23505283.0394                   23505280.3014
  -8689154.14546  -6761112.06244  23517673.0864                   23517674.4774
  -6097711.23047  -4737717.47344  23228899.6724                   23228898.3834
 -22098610.75047 -17208907.85945  22613624.6884                   22613622.1214
 -14583227.97747 -11352784.31245  23517009.9534                   23517012.4384
 -16884915.28148 -13147303.12146  21545149.2274                   21545147.1914
 -20672246.10548 -16100523.91046  21373584.3134                   21373582.2384
  -7515406.36347  -5850736.06644  23677005.4304                   23677002.7814
 11  9 25  1 25  0.0000000  0 10G29G12G02G30G18G05G25G15G26G21
 -26566935.63348 -20692674.37547  20456635.0864                   20456632.5274
 -12359061.18446  -9620110.40244  24849228.6724                   24849230.2384
 -24551698.46946 -19120449.25844  23512194.7894                   23512191.9414
  -8654258.41047  -6733920.63744  23524314.7734                   23524313.5904
  -6190769.49647  -4810230.26244  23211191.7114                   23211189.9884
 -22039367.71147 -17162744.45345  22624897.7974                   22624895.6804
 -14527137.23847 -11309077.25445  23527683.4224                   23527686.0944
 -16976388.10548 -13218580.58646  21527742.1094                   21527740.5744
 -20718002.44148 -16136178.13746  21364877.4224                   21364875.5904
  -7601107.49247  -5917516.06244  23660696.4224                   23660694.3094
 11  9 25  1 25 30.0000000  0  9G29G02G30G18G05G25G15G26G21
 -26616838.41848 -20731559.62947  20447138.9064                   20447136.2034
 -24515218.10546 -19092022.98444  23519136.5234                   23519133.6254
  -8619048.06646  -6706484.02344  23531014.0234                   23531014.8634
  -6283561.93447  -4882535.91844  23193533.3834                   23193531.6174
 -21980002.06647 -17116485.51245  22636195.0004                   22636192.6844
 -14470912.46147 -11265265.75845  23538382.9064                   23538385.7424
 -17067419.37948 -13289513.98046  21510419.6414                   21510417.5204
 -20763080.43048 -16171303.78946  21356298.8984                   21356297.1024
  -7686828.02747  -5984311.18044  23644384.5784                   23644382.3754
 11  9 25  1 26  0.0000000  0  9G29G02G30G18G05G25G15G26G21
 -26666225.48848 -20770043.02747  20437740.8364                   20437738.5234
 -24478577.17646 -19063471.61344  23526109.1174                   23526106.3794
  -8583524.05547  -6678803.01244  23537774.5704                   23537773.6764
  -6376085.81647  -4954632.30144  23175926.6174                   23175925.0044
 -21920513.52347 -17070130.80545  22647514.9384                   22647512.9224
 -14414554.72747 -11221350.63345  23549107.2584                   23549110.1294
 -17158004.73048 -13360099.90646  21493181.7734                   21493179.9384
 -20807476.55948 -16205898.11746  21347851.0704                   21347848.9384
  -7772565.61347  -6051119.57444  23628069.1484                   23628066.8914
 11  9 25  1 26 30.0000000  0  9G29G02G30G18G05G25G15G26G21
 -26715090.03948 -20808119.26247  20428441.8834                   20428439.4804
 -24441770.29347 -19034790.93044  23533113.4454                   23533110.4844
  -8547684.25847  -6650875.91844  23544594.8594                   23544594.6954
  -6468335.98846  -5026515.40644  23158372.1334                   23158370.2934
 -21860898.67647 -17023677.68745  22658860.0164                   22658857.4024
 -14358061.94147 -11177330.29744  23559857.6954                   23559860.0554
 -17248136.41848 -13430332.32046  21476030.0704                   21476028.0274
 -20851184.45348 -16239956.15646  21339533.4924                   21339531.6024
  -7858315.52347  -6117937.55144  23611751.0554                   23611748.7464
 11  9 25  1 27  0.0000000  0  9G29G02G30G18G05G25G15G26G21
 -26763426.95748 -20845784.35547  20419243.9774                   20419241.4574
 -24404793.02746 -19005977.45344  23540149.7734                   23540146.6764
  -8511527.72347  -6622702.01644  23551474.9844                   23551475.4384
  -6560307.64547  -5098181.48444  23140870.2424                   23140868.7194
 -21801155.47347 -16977124.55145  22670228.2424                   22670226.0594
 -14301433.14847 -11133203.96945  23570633.8914                   23570636.5044
 -17337807.90648 -13500206.14146  21458966.2584                   21458964.0984
 -20894198.34448 -16273473.42246  21331348.2344                   21331346.1724
  -7944073.48447  -6184761.81244  23595432.3134                   23595429.1724
 11  9 25  1 27 30.0000000  0  9G29G02G30G18G05G25G15G26G21
 -26811237.57048 -20883039.34047  20410145.9064                   20410143.4064
 -24367648.24247 -18977033.43744  23547218.2034                   23547215.5004
  -8475060.62147  -6594286.10244  23558414.9844                   23558413.9924
  -6652003.95347  -5169633.00044  23123420.6564                   23123418.8284
 -21741289.84047 -16930476.00445  22681620.0944                   22681618.1644
 -14244674.77347 -11088976.68045  23581434.4844                   23581436.8984
 -17427019.76248 -13569721.80146  21441989.6174                   21441987.4924
 -20936520.31648 -16306451.53146  21323294.5634                   21323292.6644
  -8029842.64847  -6251594.79744  23579110.6644                   23579107.8484
 11  9 25  1 28  0.0000000  0  9G29G02G30G18G05G25G15G26G21
 -26858523.38348 -20919885.38347  20401147.5704                   20401144.9494
 -24330338.67647 -18947961.00044  23554317.4844                   23554314.3554
  -8438289.07847  -6565632.97744  23565412.0944                   23565412.1524
  -6743427.26647  -5240871.79744  23106023.4844                   23106021.4734
 -21681306.55547 -16883735.78545  22693034.7734                   22693033.1054
 -14187792.71947 -11044652.99245  23592258.5944                   23592261.6134
 -17515772.30948 -13638879.56646  21425100.6644                   21425098.5044
 -20978151.54348 -16338891.39846  21315372.3204                   21315370.1884
  -8115625.77047  -6318438.65644  23562786.7664                   23562783.7344
 11  9 25  1 28 30.0000000  0  9G29G02G30G18G05G25G15G26G21
 -26905284.37948 -20956322.48847  20392249.0234                   20392246.6804
 -24292865.65247 -18918761.22344  23561448.9384                   23561444.7974
  -8401217.72347  -6536746.18044  23572466.3674                   23572466.5474
  -6834578.79747  -5311898.80944  23088677.6254                   23088675.9774
 -21621208.51247 -16836906.14545  22704471.0164                   22704469.0124
 -14130791.74647 -11000236.65644  23603105.7814                   23603108.1724
 -17604064.63348 -13707678.71146  21408299.3054                   21408296.6374
 -21019092.84848 -16370793.65246  21307581.2894                   21307579.3244
  -8201424.23847  -6385294.46544  23546459.9454                   23546457.0704
 11  9 25  1 29  0.0000000  0  9G29G02G30G18G05G25G15G26G21
 -26951518.76248 -20992349.23447  20383451.1804                   20383448.6294
 -24255228.18447 -18889433.30944  23568611.3674                   23568607.5634
  -8363849.28947  -6507627.96544  23579577.4304                   23579577.5354
  -6925458.08247  -5382713.68444  23071384.0164                   23071382.6524
 -21560997.65647 -16789988.60945  22715928.8754                   22715926.7034
 -14073674.57447 -10955729.77045  23613975.3594                   23613977.1844
 -17691893.56247 -13776116.77046  21391585.8134                   21391583.6684
 -21059342.45348 -16402156.93046  21299922.0164                   21299919.5984
  -8287237.63747  -6452161.89844  23530130.3444                   23530127.0314
 11  9 25  1 29 30.0000000  0  9G29G02G30G18G05G25G15G26G21
 -26997226.43448 -21027965.56647  20374753.1804                   20374750.7424
 -24217427.24247 -18859978.01244  23575804.6334                   23575800.8594
  -8326188.28947  -6478281.66044  23586743.8054                   23586743.1374
  -7016066.14847  -5453317.22744  23054141.5704                   23054139.7894
 -21500677.34847 -16742985.77045  22727407.5704                   22727405.6254
 -14016445.74647 -10911135.87144  23624865.2424                   23624867.3594
 -17779258.20748 -13844193.05146  21374960.7664                   21374958.4384
 -21098900.48448 -16432981.33246  21292394.6564                   21292392.0904
  -8373066.98047  -6519041.76644  23513796.8204                   23513794.3404
 11  9 25  1 30  0.0000000  0  9G29G02G30G18G05G25G15G26G21
 -27042406.90248 -21063171.08647  20366155.5784                   20366153.1174
 -24179464.01647 -18830396.27044  23583028.1334                   23583024.7234
  -8288238.78547  -6448710.66044  23593965.6644                   23593966.3134
  -7106403.69547  -5523709.96944  23036951.0554                   23036949.1724
 -21440250.34047 -16695899.78545  22738906.1484                   22738904.0274
 -13959109.27747 -10866458.09444  23635775.7734                   23635778.2704
 -17866157.06248 -13911906.37546  21358424.7814                   21358422.2734
 -21137766.58248 -16463266.55546  21284998.3284                   21284996.6024
  -8458913.36347  -6585934.91045  23497460.7194                   23497458.1334
 11  9 25  1 30 30.0000000  0  9G29G02G30G18G05G25G15G26G21
 -27087059.54748 -21097965.31247  20357658.4774                   20357655.9224
 -24141338.69147 -18800688.22344  23590283.7584                   23590280.2034
  -8250004.58247  -6418917.71544  23601241.0554                   23601240.1414
  -7196471.01247  -5593892.13744  23019811.9844                   23019809.7504
 -21379719.52347 -16648732.90245  22750425.0864                   22750423.0474
 -13901668.96147 -10821699.38744  23646706.5234                   23646708.5984
 -17952588.24647 -13979255.27746  21341977.1484                   21341974.9344
 -21175940.40248 -16493012.34046  21277734.0864                   21277732.1024
  -8544777.16047  -6652841.61745  23481121.3834                   23481119.0984
 11  9 25  1 31  0.0000000  0  9G29G02G30G18G05G25G15G26G21
 -27131183.52348 -21132347.59847  20349261.9454                   20349259.2194
 -24103051.26647 -18770853.84844  23597569.4304                   23597565.9304
  -8211489.34047  -6388905.79744  23608570.8364                   23608570.4614
  -7286268.28147  -5663863.87945  23002723.8364                   23002721.6294
 -21319087.41047 -16601487.09045  22761963.2504                   22761960.7934
 -13844128.47747 -10776862.62544  23657655.7344                   23657657.9844
 -18038549.85247 -14046238.27346  21325619.1094                   21325616.9384
 -21213421.66048 -16522218.47346  21270601.6954                   21270599.6094
  -8630658.87147  -6719762.29345  23464778.5164                   23464775.9064
 11  9 25  1 31 30.0000000  0  9G29G02G30G18G05G25G15G26G21
 -27174778.30948 -21166317.52747  20340966.5864                   20340963.8054
 -24064602.59447 -18740893.84844  23604886.2274                   23604883.0664
  -8172697.15647  -6358678.09844  23615952.0314                   23615952.1374
  -7375796.13347  -5733625.68044  22985687.0084                   22985685.2544
 -21258356.68047 -16554164.43745  22773519.6564                   22773517.8714
 -13786491.85947 -10731950.96944  23668623.9924                   23668626.0164
 -18124040.54747 -14112854.32846  21309350.9924                   21309348.7704
 -21250209.87548 -16550884.57846  21263600.7664                   21263599.0124
  -8716559.16447  -6786697.45345  23448432.0004                   23448429.6174
 11  9 25  1 32  0.0000000  0  9G29G02G30G18G05G25G15G26G21
 -27217842.41448 -21199873.93447  20332771.2344                   20332768.5784
 -24025992.10947 -18710807.75044  23612233.0634                   23612230.5704
  -8133630.82847  -6328236.77344  23623386.2194                   23623386.3524
  -7465054.19547  -5803177.28144  22968701.7974                   22968699.8364
 -21197528.91447 -16506766.15245  22785094.5864                   22785092.4144
 -13728761.82847 -10686966.50444  23679609.1024                   23679611.7194
 -18209057.56247 -14179101.28146  21293172.3594                   21293170.0864
 -21286303.79348 -16579009.66846  21256732.5784                   21256730.4534
  -8802477.62547  -6853646.79344  23432082.1644                   23432079.0044
 11  9 25  1 32 30.0000000  0  9G29G02G30G18G05G25G15G26G21
 -27260375.40648 -21233016.49247  20324677.6644                   20324674.7384
 -23987220.40647 -18680596.03944  23619610.7034                   23619608.2624
  -8094294.55547  -6297585.10544  23630871.4064                   23630871.2664
  -7554043.30547  -5872519.28944  22951767.2974                   22951765.3634
 -21136607.09847 -16459294.60545  22796687.6094                   22796685.2304
 -13670942.53547 -10641912.51244  23690612.2734                   23690614.6024
 -18293599.52048 -14244978.06646  21277084.5784                   21277082.5234
 -21321703.30148 -16606593.66046  21249996.2974                   21249994.1644
  -8888415.17247  -6920611.00044  23415728.5554                   23415726.0274
 11  9 25  1 33  0.0000000  0  9G29G02G30G18G05G25G15G26G21
 -27302374.69148 -21265743.17647  20316685.5084                   20316682.5824
 -23948285.85247 -18650257.43044  23627020.3054                   23627017.0744
  -8054690.11747  -6266724.44544  23638408.3204                   23638407.9844
  -7642761.71547  -5941650.35544  22934884.3284                   22934882.6604
 -21075591.88747 -16411750.27045  22808298.2034                   22808296.5394
 -13613035.79747 -10596790.35544  23701631.2034                   23701634.0354
 -18377662.47748 -14310481.59046  21261088.0784                   21261086.0314
 -21356406.39148 -16633634.98446  21243392.5784                   21243390.1844
  -8974370.11347  -6987588.76245  23399371.6414                   23399369.0824
 11  9 25  1 33 30.0000000  0  9G29G02G30G18G05G25G15G26G21
 -27343837.64848 -21298051.94547  20308794.8204                   20308792.4614
 -23909187.00046 -18619790.81644  23634460.7664                   23634457.7974
  -8014819.32847  -6235656.32044  23645995.8984                   23645995.7074
  -7731208.03547  -6010569.41444  22918053.7814                   22918051.6644
 -21014483.64147 -16364133.43745  22819926.8594                   22819925.0634
 -13555043.26247 -10551601.37944  23712667.2424                   23712669.5354
 -18461242.75048 -14375609.00846  21245183.0474                   21245180.9694
 -21390410.60948 -16660131.73446  21236921.3524                   21236919.3914
  -9060341.02347  -7054578.97344  23383011.8594                   23383009.8134
 11  9 25  1 34  0.0000000  0  9G29G02G30G18G05G25G15G26G21
 -27384764.36748 -21329942.86347  20301006.9304                   20301004.3094
 -23869924.83647 -18589196.91844  23641932.2504                   23641928.7384
  -7974686.79347  -6204384.16044  23653631.8364                   23653631.2194
  -7819383.37147  -6079277.31645  22901274.5394                   22901272.7894
 -20953285.66847 -16316446.69945  22831572.3444                   22831570.3324
 -13496969.50447 -10506349.10244  23723718.2814                   23723720.1564
 -18544339.73047 -14440359.83646  21229370.3674                   21229367.8834
 -21423716.44148 -16686084.29746  21230583.4924                   21230581.4184
  -9146328.83247  -7121582.35945  23366649.0784                   23366646.2154
 11  9 25  1 34 30.0000000  0  9G29G02G30G18G05G25G15G26G21
 -27425153.66048 -21361415.01247  20293321.2194                   20293318.1134
 -23830499.03146 -18558475.52344  23649434.3834                   23649430.8444
  -7934295.46147  -6172910.40644  23661318.3364                   23661318.5474
  -7907287.29747  -6147773.74644  22884546.8754                   22884544.7194
 -20891999.73847 -16268691.42245  22843235.3204                   22843232.9734
 -13438817.43047 -10461035.81644  23734783.3134                   23734786.2544
 -18626950.80148 -14504732.02746  21213649.8284                   21213647.5984
 -21456323.17648 -16711492.09846  21224378.8754                   21224376.6804
  -9232333.36347  -7188598.78544  23350282.9844                   23350280.0864
 11  9 25  1 35  0.0000000  0  9G29G02G30G18G05G25G15G26G21
 -27465004.38748 -21392467.49647  20285737.7424                   20285735.2504
 -23790909.78546 -18527626.75444  23656967.9844                   23656964.5634
  -7893649.05547  -6141237.86344  23669053.0554                   23669053.1604
  -7994919.95347  -6216058.78944  22867870.8754                   22867868.2464
 -20830628.35247 -16220869.55145  22854913.5084                   22854910.8954
 -13380590.56647 -10415664.25044  23745864.6884                   23745866.4774
 -18709073.96148 -14568724.02746  21198022.1484                   21198019.4734
 -21488230.03148 -16736354.52746  21218307.3054                   21218304.8244
  -9318355.23047  -7255628.71144  23333913.8284                   23333910.2704
 11  9 25  1 35 30.0000000  0  9G29G02G30G18G05G25G15G26G21
 -27504315.77348 -21423099.71947  20278257.1954                   20278254.2424
 -23751157.52046 -18496650.95344  23664532.6254                   23664529.0234
  -7852751.11346  -6109369.32844  23676835.5864                   23676835.9694
  -8082282.02346  -6284133.00844  22851246.1094                   22851244.2774
 -20769173.55547 -16172982.67645  22866607.7894                   22866605.2624
 -13322292.48447 -10370237.18444  23756957.7814                   23756960.4694
 -18790707.62148 -14632334.60246  21182487.7974                   21182485.1684
 -21519436.82448 -16760671.46146  21212368.4384                   21212366.3324
  -9404394.24246  -7322671.99644  23317540.9774                   23317537.8554
 11  9 25  1 36  0.0000000  0  9G29G02G30G18G05G25G15G26G21
 -27543087.83248 -21453311.69147  20270879.1724                   20270876.7664
 -23711242.33247 -18465548.21144  23672128.8444                   23672125.1254
  -7811605.52746  -6077307.84844  23684665.2344                   23684665.9304
  -8169373.85947  -6351996.62944  22834672.8054                   22834670.8014
 -20707638.23447 -16125033.07445  22878317.7584                   22878315.3164
 -13263926.88347 -10324757.52344  23768064.6174                   23768066.9344
 -18871849.73848 -14695562.16046  21167047.0004                   21167044.0474
 -21549943.49247 -16784442.84846  21206563.2974                   21206561.0514
  -9490451.05147  -7389729.15244  23301164.7424                   23301162.0864
 11  9 25  1 36 30.0000000  0  9G29G02G30G18G05G25G15G26G21
 -27581319.10248 -21483102.26647  20263603.8444                   20263601.5084
 -23671164.26647 -18434318.52044  23679754.7974                   23679750.7504
  -7770215.33646  -6045055.75044  23692541.6644                   23692541.3754
  -8256195.22347  -6419649.52344  22818151.5784                   22818149.1804
 -20646024.05547 -16077022.02045  22890042.6334                   22890040.5554
 -13205496.80147 -10279227.60544  23779183.5474                   23779186.1604
 -18952498.21148 -14758405.06246  21151699.7814                   21151697.3204
 -21579749.29748 -16807668.10546  21200891.8674                   21200889.1644
  -9576525.15247  -7456799.78144  23284784.9844                   23284782.2154
 11  9 25  1 37  0.0000000  0  9G29G02G30G18G05G25G15G26G21
 -27619009.46948 -21512471.36347  20256431.5474                   20256429.0354
 -23630923.71947 -18402962.24244  23687412.3284                   23687408.8094
  -7728584.86346  -6012616.41044  23700463.6024                   23700464.1994
  -8342746.77347  -6487092.17244  22801681.5084                   22801678.4614
 -20584333.62147 -16028951.54745  22901781.9534                   22901778.9064
 -13147006.32447 -10233650.60544  23790314.3054                   23790316.6764
 -19032651.91848 -14820862.42646  21136447.2734                   21136444.8954
 -21608854.45348 -16830347.39546  21195353.0164                   21195350.5664
  -9662617.61747  -7523884.70344  23268402.4144                   23268399.1764
 11  9 25  1 37 30.0000000  0  9G29G02G30G18G05G25G15G26G21
 -27656155.93748 -21541416.64147  20249362.7194                   20249360.2074
 -23590518.95346 -18371477.98844  23695101.2344                   23695097.5984
  -7686715.61346  -5979991.03144  23708431.3364                   23708431.1254
  -8429027.05147  -6554323.43444  22785262.2194                   22785259.5044
 -20522567.34047 -15980821.96945  22913535.5084                   22913533.3754
 -13088456.86747 -10188027.64844  23801455.7814                   23801458.3364
 -19112307.04748 -14882931.29346  21121288.9774                   21121286.7704
 -21637256.71147 -16852478.98046  21189947.9224                   21189945.7504
  -9748726.25847  -7590982.23444  23252016.1024                   23252013.5234
 11  9 25  1 38  0.0000000  0  9G29G02G30G18G05G25G15G26G21
 -27692758.65648 -21569938.21547  20242397.6484                   20242395.1024
 -23549951.00446 -18339866.60244  23702820.6414                   23702817.4304
  -7644611.93447  -5947182.94544  23716442.8914                   23716443.4104
  -8515037.07047  -6621344.12944  22768895.1334                   22768892.5474
 -20460728.09047 -15932635.53945  22925303.3594                   22925300.9844
 -13029852.64547 -10142362.03544  23812607.4064                   23812609.5634
 -19191462.27748 -14944610.63346  21106226.6094                   21106224.1054
 -21664956.79347 -16874063.41846  21184676.8204                   21184674.5164
  -9834851.92647  -7658093.03144  23235626.8754                   23235623.7584
 11  9 25  1 38 30.0000000  0  9G29G02G30G18G05G25G15G26G21
 -27728818.66048 -21598036.89847  20235535.4144                   20235532.8324
 -23509221.82846 -18308129.57844  23710571.7274                   23710567.9344
  -7602279.06646  -5914196.30544  23724498.6414                   23724499.3094
  -8600778.67647  -6688155.66444  22752579.5314                   22752576.6564
 -20398819.83647 -15884395.33645  22937084.1644                   22937081.4884
 -12971198.77347 -10096657.71144  23823768.4844                   23823771.4104
 -19270117.63748 -15005900.46146  21091258.8284                   21091256.3714
 -21691955.89847 -16895101.63346  21179539.1024                   21179537.2704
  -9920996.29347  -7725218.41044  23219233.8834                   23219230.9064
 11  9 25  1 39  0.0000000  0  9G29G02G30G18G05G25G15G26G21
 -27764333.02348 -21625710.40247  20228777.4064                   20228774.5124
 -23468329.00846 -18276265.05544  23718353.6334                   23718349.3954
  -7559718.23446  -5881032.01244  23732598.2584                   23732598.1884
  -8686249.74647  -6754756.39544  22736314.0704                   22736311.5514
 -20336842.18747 -15836101.05945  22948877.5944                   22948875.6174
 -12912496.30947 -10050915.54344  23834939.6724                   23834942.3134
 -19348269.10948 -15066797.65646  21076386.8674                   21076384.0554
 -21718251.81648 -16915591.93446  21174535.2114                   21174533.0554
 -10007157.59447  -7792356.97345  23202837.5474                   23202834.6764
 11  9 25  1 39 30.0000000  0  9G29G02G30G18G05G25G15G26G21
 -27799300.47348 -21652957.74247  20222123.1564                   20222120.5474
 -23427271.93446 -18244272.52744  23726166.4454                   23726162.1374
  -7516932.39546  -5847692.39144  23740740.1644                   23740739.3984
  -8771450.19547  -6821146.25044  22720101.2424                   22720098.7424
 -20274796.86347 -15787754.04345  22960684.6024                   22960682.4614
 -12853748.08247 -10005137.69944  23846119.1174                   23846121.4104
 -19425914.24248 -15127300.29346  21061611.6334                   21061609.3364
 -21743843.37948 -16935533.36746  21169665.1564                   21169662.9654
 -10093335.31247  -7859508.31244  23186438.5314                   23186435.6524
 11  9 25  1 40  0.0000000  0  9G29G02G30G18G05G25G15G26G21
 -27833721.66848 -21679779.43047  20215572.8984                   20215570.4964
 -23386052.43446 -18212153.46544  23734009.7504                   23734006.4884
  -7473926.59847  -5814181.37144  23748924.1884                   23748923.5314
  -8856381.33247  -6887326.27345  22703939.4774                   22703936.8054
 -20212687.63747 -15739357.23845  22972503.9844                   22972501.7504
 -12794958.96547  -9959327.98444  23857306.5474                   23857308.5274
 -19503052.70348 -15187408.12146  21046932.3834                   21046929.9224
 -21768732.37148 -16954927.35546  21164928.9844                   21164926.5004
 -10179530.95347  -7926673.62145  23170036.3444                   23170033.4224
 11  9 25  1 40 30.0000000  0  9G29G02G30G18G05G25G15G26G21
 -27867595.18748 -21706174.36347  20209126.8204                   20209124.5394
 -23344670.07447 -18179907.46544  23741884.3984                   23741881.2544
  -7430703.32847  -5780500.88344  23757148.8914                   23757148.8834
  -8941042.57447  -6953295.96945  22687828.5474                   22687826.1374
 -20150515.40647 -15690911.34445  22984334.1804                   22984332.4304
 -12736131.27047  -9913488.21144  23868501.0084                   23868503.3014
 -19579681.73848 -15247118.99646  21032350.2894                   21032347.8714
 -21792917.49648 -16973772.86346  21160326.5474                   21160324.1884
 -10265743.26647  -7993851.93045  23153630.6174                   23153627.2934
 11  9 25  1 41  0.0000000  0  9G29G02G30G18G05G25G15G26G21
 -27900919.73848 -21732141.52347  20202785.5084                   20202782.9844
 -23303123.88346 -18147533.84044  23749790.4614                   23749786.9614
  -7387265.79746  -5746653.44544  23765414.5554                   23765414.3714
  -9025434.07847  -7019055.49245  22671769.0784                   22671766.3594
 -20088281.72747 -15642417.56645  22996177.3444                   22996174.7664
 -12677268.01647  -9867620.71944  23879701.9224                   23879704.6604
 -19655799.15248 -15306431.21546  21017865.7194                   21017863.2074
 -21816398.18048 -16992069.46946  21155858.3134                   21155856.0864
 -10351971.87147  -8061042.91845  23137221.6724                   23137218.6454
 11  9 25  1 41 30.0000000  0  9G29G02G30G18G05G25G15G26G21
 -27933693.10948 -21757679.19147  20196549.1644                   20196546.3134
 -23261412.42247 -18115031.40644  23757727.8444                   23757724.8954
  -7343615.74247  -5712640.38744  23773720.9454                   23773720.3674
  -9109554.19947  -7084603.55145  22655761.8054                   22655758.9614
 -20025987.14547 -15593876.33245  23008031.6174                   23008029.0664
 -12618370.75047  -9821726.73844  23890910.2344                   23890911.8874
 -19731401.54348 -15365342.11346  21003479.0474                   21003476.7074
 -21839172.88348 -17009815.96146  21151524.7424                   21151522.2274
 -10438215.09847  -8128245.32045  23120810.2504                   23120806.9384
 11  9 25  1 42  0.0000000  0  9G29G02G30G18G05G25G15G26G21
 -27965914.47348 -21782786.73047  20190417.7504                   20190415.0274
 -23219536.14147 -18082400.53144  23765697.0164                   23765694.0514
  -7299756.92646  -5678464.65644  23782067.0944                   23782067.4654
  -9193403.60947  -7149940.65645  22639805.6644                   22639803.5434
 -19963634.10547 -15545289.53945  23019896.8984                   23019894.3714
 -12559443.12546  -9775809.07044  23902123.4304                   23902125.5274
 -19806487.46948 -15423850.56646  20989190.5704                   20989188.1054
 -21861241.60248 -17027012.32446  21147324.9534                   21147322.6484
 -10524473.24647  -8195459.32845  23104395.2344                   23104392.2074
 11  9 25  1 42 30.0000000  0  9G29G02G30G18G05G25G15G26G21
 -27997583.42648 -21807463.81247  20184391.1724                   20184388.2274
 -23177494.62547 -18049640.89844  23773696.7974                   23773693.7974
  -7255692.34047  -5644128.66844  23790452.6724                   23790451.5984
  -9276981.28547  -7215066.02345  22623901.7344                   22623899.0164
 -19901224.03947 -15496658.31245  23031773.5084                   23031770.5944
 -12500487.85946  -9729869.86744  23913342.6884                   23913344.3404
 -19881054.56648 -15481954.74646  20975000.8834                   20974998.4304
 -21882604.04348 -17043658.34046  21143259.9844                   21143257.5394
 -10610745.68747  -8262684.48445  23087978.5634                   23087975.5124
 11  9 25  1 43  0.0000000  0  9G29G02G30G18G05G25G15G26G21
 -28028700.53148 -21831710.89147  20178469.6724                   20178467.4104
 -23135289.65247 -18016753.91844  23781728.3754                   23781725.1604
  -7211427.18047  -5609636.33244  23798875.4924                   23798875.4414
  -9360290.06247  -7279981.85545  22608048.3754                   22608045.5864
 -19838760.29747 -15447985.25445  23043659.4924                   23043657.1374
 -12441509.94546  -9683913.02344  23924565.5084                   23924567.1604
 -19955102.82048 -15539654.63346  20960910.2344                   20960907.1254
 -21903261.57448 -17059755.08246  21139328.3754                   21139326.2074
 -10697034.22347  -8329922.19545  23071558.1334                   23071555.1414
 11  9 25  1 43 30.0000000  0  9G29G02G30G18G05G25G15G26G21
 -28059263.55148 -21855526.20747  20172653.6644                   20172651.0514
 -23092919.64847 -17983738.33644  23789791.3444                   23789788.2464
  -7166963.22346  -5574989.08644  23807336.5864                   23807336.6484
  -9443328.22347  -7344686.80545  22592246.3834                   22592244.0554
 -19776243.37947 -15399270.76645  23055556.0634                   23055553.5984
 -12382510.91846  -9637939.72344  23935792.6884                   23935794.3554
 -20028628.57848 -15596947.37146  20946918.5784                   20946916.0824
 -21923212.68748 -17075301.35546  21135532.0864                   21135529.7624
 -10783336.98847  -8397170.98445  23055135.2114                   23055132.2974
 11  9 25  1 44  0.0000000  0  9G29G02G30G18G05G25G15G26G21
 -28089272.19148 -21878909.54747  20166943.2034                   20166940.6954
 -23050384.69546 -17950594.21943  23797885.0944                   23797881.9064
  -7122303.78147  -5540189.53543  23815835.4534                   23815835.5354
  -9526095.83247  -7409180.94145  22576496.0474                   22576493.6914
 -19713675.25447 -15350516.37145  23067462.4694                   23067459.5594
 -12323493.99646  -9591952.52044  23947022.7734                   23947025.4264
 -20101630.16048 -15653831.66846  20933026.7504                   20933023.8134
 -21942457.35547 -17090297.16846  21131870.2504                   21131867.7114
 -10869653.74647  -8464430.68045  23038709.6884                   23038706.3794
 11  9 25  1 44 30.0000000  0  9G29G02G30G18G05G25G15G26G21
 -28118723.94948 -21901858.94947  20161338.8364                   20161336.1174
 -23007683.14847 -17917320.29344  23806011.0634                   23806007.3524
  -7077450.75847  -5505239.13744  23824370.3914                   23824370.1214
  -9608591.52347  -7473463.19945  22560797.9454                   22560794.8094
 -19651056.30547 -15301722.37945  23079378.5314                   23079375.9964
 -12264460.80946  -9545952.60544  23958256.3364                   23958258.9924
 -20174104.55148 -15710305.16446  20919235.3674                   20919232.5904
 -21960994.24248 -17104741.46546  21128342.3134                   21128340.1294
 -10955982.92647  -8531700.07045  23022281.3914                   23022278.4494
 11  9 25  1 45  0.0000000  0  9G29G02G30G18G05G25G15G26G21
 -28147618.59048 -21924374.23447  20155840.5164                   20155837.6334
 -22964815.55146 -17883916.96544  23814168.2034                   23814165.2544
  -7032408.03946  -5470140.90243  23832941.3594                   23832941.3014
  -9690816.18447  -7537534.25045  22545151.0944                   22545148.1644
 -19588388.71147 -15252890.47345  23091303.6334                   23091301.1684
 -12205415.07447  -9499942.93744  23969492.2974                   23969494.9454
 -20246050.30948 -15766366.73846  20905544.8054                   20905541.8324
 -21978823.71948 -17118634.52046  21124949.5944                   21124947.2034
 -11042324.64547  -8598979.23045  23005851.4614                   23005848.0204
 11  9 25  1 45 30.0000000  0  9G29G02G30G18G05G25G15G26G21
 -28175957.25048 -21946456.28547  20150447.6484                   20150444.9144
 -22921783.56646 -17850385.53543  23822357.5394                   23822353.6454
  -6987180.60946  -5434898.74643  23841548.0704                   23841548.3164
  -9772771.52047  -7601395.43745  22529555.1254                   22529552.3164
 -19525676.03946 -15204023.43745  23103237.6174                   23103235.0274
 -12146361.45347  -9453927.12944  23980730.0004                   23980732.2544
 -20317467.28148 -15822016.27746  20891954.1094                   20891951.6454
 -21995947.36748 -17131977.58646  21121691.0864                   21121688.2664
 -11128680.37547  -8666269.30945  22989418.5864                   22989415.0164
 11  9 25  1 46  0.0000000  0  9G29G02G30G18G05G25G15G26G21
 -28203736.18748 -21968102.19147  20145161.7034                   20145159.1844
 -22878583.91446 -17816723.46943  23830577.1954                   23830573.7894
  -6941768.68446  -5399512.85943  23850189.5944                   23850189.7974
  -9854454.46547  -7665044.37145  22514011.4384                   22514008.6054
 -19462916.86747 -15155120.18745  23115180.2114                   23115177.8594
 -12087300.00047  -9407905.19944  23991968.8524                   23991972.0164
 -20388350.54748 -15877249.93446  20878465.7114                   20878462.9844
 -22012362.41048 -17144768.49246  21118567.6564                   21118565.2424
 -11215046.75847  -8733567.69545  22972983.4064                   22972979.6954
 11  9 25  1 46 30.0000000  0  9G29G02G30G18G05G25G15G26G21
 -28230956.41848 -21989312.73847  20139981.4844                   20139979.1294
 -22835218.06246 -17782931.89843  23838830.4774                   23838826.0784
  -6896177.14546  -5363986.99643  23858865.4454                   23858865.6024
  -9935866.92247  -7728482.53545  22498518.7274                   22498515.9344
 -19400114.59046 -15106183.34845  23127131.1954                   23127129.1414
 -12028235.28547  -9361880.74244  24003208.8594                   24003210.7774
 -20458700.14848 -15932067.75446  20865078.4224                   20865075.7854
 -22028070.22748 -17157008.32446  21115578.2664                   21115575.9844
 -11301425.02747  -8800875.34445  22956545.8444                   22956542.6804
 11  9 25  1 47  0.0000000  0  9G29G02G30G18G05G25G15G26G21
 -28257616.99248 -22010087.19147  20134908.2344                   20134905.8164
 -22791686.25047 -17749011.03143  23847114.7424                   23847110.7234
  -6850409.26246  -5328323.75444  23867574.8914                   23867574.7424
 -10017008.87147  -7791709.91045  22483078.1024                   22483075.3484
 -19337270.91046 -15057214.23445  23139089.6884                   23139087.1484
 -11969170.27347  -9315856.05544  24014448.6954                   24014450.7624
 -20528513.87148 -15986468.01246  20851793.4224                   20851790.8554
 -22043071.10548 -17168697.28946  21112723.9844                   21112721.4454
 -11387814.69147  -8868191.88345  22940106.0004                   22940103.0474
 11  9 25  1 47 30.0000000  0  9G29G02G30G18G05G25G15G26G21
 -28283716.98448 -22030424.82047  20129941.7034                   20129939.1174
 -22747987.80546 -17714960.29743  23855429.4534                   23855426.2074
  -6804467.79346  -5292525.20743  23876317.6954                   23876317.4534
 -10097879.92647  -7854726.20745  22467688.3674                   22467685.9614
 -19274386.83646 -15008213.66045  23151056.1484                   23151053.7274
 -11910107.55147  -9269833.13744  24025687.8594                   24025690.2704
 -20597789.72348 -16040449.14546  20838610.5704                   20838607.9454
 -22057364.55148 -17179835.00446  21110003.6564                   21110001.1564
 -11474215.10547  -8935516.81645  22923665.2734                   22923661.3404
 11  9 25  1 48  0.0000000  0  9G29G02G30G18G05G25G15G26G21
 -28309256.71548 -22050325.88747  20125081.6564                   20125079.1254
 -22704123.64847 -17680780.42244  23863776.9224                   23863772.8244
  -6758357.01646  -5256594.73843  23885092.3134                   23885092.3484
 -10178481.44547  -7917532.46545  22452350.7034                   22452347.7624
 -19211465.28947 -14959183.87145  23163029.7114                   23163027.0394
 -11851051.16847  -9223815.18044  24036925.8674                   24036928.2424
 -20666526.98848 -16094010.59446  20825530.2194                   20825527.6994
 -22070951.69948 -17190422.36346  21107418.4774                   21107415.8164
 -11560627.00847  -9002850.70345  22907221.1484                   22907217.4614
 11  9 25  1 48 30.0000000  0  9G29G02G30G18G05G25G15G26G21
 -28334233.90248 -22069788.60947  20120328.4774                   20120326.2304
 -22660091.52747 -17646469.67644  23872156.1334                   23872152.3794
  -6712078.14846  -5220533.29743  23893898.7734                   23893898.2424
 -10258811.25047  -7980127.00845  22437064.6804                   22437061.1334
 -19148505.88347 -14910124.60245  23175010.4924                   23175008.1254
 -11792001.90647  -9177802.76644  24048163.5314                   24048165.4184
 -20734721.66448 -16147149.25046  20812553.1724                   20812550.3914
 -22083830.77348 -17200457.97346  21104967.1884                   21104964.5864
 -11647047.79747  -9070191.50445  22890775.6334                   22890772.5354
 11  9 25  1 49  0.0000000  0  9G29G02G30G18G05G25G15G26G21
 -28358649.07847 -22088813.40247  20115682.6884                   20115679.9344
 -22615892.87947 -17612029.19144  23880566.3364                   23880562.7114
  -6665636.00446  -5184344.65243  23902736.8204                   23902736.4024
 -10338871.33247  -8042511.36345  22421829.4304                   22421826.1644
 -19085512.01247 -14861038.45345  23186997.8834                   23186995.5084
 -11732964.48447  -9131799.58244  24059397.1414                   24059399.4414
 -20802373.88348 -16199865.20746  20799679.2114                   20799676.4224
 -22096003.43748 -17209943.12946  21102650.9844                   21102648.3134
 -11733478.34847  -9137539.92645  22874328.4774                   22874324.9654
 11  9 25  1 49 30.0000000  0  9G29G02G30G18G05G25G15G26G21
 -28382498.77748 -22107397.55947  20111143.8444                   20111141.4534
 -22571525.06647 -17577456.87144  23889009.1954                   23889005.5354
  -6619031.05546  -5148029.09844  23911605.1564                   23911604.9224
 -10418658.91047  -8104683.39545  22406646.1484                   22406643.4304
 -19022482.06647 -14811924.19945  23198992.0554                   23198989.9454
 -11673939.07047  -9085805.74644  24070629.2504                   24070632.0984
 -20869479.02048 -16252154.87546  20786909.7734                   20786906.8914
 -22107467.09448 -17218875.82046  21100469.3364                   21100466.9414
 -11819915.55547  -9204893.54745  22857879.9844                   22857876.2774
 11  9 25  1 50  0.0000000  0  9G29G02G30G18G05G25G15G26G21
 -28405783.44548 -22125541.43047  20106713.1564                   20106710.5394
 -22526988.54747 -17542753.10544  23897484.2814                   23897480.7304
  -6572267.22747  -5111589.75844  23920504.1564                   23920503.8014
 -10498174.94947  -8166643.84045  22391515.0084                   22391511.5124
 -18959418.60947 -14762783.84045  23210992.6884                   23210990.1994
 -11614929.03147  -9039823.89544  24081858.0784                   24081860.8674
 -20936036.00448 -16304017.40246  20774244.0394                   20774241.6764
 -22118222.84448 -17227256.89146  21098422.4774                   21098420.2234
 -11906359.86747  -9272252.68745  22841430.3754                   22841426.8094
 11  9 25  1 50 30.0000000  0  9G29G02G30G18G05G25G15G26G21
 -28428502.05548 -22143244.22747  20102389.8444                   20102387.2504
 -22482282.40247 -17507917.14544  23905991.4774                   23905987.9734
  -6525346.87947  -5075028.47344  23929432.3674                   23929432.1024
 -10577418.39547  -8228391.85545  22376435.3674                   22376431.8554
 -18896322.34447 -14713617.91445  23222999.5704                   23222996.8984
 -11555936.75847  -8993855.89844  24093083.9844                   24093086.6844
 -21002042.43748 -16355450.93446  20761683.2664                   20761681.0234
 -22128269.87548 -17235085.70746  21096510.7504                   21096508.4774
 -11992809.94147  -9339616.34845  22824979.3914                   22824975.7544
 11  9 25  1 51  0.0000000  0  9G29G02G30G18G05G25G15G26G21
 -28450654.38348 -22160505.76247  20098174.3134                   20098171.4384
 -22437407.23447 -17472949.49644  23914531.1414                   23914527.8594
  -6478273.69547  -5038348.08244  23938389.9304                   23938390.1954
 -10656389.86347  -8289927.95345  22361407.2424                   22361404.0354
 -18833195.32447 -14664428.02745  23235012.5004                   23235009.9884
 -11496965.50847  -8947904.26644  24104305.8594                   24104308.1094
 -21067497.18748 -16406454.58646  20749227.7504                   20749225.0354
 -22137609.25448 -17242363.11346  21094733.5314                   21094730.7854
 -12079265.80947  -9406984.51245  22808527.2584                   22808523.3444
 11  9 25  1 51 30.0000000  0  9G29G02G30G18G05G25G15G26G21
 -28472240.43748 -22177326.03947  20094066.4844                   20094063.8754
 -22392363.62946 -17437850.59444  23923102.2974                   23923099.2464
  -6431051.71947  -5001551.75044  23947376.8204                   23947376.3554
 -10735090.60547  -8351253.10245  22346430.8914                   22346428.1054
 -18770040.19147 -14615216.21945  23247030.2274                   23247027.6484
 -11438018.99646  -8901971.93443  24115522.9924                   24115525.3094
 -21132399.51248 -16457027.77346  20736877.3524                   20736874.5084
 -22146242.01648 -17249089.90246  21093090.6954                   21093088.1294
 -12165727.88347  -9474357.51245  22792074.2814                   22792070.3674
 11  9 25  1 52  0.0000000  0  9G29G02G30G18G05G25G15G26G21
 -28493258.25448 -22193703.53947  20090067.1644                   20090064.7464
 -22347149.73446 -17402619.01644  23931705.5944                   23931703.1134
  -6383682.57847  -4964640.73444  23956390.5394                   23956389.9024
 -10813519.05147  -8412366.06645  22331506.7664                   22331503.4654
 -18706856.25447 -14565981.96545  23259053.1644                   23259051.6764
 -11379098.45347  -8856059.81643  24126735.7194                   24126737.6804
 -21196745.83248 -16507167.71146  20724632.5474                   20724629.9184
 -22154166.85248 -17255265.06646  21091582.3984                   21091580.2274
 -12252193.98847  -9541733.66045  22775619.7034                   22775616.3714
 11  9 25  1 52 30.0000000  0  9G29G02G30G18G05G25G15G26G21
 -28513708.35948 -22209638.67247  20086175.6254                   20086172.9534
 -22301766.74646 -17367255.64844  23940342.6254                   23940339.8594
  -6336170.57047  -4927618.40244  23965431.3984                   23965431.2974
 -10891676.59847  -8473267.94945  22316633.5314                   22316630.0434
 -18643646.67647 -14516727.74245  23271082.4304                   23271079.5044
 -11320208.13346  -8810171.28143  24137941.5084                   24137944.3444
 -21260536.09048 -16556874.35946  20712493.6334                   20712490.9184
 -22161385.39548 -17260889.87946  21090208.8594                   21090206.3484
 -12338664.82047  -9609113.47345  22759165.1884                   22759161.2774
 11  9 25  1 53  0.0000000  0  9G29G02G30G18G05G25G15G26G21
 -28533591.57048 -22225132.06247  20082391.9384                   20082389.3914
 -22256215.59046 -17331761.21943  23949010.2344                   23949007.4774
  -6288520.02047  -4890488.08244  23974499.1094                   23974499.3164
 -10969564.31247  -8533959.58245  22301811.7504                   22301808.5944
 -18580414.22347 -14467455.68745  23283114.6884                   23283112.5634
 -11261351.81646  -8764309.20743  24149141.4534                   24149144.3054
 -21323769.45348 -16606147.05946  20700460.7664                   20700457.9804
 -22167899.18048 -17265965.51246  21088969.5784                   21088966.4844
 -12425140.54747  -9676497.11745  22742709.3594                   22742705.8404
 11  9 25  1 53 30.0000000  0  9G29G02G30G18G05G25G15G26G21
 -26977483.48048 -21012580.28947  20378509.4224                   20378506.5004
 -20635074.48846 -16068534.42643  24257503.2424                   24257499.9384
  -4665312.16847  -3625650.82844  24283385.3054                   24283385.6214
  -9471756.42647  -7366836.45345  22586835.1484                   22586831.9694
 -16941738.69947 -13190565.65645  23594944.6334                   23594941.8324
  -9627110.87146  -7490874.71143  24460127.8984                   24460129.9384
 -19811018.93448 -15427380.37546  20988327.5004                   20988324.5664
 -20598284.92648 -16042889.43446  21387657.1884                   21387654.7034
 -10936194.64847  -8516279.48445  23026045.9844                   23026042.6844
 11  9 25  1 54  0.0000000  0  9G29G02G30G18G05G25G15G26G21
 -26996226.21948 -21027185.00847  20374942.8594                   20374940.2734
 -20589181.64846 -16032773.75843  24266236.3754                   24266233.2234
  -4617388.50447  -3588307.72344  24292505.0004                   24292505.0744
  -9549099.77747  -7427103.90245  22572116.6564                   22572113.8714
 -16878458.63747 -13141256.52044  23606986.6484                   23606983.4694
  -9568325.63346  -7445068.06643  24471314.1884                   24471316.5354
 -19873128.62148 -15475777.48846  20976508.4454                   20976505.4844
 -20603384.94948 -16046863.44546  21386686.5394                   21386684.1644
 -11022673.54747  -8583665.58645  23009589.7584                   23009586.3204
 11  9 25  1 54 30.0000000  0  9G29G02G30G18G05G25G15G26G21
 -27014398.48048 -21041345.19147  20371484.4064                   20371482.2154
 -20543117.93746 -15996879.97343  24275001.7274                   24274998.1994
  -4569333.47347  -3550862.25044  24301650.0784                   24301649.3554
  -9626171.42247  -7487159.62545  22557451.0864                   22557447.2624
 -16815157.55947 -13091930.99245  23619031.7664                   23619030.0434
  -9509580.60946  -7399292.72343  24482492.4064                   24482494.6334
 -19934674.64148 -15523735.37146  20964796.5944                   20964793.7464
 -20607779.18748 -16050287.50046  21385850.3284                   21385847.8714
 -11109153.80547  -8651052.74245  22993133.2344                   22993129.6604
 11  9 25  1 55  0.0000000  0  9G29G02G30G18G05G25G15G26G21
 -27031999.65248 -21055060.38347  20368135.2734                   20368132.6564
 -20496883.23446 -15960852.93443  24283800.9844                   24283797.1564
  -4521150.03947  -3513316.73043  24310818.4454                   24310818.4534
  -9702971.73447  -7547003.93045  22542835.8204                   22542832.8524
 -16751836.81647 -13042590.17244  23631081.7734                   23631078.5434
  -9450878.46946  -7353550.79343  24493664.2034                   24493665.9454
 -19995655.21948 -15571252.66046  20953192.3284                   20953189.5234
 -20611468.15648 -16053161.98446  21385148.0704                   21385145.7384
 -11195634.33647  -8718440.10245  22976676.5004                   22976673.0474
 11  9 25  1 55 30.0000000  0  9G29G02G30G18G05G25G15G26G21
 -27049031.25848 -21068331.74647  20364894.3134                   20364891.7854
 -20450479.23046 -15924693.96143  24292630.4064                   24292627.4734
  -4472843.08246  -3475674.94944  24320011.1804                   24320011.3594
  -9779502.46947  -7606638.18445  22528272.5704                   22528269.6484
 -16688499.59047 -12993236.48045  23643134.2584                   23643132.3164
  -9392223.77746  -7307845.85544  24504825.3914                   24504827.3204
 -20056070.69148 -15618329.60246  20941695.5164                   20941692.6884
 -20614454.11348 -16055488.67246  21384580.0314                   21384577.4104
 -11282116.29747  -8785828.58245  22960218.9844                   22960215.6914
 11  9 25  1 56  0.0000000  0  9G29G02G30G18G05G25G15G26G21
 -27065492.17248 -21081158.41847  20361761.8284                   20361759.2384
 -20403905.14147 -15888402.44543  24301493.8284                   24301490.2304
  -4424415.03547  -3437938.82044  24329226.6954                   24329226.6564
  -9855762.82447  -7666061.75445  22513760.9144                   22513757.6174
 -16625146.48847 -12943870.43444  23655189.8984                   23655187.1724
  -9333618.44146  -7262179.39844  24515977.8284                   24515980.0354
 -20115918.71948 -15664964.38346  20930306.9144                   20930303.8554
 -20616736.88348 -16057267.42646  21384145.6644                   21384143.1174
 -11368598.61347  -8853217.33245  22943762.0634                   22943758.8524
 11  9 25  1 56 30.0000000  0  9G29G02G30G18G05G25G15G26G21
 -27081382.21548 -21093540.26247  20358737.9224                   20358735.2704
 -20357161.16447 -15851978.54743  24310389.1334                   24310385.2154
  -4375869.23446  -3400110.94543  24338464.5394                   24338464.6524
  -9931753.53547  -7725275.21145  22499300.0634                   22499297.2384
 -16561779.35247 -12894493.43744  23667248.0394                   23667245.6994
  -9275065.61747  -7216553.82044  24527119.6484                   24527121.8754
 -20175198.19148 -15711156.13346  20919026.2424                   20919023.5434
 -20618317.43748 -16058498.99646  21383844.5004                   21383842.3054
 -11455080.82447  -8920606.00045  22927304.9614                   22927301.8014
 11  9 25  1 57  0.0000000  0  9G29G02G30G18G05G25G15G26G21
 -27096700.88748 -21105476.87147  20355823.0944                   20355820.3594
 -20310246.74646 -15815421.85244  24319315.9534                   24319313.0554
  -4327208.49246  -3362193.49243  24347724.0164                   24347724.6884
 -10007474.34047  -7784278.35245  22484891.0474                   22484887.7154
 -16498398.84847 -12845106.04744  23679309.1484                   23679306.6644
  -9216567.62547  -7170971.01244  24538251.2504                   24538253.8594
 -20233907.33648 -15756903.47746  20907854.3054                   20907851.4774
 -20619195.98448 -16059183.55546  21383677.6954                   21383674.8914
 -11541561.93747  -8987993.80545  22910848.3054                   22910844.8284
 11  9 25  1 57 30.0000000  0  9G29G02G30G18G05G25G15G26G21
 -27111447.27348 -21116967.54347  20353016.7424                   20353014.1884
 -20263161.14846 -15778731.81244  24328276.2894                   24328273.2154
  -4278435.39547  -3324188.48044  24357005.7194                   24357005.8794
 -10082924.69147  -7843070.76245  22470532.8204                   22470529.8444
 -16435006.07447 -12795709.05544  23691372.0234                   23691369.8364
  -9158126.66847  -7125432.64144  24549372.0164                   24549374.8014
 -20292043.89848 -15802204.64846  20896791.2034                   20896788.2074
 -20619372.36748 -16059320.96546  21383643.7114                   21383641.2934
 -11628040.45347  -9055379.57845  22894391.7194                   22894388.2384
 11  9 25  1 58  0.0000000  0  9G29G02G30G18G05G25G15G26G21
 -27125622.96548 -21128013.52747  20350319.4454                   20350316.5314
 -20215906.42246 -15741909.94543  24337268.6804                   24337265.2194
  -4229554.91846  -3286099.78543  24366306.9774                   24366307.8404
 -10158106.96547  -7901654.28145  22456226.4144                   22456223.0904
 -16371604.20346 -12746305.02344  23703437.3134                   23703435.1174
  -9099747.38347  -7079942.31644  24560481.5164                   24560483.8284
 -20349608.73047 -15847060.32046  20885836.7974                   20885834.0354
 -20618849.49647 -16058913.50446  21383743.5784                   21383740.4654
 -11714517.75047  -9122764.39845  22877935.7974                   22877932.2544
 11  9 25  1 58 30.0000000  0  9G29G02G30G18G05G25G15G26G21
 -27139227.56648 -21138614.50047  20347730.3594                   20347727.3594
 -20168482.31646 -15704956.06644  24346292.4694                   24346289.7074
  -4180569.92646  -3247929.68443  24375628.3364                   24375628.2854
 -10233020.94547  -7960028.73845  22441970.5864                   22441967.3094
 -16308194.39846 -12696894.76644  23715503.8524                   23715500.7384
  -9041432.28147  -7034502.00044  24571578.5004                   24571580.7624
 -20406599.97747 -15891469.03947  20874991.7424                   20874988.9264
 -20617628.03947 -16057961.69146  21383975.7584                   21383973.3874
 -11800992.95747  -9190147.60245  22861480.0234                   22861476.5824
 11  9 25  1 59  0.0000000  0  9G29G02G30G18G05G25G15G26G21
 -27152261.18048 -21148770.55147  20345250.0004                   20345247.5274
 -20120889.12546 -15667870.43444  24355350.4064                   24355347.0164
  -4131483.91446  -3209680.86343  24384969.5864                   24384969.3164
 -10307667.30947  -8018194.67245  22427765.5234                   22427762.5514
 -16244778.35946 -12647479.69144  23727571.5314                   23727568.5744
  -8983184.49247  -6989114.14844  24582662.9614                   24582665.0944
 -20463016.74647 -15935430.11746  20864256.2424                   20864253.0984
 -20615708.96547 -16056466.28146  21384340.8834                   21384338.1134
 -11887465.61347  -9257528.81645  22845024.9924                   22845021.2154
 11  9 25  1 59 30.0000000  0  9G29G02G30G18G05G25G15G26G21
 -27164725.14848 -21158482.72347  20342877.9774                   20342875.1954
 -20073128.06246 -15630654.03144  24364438.6954                   24364435.1914
  -4082301.44946  -3171356.85543  24394328.3984                   24394328.7234
 -10382047.84447  -8076153.45745  22413611.6484                   22413608.2894
 -16181358.73046 -12598061.77344  23739640.0474                   23739636.3634
  -8925008.15247  -6943781.96144  24593733.2974                   24593736.0514
 -20518859.21947 -15978943.69546  20853629.4614                   20853626.7424
 -20613094.75847 -16054429.21546  21384838.2734                   21384835.8284
 -11973936.71947  -9324908.82045  22828570.0864                   22828566.3484
 11  9 25  2  0  0.0000000  0  9G29G02G30G18G05G25G15G26G21
 -27176617.90648 -21167749.78947  20340615.2734                   20340612.5234
 -20025197.94946 -15593305.87944  24373559.5864                   24373556.3634
  -4033024.34346  -3132959.15643  24403706.0704                   24403705.8954
 -10456161.39147  -8133904.20745  22399508.0474                   22399504.9414
 -16117935.64146 -12548641.19544  23751708.3754                   23751706.3634
  -8866904.71147  -6898506.60544  24604790.2664                   24604792.6374
 -20574124.71947 -16022007.68046  20843112.7274                   20843110.0124
 -20609784.62947 -16051849.86746  21385468.3134                   21385465.5824
 -12060404.39147  -9392286.14545  22812115.5164                   22812111.9184
 11  9 25  2  0 30.0000000  0  9G29G02G30G18G05G25G15G26G21
 -27187939.86348 -21176572.08647  20338460.6644                   20338457.7544
 -19977098.90246 -15555826.10543  24382712.3834                   24382708.9884
  -3983656.07846  -3094490.35943  24413100.3834                   24413100.1524
 -10530008.46147  -8191447.31245  22385455.6174                   22385452.2734
 -16054510.94146 -12499219.35944  23763778.8364                   23763775.7274
  -8808877.20347  -6853290.41044  24615832.7734                   24615835.1484
 -20628812.42247 -16064621.43747  20832706.4224                   20832703.5434
 -20605779.84847 -16048729.23446  21386230.3134                   21386227.6724
 -12146868.20347  -9459660.47345  22795662.4454                   22795658.3594
 11  9 25  2  1  0.0000000  0  9G29G02G30G18G05G25G15G26G21
 -27198690.55548 -21184949.23447  20336415.1414                   20336412.3444
 -19928830.97346 -15518214.73044  24391897.2194                   24391893.8444
  -3934199.75446  -3055952.96543  24422510.9144                   24422510.9414
 -10603589.23047  -8248782.91845  22371453.4924                   22371450.0274
 -15991085.78547 -12449797.15644  23775848.0084                   23775845.2774
  -8750928.27747  -6808135.44144  24626859.8674                   24626862.2664
 -20682921.06247 -16106783.97747  20822409.7504                   20822406.8444
 -20601081.44147 -16045068.12146  21387124.3754                   21387121.9224
 -12233327.11347  -9527030.97745  22779209.3754                   22779205.6644
 11  9 25  2  1 30.0000000  0  8G29G30G18G05G25G15G26G21
 -27208871.08248 -21192882.10247  20334477.5634                   20334474.8094
  -3884659.13746  -3017349.87943  24431938.1644                   24431938.3794
 -10676904.96147  -8305911.99645  22357501.9384                   22357498.3054
 -15927662.08246 -12400376.08644  23787916.8594                   23787913.9844
  -8693061.34046  -6763044.39843  24637871.3524                   24637873.9344
 -20736449.90248 -16148494.71546  20812223.2734                   20812220.4224
 -20595691.19947 -16040867.91046  21388150.2974                   21388147.5124
 -12319781.16447  -9594397.70745  22762757.9534                   22762753.6374
 11  9 25  2  2  0.0000000  0  8G29G30G18G05G25G15G26G21
 -27218480.11348 -21200369.64847  20332649.0314                   20332646.1914
  -3835036.23446  -2978682.67643  24441381.5474                   24441382.2464
 -10749954.50847  -8362833.66445  22343601.4694                   22343597.5394
 -15864240.42647 -12350956.62545  23799985.9144                   23799982.7934
  -8635278.08247  -6718018.52743  24648867.5474                   24648870.0274
 -20789397.00847 -16189752.17247  20802147.7274                   20802144.6684
 -20589608.98447 -16036128.50446  21389307.4384                   21389305.1294
 -12406228.41047  -9661759.13345  22746307.3754                   22746302.9924
 11  9 25  2  2 30.0000000  0  8G29G30G18G05G25G15G26G21
 -27227510.59848 -21207406.38747  20330930.4534                   20330927.9454
  -3785327.09446  -2939948.25443  24450840.3204                   24450840.8954
 -10822731.30147  -8419542.78545  22329751.9384                   22329748.5514
 -15800814.63747 -12301533.93444  23812055.0394                   23812052.7034
  -8577573.98446  -6673054.32043  24659848.0634                   24659850.2114
 -20841754.11748 -16230549.87947  20792184.3984                   20792181.4224
 -20582828.76647 -16030845.19946  21390597.5944                   21390595.0204
 -12492661.29347  -9729109.37545  22729859.5554                   22729855.7304
 11  9 25  2  3  0.0000000  0  8G29G30G18G05G25G15G26G21
 -27235963.13348 -21213992.76247  20329322.0554                   20329319.3094
  -3735535.59846  -2901149.64543  24460315.9064                   24460315.8874
 -10895236.66847  -8476040.42645  22315955.0634                   22315951.2774
 -15737386.97747 -12252109.78944  23824124.9224                   23824122.4924
  -8519952.62146  -6628154.57443  24670812.6334                   24670815.3754
 -20893520.95348 -16270887.63347  20782333.7974                   20782330.3874
 -20575352.10547 -16025019.21146  21392020.5864                   21392017.5944
 -12579080.09047  -9796448.63745  22713414.7274                   22713410.4024
 11  9 25  2  3 30.0000000  0  8G29G30G18G05G25G15G26G21
 -27243838.19548 -21220129.17247  20327823.5084                   20327820.7154
  -3685665.09046  -2862289.49243  24469806.1334                   24469806.0634
 -10967470.99247  -8532326.84045  22302208.8444                   22302205.3834
 -15673958.89547 -12202685.32844  23836194.8674                   23836192.4384
  -8462416.85246  -6583321.60243  24681761.4694                   24681764.0234
 -20944696.56248 -16310764.69547  20772594.8594                   20772591.9734
 -20567180.72747 -16018651.88746  21393575.4224                   21393572.9804
 -12665483.96147  -9863776.27745  22696972.4844                   22696968.4964
 11  9 25  2  4  0.0000000  0  8G29G30G18G05G25G15G26G21
 -27251138.51648 -21225817.73047  20326434.3674                   20326431.6804
  -3635721.49246  -2823372.37943  24479310.1094                   24479310.1374
 -11039437.19147  -8588404.34445  22288514.0164                   22288510.7274
 -15610534.44147 -12153263.67244  23848264.3524                   23848261.3284
  -8404972.16846  -6538559.55543  24692693.8054                   24692695.8244
 -20995282.60548 -16350182.35547  20762969.0234                   20762966.0594
 -20558318.24248 -16011746.03946  21395262.0474                   21395259.4184
 -12751874.94148  -9931093.87545  22680532.8054                   22680529.0554
 11  9 25  2  4 30.0000000  0  8G29G30G18G05G25G15G26G21
 -27257866.00448 -21231059.91847  20325154.0314                   20325151.4454
  -3585709.46146  -2784401.94543  24488826.1954                   24488827.0124
 -11111137.69547  -8644274.80945  22274869.9614                   22274866.6414
 -15547116.62947 -12103847.18744  23860332.3134                   23860329.1054
  -8347622.87546  -6493871.80143  24703606.4694                   24703609.2584
 -21045279.45748 -16389140.89846  20753454.6954                   20753451.7894
 -20548767.69948 -16004304.03546  21397079.1644                   21397076.3164
 -12838254.08648  -9998402.26245  22664095.2814                   22664091.0314
 11  9 25  2  5  0.0000000  0  8G29G30G18G05G25G15G26G21
 -27264020.76248 -21235855.83247  20323982.8674                   20323980.4694
  -3535632.45346  -2745380.85943  24498356.7274                   24498355.7464
 -11182572.83648  -8699938.50045  22261276.5164                   22261272.9924
 -15483707.10547 -12054437.17244  23872398.7274                   23872395.8874
  -8290371.82847  -6449260.59843  24714501.0634                   24714503.5354
 -21094686.53548 -16427639.88746  20744052.7504                   20744049.9884
 -20538530.43448 -15996326.92646  21399027.5164                   21399024.6724
 -12924620.59847 -10065700.79745  22647660.1254                   22647656.4774
 11  9 25  2  5 30.0000000  0  8G29G30G18G05G25G15G26G21
 -27269606.21948 -21240208.12147  20322920.3444                   20322917.1374
  -3485496.54346  -2706313.89143  24507897.0864                   24507896.5904
 -11253745.73848  -8755397.84445  22247732.9064                   22247729.2854
 -15420309.96947 -12005036.80944  23884462.8524                   23884459.8914
  -8233224.78147  -6404730.46143  24725376.0634                   24725378.2704
 -21143506.18748 -16465681.13746  20734763.0084                   20734759.7934
 -20527610.96948 -15987818.23846  21401105.7274                   21401102.9304
 -13010977.10548 -10132991.53545  22631227.2894                   22631223.5434
 11  9 25  2  6  0.0000000  0  8G29G30G18G05G25G15G26G21
 -27274621.75848 -21244116.32847  20321965.5314                   20321962.6724
  -3435304.19946  -2667202.95343  24517448.1724                   24517448.0554
 -11324656.41047  -8810652.87545  22234238.4774                   22234235.1024
 -15356925.78546 -11955646.56244  23896523.8984                   23896521.6454
  -8176183.72346  -6360282.89843  24736230.2734                   24736232.7384
 -21191736.39148 -16503263.08246  20725585.0944                   20725581.6914
 -20516009.68047 -15978778.26246  21403312.8834                   21403310.4694
 -13097321.87148 -10200273.14145  22614796.2664                   22614792.3954
 11  9 25  2  6 30.0000000  0  7G29G30G18G05G15G26G21
 -27279068.63748 -21247581.42647  20321119.5394                   20321116.4264
  -3385059.60546  -2628051.27043  24527009.5164                   24527009.4574
 -11395306.55548  -8865704.87545  22220794.4454                   22220790.8014
 -15293557.00046 -11906268.30944  23908583.2194                   23908580.0434
 -21239377.66448 -16540386.10946  20716519.2504                   20716515.5984
 -20503729.25848 -15969209.07446  21405649.9064                   21405647.2934
 -13183655.54348 -10267546.08645  22598367.3134                   22598363.5904
 11  9 25  2  7  0.0000000  0  7G29G30G18G05G15G26G21
 -27282945.85948 -21250602.63347  20320381.7274                   20320378.8364
  -3334764.43746  -2588860.23444  24536580.2974                   24536580.4494
 -11465694.76648  -8920552.78545  22207399.6804                   22207396.1954
 -15230203.18046 -11856901.68744  23920638.8364                   23920636.0434
 -21286427.67648 -16577048.42246  20707565.6884                   20707562.7424
 -20490769.19148 -15959110.31246  21408116.1254                   21408113.4024
 -13269975.67647 -10334808.49645  22581941.2034                   22581937.2304
 11  9 25  2  7 30.0000000  0  7G29G30G18G05G15G26G21
 -27286247.14548 -21253175.05547  20319753.4064                   20319750.7704
  -3284415.27746  -2549627.07844  24546160.9694                   24546161.1174
 -11535815.07847  -8975191.93045  22194056.6024                   22194052.9534
 -15166859.25446 -11807542.78944  23932692.8054                   23932689.6134
 -21332878.87548 -16613244.12546  20698726.2274                   20698723.1454
 -20477124.50448 -15948478.07845  21410712.4694                   21410710.2544
 -13356275.06248 -10402054.73045  22565519.2814                   22565515.5864
 11  9 25  2  8  0.0000000  0  7G29G30G18G05G15G26G21
 -27288970.14148 -21255296.85947  20319234.9774                   20319232.4414
  -3234012.87946  -2510352.44944  24555752.2504                   24555752.4924
 -11605665.59047  -9029620.85545  22180764.4224                   22180760.9574
 -15103524.13346 -11758190.73844  23944744.6564                   23944741.9774
 -21378728.12548 -16648970.77746  20690001.4304                   20689998.4104
 -20462794.55148 -15937311.85946  21413439.2814                   21413436.6644
 -13442550.60948 -10469282.39145  22549101.4304                   22549097.4024
 11  9 25  2  8 30.0000000  0  7G29G30G18G05G15G26G21
 -27291118.18048 -21256970.65247  20318826.3914                   20318823.4064
  -3183563.10946  -2471040.93444  24565352.4924                   24565352.5704
 -11675249.73048  -9083842.20745  22167522.9454                   22167519.2274
 -15040201.84046 -11708848.71544  23956794.7274                   23956792.6564
 -21423977.43448 -16684229.94946  20681390.7584                   20681387.7584
 -20447783.24648 -15925614.72345  21416296.0164                   21416293.0744
 -13528804.15647 -10536492.89545  22532687.6334                   22532683.8874
 11  9 25  2  9  0.0000000  0  7G29G30G18G05G15G26G21
 -27292693.96948 -21258198.52747  20318526.1724                   20318523.7464
  -3133071.51646  -2431696.80944  24574961.4384                   24574960.6214
 -11744570.33648  -9137858.19945  22154331.3754                   22154327.8324
 -14976895.80146 -11659519.33644  23968841.5314                   23968839.4454
 -21468628.56248 -16719023.00446  20672893.8914                   20672891.0784
 -20432094.74247 -15913389.89846  21419281.3444                   21419278.8754
 -13615036.91847 -10603687.20745  22516278.4694                   22516273.8954
 11  9 25  2  9 30.0000000  0  7G29G30G18G05G15G26G21
 -27293702.26648 -21258984.20747  20318334.6564                   20318331.9104
  -3082545.48846  -2392325.83643  24584575.6174                   24584575.5354
 -11813631.96148  -9191672.39545  22141189.7034                   22141186.1954
 -14913611.89547 -11610207.21145  23980884.4614                   23980881.6954
 -21512684.83648 -16753352.53147  20664510.2664                   20664507.2854
 -20415734.69548 -15900641.78946  21422394.5634                   21422391.9774
 -13701253.04747 -10670868.55945  22499872.1804                   22499867.3554
 11  9 25  2 10  0.0000000  0  7G29G30G18G05G15G26G21
 -27294142.97748 -21259327.60947  20318250.9064                   20318247.5904
  -3031987.54746  -2352930.04343  24594196.7194                   24594196.5864
 -11882434.58648  -9245284.76645  22128096.5704                   22128093.1454
 -14850350.54747 -11560912.68045  23992922.7034                   23992920.3204
 -21556145.15248 -16787217.68446  20656240.1954                   20656236.9224
 -20398704.52348 -15887371.51245  21425635.4534                   21425632.6884
 -13787450.46947 -10738035.32445  22483468.7814                   22483465.0474
 11  9 25  2 10 30.0000000  0  7G29G30G18G05G15G26G21
 -27294018.00048 -21259230.21147  20318274.3754                   20318271.7424
  -2981402.09846  -2313512.82043  24603821.6174                   24603822.0904
 -11950979.82848  -9298696.57045  22115052.3054                   22115049.4924
 -14787114.33647 -11511637.70745  24004956.5634                   24004953.6294
 -21599010.17648 -16820618.96947  20648083.1334                   20648080.0124
 -20381006.57847 -15873580.88346  21429003.0784                   21429000.1994
 -13873630.16448 -10805188.28945  22467069.5704                   22467065.0594
 11  9 25  2 11  0.0000000  0  7G29G30G18G05G15G26G21
 -27293324.35248 -21258689.70747  20318406.6254                   20318403.3554
  -2930789.10546  -2274074.09843  24613453.8594                   24613453.9184
 -12019265.34448  -9351905.99645  22102058.5084                   22102054.5784
 -14723900.98447 -11462380.55945  24016985.1724                   24016983.2114
 -21641276.14848 -16853553.46147  20640040.2114                   20640036.9494
 -20362639.53948 -15859268.88345  21432498.2814                   21432495.3134
 -13959788.43447 -10872324.55145  22450673.7894                   22450669.5004
 11  9 25  2 11 30.0000000  0  7G29G30G18G05G15G26G21
 -27292067.93448 -21257710.66847  20318645.9144                   20318642.6454
  -2880156.99646  -2234620.52343  24623088.4224                   24623089.9384
 -12087296.92648  -9404917.55545  22089112.4774                   22089108.7894
 -14660717.35546 -11413146.58244  24029008.6644                   24029006.2584
 -21682948.15248 -16886025.12147  20632110.1254                   20632106.8914
 -20343610.57847 -15844441.10545  21436119.3134                   21436116.6294
 -14045929.91047 -10939447.73445  22434281.9384                   22434277.3754
 11  9 25  2 12  0.0000000  0  7G29G30G18G05G15G26G21
 -27290249.18748 -21256293.45347  20318991.9144                   20318988.6994
  -2829508.66046  -2195154.28943  24632727.2344                   24632727.5044
 -12155074.51248  -9457731.18745  22076214.8054                   22076211.3444
 -14597564.51646 -11363936.58244  24041025.7814                   24041023.9734
 -21724024.61748 -16918032.72347  20624293.6484                   20624290.6684
 -20323921.12147 -15829098.64545  21439866.1884                   21439863.2584
 -14132052.89847 -11006556.49245  22417893.2114                   22417888.7624
 11  9 25  2 12 30.0000000  0  7G29G30G18G05G15G26G21
 -27287868.45748 -21254438.33647  20319444.7274                   20319441.9224
  -2778847.01645  -2155677.69543  24642368.1024                   24642367.6724
 -12222599.13348  -9510347.70745  22063365.0944                   22063361.5984
 -14534443.41046 -11314751.35944  24053037.7114                   24053035.5984
 -21764505.30948 -16949576.08647  20616590.3444                   20616587.3554
 -20303572.71147 -15813242.71945  21443738.1954                   21443735.6914
 -14218156.53547 -11073650.19145  22401508.0084                   22401503.6954
 11  9 25  2 13  0.0000000  0  7G29G30G18G05G15G26G21
 -27284926.36748 -21252145.79347  20320004.8444                   20320001.7424
  -2728175.47746  -2116193.38343  24652010.0314                   24652010.0634
 -12289871.54347  -9562767.69145  22050563.8984                   22050559.9184
 -14471355.36746 -11265591.86744  24065042.4144                   24065040.2504
 -21804390.00048 -16980655.03947  20609000.2894                   20608997.2344
 -20282567.41447 -15796874.94145  21447735.3054                   21447732.4924
 -14304240.13747 -11140728.27045  22385126.8914                   22385122.5824
 11  9 25  2 13 30.0000000  0  7G29G30G18G05G15G26G21
 -27281423.34448 -21249416.15647  20320671.4144                   20320668.6094
  -2677496.21546  -2076703.10243  24661654.3444                   24661653.9774
 -12356891.45347  -9614990.93745  22037810.3054                   22037806.2544
 -14408300.68046 -11216458.37144  24077041.2974                   24077039.5864
 -21843677.24248 -17011268.44546  20601524.1484                   20601521.2584
 -20260906.20347 -15779996.05945  21451857.2344                   21451854.3914
 -14390302.26647 -11207789.61345  22368749.4774                   22368745.9694
 11  9 25  2 14  0.0000000  0  7G29G30G18G05G15G26G21
 -27277358.48048 -21246248.72747  20321444.7114                   20321441.8014
  -2626811.68046  -2037208.64843  24671298.9534                   24671298.9024
 -12423658.32047  -9667016.99645  22025104.8444                   22025101.0984
 -14345280.03946 -11167351.38344  24089034.2274                   24089031.9964
 -21882366.09847 -17041415.57447  20594162.0634                   20594158.7774
 -20238590.36347 -15762607.08245  21456104.1884                   21456101.0044
 -14476341.22747 -11274832.90645  22352377.0084                   22352372.9734
 11  9 25  2 14 30.0000000  0  7G29G30G18G05G15G26G21
 -27272734.38348 -21242645.52347  20322325.0784                   20322321.8134
  -2576126.44546  -1997713.66443  24680943.9534                   24680943.3364
 -12490174.43747  -9718847.67245  22012446.9144                   22012443.3404
 -14282296.09046 -11118273.00044  24101019.4614                   24101016.1764
 -21920457.75447 -17071097.34847  20586913.0944                   20586910.0864
 -20215623.00847 -15744710.42645  21460474.6174                   21460471.8204
 -14562357.96947 -11341858.88745  22336008.1414                   22336004.4184
 11  9 25  2 15  0.0000000  0  7G29G30G18G05G15G26G21
 -27267551.33648 -21238606.78547  20323310.9224                   20323307.9534
  -2525443.03946  -1958220.10943  24690588.7504                   24690588.6334
 -12556440.05147  -9770483.14145  21999837.1804                   21999833.6884
 -14219349.36746 -11069223.59444  24112997.9304                   24112995.3714
 -21957951.00847 -17100312.84447  20579778.6254                   20579775.5784
 -20192005.80147 -15726307.39545  21464968.4774                   21464965.9224
 -14648351.11747 -11408866.48445  22319644.5554                   22319640.5394
 11  9 25  2 15 30.0000000  0  7G29G30G18G05G15G26G21
 -27261809.37548 -21234132.52347  20324403.6564                   20324400.6914
  -2474763.89846  -1918729.85243  24700232.5864                   24700232.3014
 -12622454.93047  -9821923.24245  21987275.0864                   21987271.2704
 -14156440.26646 -11020203.52744  24124969.3444                   24124966.2384
 -21994844.67647 -17129061.12147  20572758.0394                   20572754.8094
 -20167739.75447 -15707398.76645  21469586.5314                   21469583.9264
 -14734318.46947 -11475853.98045  22303285.5704                   22303281.5084
 11  9 25  2 16  0.0000000  0  7G29G30G18G05G15G26G21
 -27255510.12548 -21229224.01247  20325602.1954                   20325599.1914
  -2424093.08246  -1879246.18743  24709875.5634                   24709875.1374
 -12688220.78547  -9873169.30145  21974760.0634                   21974756.6994
 -14093571.13346 -10971214.57044  24136933.2974                   24136929.8484
 -22031139.96948 -17157343.14547  20565851.1484                   20565848.3134
 -20142827.96147 -15687986.96545  21474326.7734                   21474324.1334
 -14820260.85547 -11542822.02746  22286931.1334                   22286927.0664
 11  9 25  2 16 30.0000000  0  7G29G30G18G05G15G26G21
 -27248656.47348 -21223883.50047  20326906.2194                   20326903.7304
  -2373435.66846  -1839772.84043  24719515.0314                   24719514.8754
 -12753740.28147  -9924223.39145  21962292.1334                   21962288.3444
 -14030744.90247 -10922259.07444  24148888.8674                   24148885.9694
 -22066838.05948 -17185159.80547  20559058.2664                   20559055.0744
 -20117274.28947 -15668074.99645  21479189.6094                   21479187.0514
 -14906178.94547 -11609771.15645  22270581.6414                   22270577.5514
 11  9 25  2 17  0.0000000  0  7G29G30G18G05G15G26G21
 -27241248.85548 -21218111.32447  20328316.3284                   20328313.4344
  -2322794.45346  -1800312.14843  24729151.2584                   24729151.7074
 -12819013.75447  -9975085.78145  21949870.7664                   21949867.1484
 -13967962.38346 -10873337.62544  24160836.0234                   24160832.9224
 -22101939.09048 -17212511.23847  20552378.5394                   20552375.5124
 -20091080.79347 -15647664.47345  21484174.5004                   21484171.4064
 -14992072.09848 -11676700.84045  22254236.3364                   22254232.3014
 11  9 25  2 17 30.0000000  0  6G29G18G05G15G26G21
 -27233284.96948 -21211905.69547  20329831.7504                   20329828.9844
 -12884038.62147 -10025754.45345  21937496.7734                   21937493.4384
 -13905221.78946 -10824448.85544  24172774.3524                   24172772.8714
 -22136438.89848 -17239394.18047  20545813.3914                   20545810.2304
 -20064246.10947 -15626754.32045  21489280.4774                   21489277.8794
 -15077935.89548 -11743607.66446  22237897.3524                   22237893.0594
 11  9 25  2 18  0.0000000  0  6G29G18G05G15G26G21
 -27224766.66048 -21205268.04747  20331452.5004                   20331449.7664
 -12948816.57448 -10076230.71545  21925169.9304                   21925166.0514
 -13842525.00846 -10775594.25844  24184705.5704                   24184703.5204
 -22170338.42248 -17265809.36347  20539362.6484                   20539359.2624
 -20036773.33247 -15605346.94945  21494508.8594                   21494506.1994
 -15163770.07447 -11810491.39846  22221563.1804                   22221559.5354
 11  9 25  2 18 30.0000000  0  6G29G18G05G15G26G21
 -27215689.64548 -21198195.05147  20333179.9774                   20333177.3134
 -13013343.02047 -10126511.01645  21912891.2504                   21912887.2034
 -13779868.16446 -10726770.74644  24196628.2974                   24196625.7814
 -22203632.45748 -17291752.74647  20533026.9304                   20533023.7194
 -20008659.30947 -15583439.91045  21499858.6174                   21499855.3554
 -15249568.96148 -11877347.64546  22205236.4144                   22205232.2464
 11  9 25  2 19  0.0000000  0  6G29G18G05G15G26G21
 -27206052.32048 -21190685.44547  20335013.7114                   20335010.8874
 -13077616.44947 -10176594.15645  21900659.9224                   21900656.0474
 -13717249.95346 -10677977.36344  24208544.3914                   24208542.3484
 -22236318.97348 -17317222.72747  20526806.8914                   20526803.6374
 -19979904.16447 -15561033.30145  21505330.4224                   21505327.6764
 -15335329.38348 -11944173.91445  22188916.4144                   22188912.3484
 11  9 25  2 19 30.0000000  0  6G29G18G05G15G26G21
 -27195857.06648 -21182741.09047  20336953.9614                   20336951.0394
 -13141638.52048 -10226481.43745  21888477.0474                   21888473.2034
 -13654672.27346 -10629215.60944  24220452.6414                   24220450.3284
 -22268398.28948 -17342219.57047  20520702.3834                   20520699.1844
 -19950510.91047 -15538129.44145  21510923.3134                   21510920.9224
 -15421051.10548 -12010970.02745  22172604.0164                   22172600.5594
 11  9 25  2 20  0.0000000  0  6G29G18G05G15G26G21
 -27185107.80148 -21174365.03547  20338999.4924                   20338996.5514
 -13205413.09448 -10276175.86345  21876341.0634                   21876337.5664
 -13592139.63746 -10580488.89543  24232352.2734                   24232350.2934
 -22299873.52348 -17366745.70347  20514712.8284                   20514709.5824
 -19920484.89847 -15514732.54345  21516637.1484                   21516634.2234
 -15506736.53148 -12077737.86745  22156298.8834                   22156295.1174
 11  9 25  2 20 30.0000000  0  6G29G18G05G15G26G21
 -27173805.30548 -21165557.89547  20341150.2814                   20341147.3874
 -13268940.83248 -10325677.94545  21864252.2194                   21864248.0164
 -13529653.10946 -10531798.14144  24244242.8914                   24244240.9344
 -22330744.80148 -17390801.22347  20508837.9614                   20508835.3794
 -19889828.22747 -15490844.22345  21522470.7504                   21522468.4264
 -15592384.62548 -12144476.60245  22140000.4924                   22139996.5744
 11  9 25  2 21  0.0000000  0  6G29G18G05G15G26G21
 -27161952.37948 -21156321.84847  20343405.8134                   20343403.1604
 -13332223.69948 -10374989.23846  21852210.0004                   21852206.1484
 -13467215.04346 -10483145.11744  24256124.9614                   24256122.0824
 -22361013.46148 -17414387.16447  20503078.2424                   20503075.1294
 -19858545.00047 -15466467.66845  21528423.8914                   21528421.5984
 -15677996.30948 -12211186.96545  22123709.2894                   22123705.3244
 11  9 25  2 21 30.0000000  0  6G29G18G05G15G26G21
 -27149549.62548 -21146657.36347  20345765.8054                   20345763.0394
 -13395262.30948 -10424110.18445  21840214.1414                   21840209.9064
 -13404826.34446 -10434530.55143  24267997.0394                   24267994.1484
 -22390679.27748 -17437503.36347  20497433.0394                   20497429.5594
 -19826636.79747 -15441604.13345  21534495.9844                   21534493.1684
 -15763569.68747 -12277867.48845  22107425.3984                   22107421.1374
 11  9 25  2 22  0.0000000  0  6G29G18G05G15G26G21
 -27136601.88348 -21136568.21947  20348229.8054                   20348226.9534
 -13458061.35248 -10473044.46145  21828263.6954                   21828259.5634
 -13342491.62946 -10385958.02743  24279858.8834                   24279855.6054
 -22419746.00848 -17460152.73847  20491901.4614                   20491898.3554
 -19794109.89547 -15416258.48845  21540685.5234                   21540683.4064
 -15849108.16047 -12344520.81245  22091147.2814                   22091143.5354
 11  9 25  2 22 30.0000000  0  6G29G18G05G15G26G21
 -27123108.54348 -21126053.93047  20350797.6954                   20350794.6334
 -13520619.89848 -10521791.34846  21816359.1804                   21816355.5944
 -13280210.63346 -10337427.35943  24291710.8754                   24291707.8984
 -22448211.98048 -17482333.99247  20486484.7584                   20486481.6294
 -19760965.10947 -15390431.37945  21546993.0234                   21546990.3674
 -15934608.83647 -12411144.67646  22074877.3054                   22074873.1454
 11  9 25  2 23  0.0000000  0  6G29G18G05G15G26G21
 -27109071.30948 -21115115.82047  20353468.8914                   20353465.8674
 -13582938.75448 -10570351.45346  21804499.9534                   21804496.3954
 -13217984.41046 -10288939.36344  24303551.4614                   24303549.4144
 -22476077.79748 -17504047.59047  20481181.9534                   20481178.9454
 -19727205.13747 -15364124.91045  21553417.2034                   21553414.6134
 -16020071.02347 -12477738.55946  22058614.2974                   22058610.1414
 11  9 25  2 23 30.0000000  0  6G29G18G05G15G26G21
 -27094490.75848 -21103754.35547  20356243.3834                   20356240.6134
 -13645018.60948 -10618725.32846  21792687.0394                   21792683.0354
 -13155813.91446 -10240494.79743  24315382.2194                   24315379.6604
 -22503343.52048 -17525293.58647  20475993.7894                   20475990.6054
 -19692831.80147 -15337340.49245  21559958.1564                   21559955.5784
 -16105493.51647 -12544301.50046  22042359.0554                   22042354.6804
 11  9 25  2 24  0.0000000  0  6G29G18G05G15G26G21
 -27079369.09448 -21091971.23847  20359120.9774                   20359117.6764
 -13706861.32048 -10666914.41446  21780918.7664                   21780914.5864
 -13093701.38346 -10192095.41443  24327201.9304                   24327199.8404
 -22530010.29748 -17546072.86747  20470919.0784                   20470916.0164
 -19657848.90647 -15310081.08245  21566615.5084                   21566612.6134
 -16190876.12147 -12610833.36345  22026111.6414                   22026107.1334
 11  9 25  2 24 30.0000000  0  6G29G18G05G15G26G21
 -27063708.93048 -21079768.52047  20362101.2114                   20362098.2934
 -13768468.37548 -10714919.88346  21769194.9144                   21769191.2584
 -13031648.16046 -10143742.32843  24339010.4224                   24339007.8204
 -22556078.53947 -17566385.76647  20465958.5394                   20465955.1564
 -19622259.42247 -15282349.02045  21573387.8834                   21573385.4144
 -16276218.80947 -12677334.12945  22009870.8984                   22009866.6254
 11  9 25  2 25  0.0000000  0  6G29G18G05G15G26G21
 -27047509.15248 -21067145.31647  20365183.6884                   20365180.9964
 -13829838.39848 -10762740.64146  21757516.7274                   21757512.8834
 -12969653.83646 -10095435.07043  24350807.2194                   24350804.1804
 -22581546.93448 -17586231.25047  20461111.9534                   20461108.4494
 -19586064.09447 -15254144.85945  21580275.2894                   21580272.5274
 -16361518.34447 -12743801.26245  21993639.0394                   21993634.5354
 11  9 25  2 25 30.0000000  0  6G29G18G05G15G26G21
 -27030769.73848 -21054101.61347  20368369.1884                   20368366.2074
 -13890971.37548 -10810376.69546  21745883.7274                   21745879.5944
 -12907717.86746 -10047173.32844  24362593.6174                   24362591.1604
 -22606414.58248 -17605608.60947  20456379.9064                   20456376.5664
 -19549264.28547 -15225469.68745  21587278.1564                   21587275.8984
 -16446773.20748 -12810233.58646  21977415.2814                   21977411.2584
 11  9 25  2 26  0.0000000  0  6G29G18G05G15G26G21
 -27013495.43048 -21040641.11747  20371655.9534                   20371653.4344
 -13951871.27048 -10857831.12946  21734294.6724                   21734290.6724
 -12845844.67246  -9998960.49244  24374367.6414                   24374365.7234
 -22630685.22348 -17624520.78147  20451761.0554                   20451757.8834
 -19511865.69547 -15196327.93045  21594395.0554                   21594392.0704
 -16531985.55147 -12876632.78546  21961200.5394                   21961196.0744
 11  9 25  2 26 30.0000000  0  7G29G22G18G05G15G26G21
 -26995687.35548 -21026764.69547  20375044.8834                   20375042.1054
   6158966.84456   4810606.27053  24530432.7274                   24530428.6684
 -14012538.89548 -10905104.56646  21722749.9144                   21722746.3284
 -12784035.02046  -9950797.15244  24386130.0084                   24386127.1914
 -22654358.96547 -17642967.82447  20447256.0314                   20447253.1684
 -19473870.62547 -15166721.37945  21601625.1254                   21601622.6134
 -16617154.03147 -12942997.80946  21944993.3914                   21944988.8444
 11  9 25  2 27  0.0000000  0  7G29G22G18G05G15G26G21
 -26977351.55148 -21012477.06247  20378534.0554                   20378531.4774
   6062419.35546   4735374.66843  24512060.0474                   24512056.0274
 -14072979.81248 -10952201.36345  21711248.5164                   21711244.4804
 -12722294.93046  -9902688.02744  24397877.7894                   24397876.0164
 -22677441.18048 -17660953.94547  20442863.7424                   20442860.4534
 -19435286.80547 -15136656.07045  21608967.4384                   21608964.6994
 -16702282.56247 -13009331.68746  21928794.0944                   21928789.7074
 11  9 25  2 27 30.0000000  0  7G29G22G18G05G15G26G21
 -25383072.50848 -19770181.70747  20681915.3444                   20681912.4884
   7541442.69546   5887860.56643  24793507.8364                   24793504.1334
 -12557775.04748  -9771522.28946  21999581.9844                   21999578.2194
 -11085209.79747  -8627037.30144  24709405.7504                   24709402.9184
 -21124512.88748 -16450879.93047  20738376.2584                   20738373.1564
 -17820700.29347 -13878536.70345  21916212.6644                   21916210.1174
 -15211949.43748 -11848033.11346  22212394.9614                   22212390.6884
 11  9 25  2 28  0.0000000  0  7G29G22G18G05G15G26G21
 -25363689.16048 -19755077.80547  20685603.7504                   20685601.0204
   7445191.78946   5812860.13343  24775192.1174                   24775188.3444
 -12617768.28548  -9818270.23446  21988165.7734                   21988161.7114
 -11023615.23447  -8579041.53544  24721126.2424                   24721124.1604
 -21146415.15248 -16467946.61347  20734208.6484                   20734204.9264
 -17780949.70347 -13847562.21945  21923777.5234                   21923774.6604
 -15296998.05548 -11914304.73846  22196210.5234                   22196206.1804
 11  9 25  2 28 30.0000000  0  7G29G22G18G05G15G26G21
 -25343780.14548 -19739564.28147  20689392.3134                   20689389.4454
   7349092.63747   5737977.90644  24756905.1484                   24756901.8094
 -12677535.06648  -9864841.73446  21976792.5864                   21976788.9694
 -10962090.91046  -8531100.49644  24732834.1094                   24732831.5594
 -21167724.84848 -16484551.55547  20730153.4844                   20730149.9614
 -17740616.14147 -13816133.46945  21931452.6254                   21931449.6764
 -15382001.07048 -11980540.82446  22180034.7894                   22180030.5744
 11  9 25  2 29  0.0000000  0  7G29G22G18G05G15G26G21
 -25323344.40648 -19723640.33647  20693280.9614                   20693278.2034
   7253147.68446   5663215.82044  24738647.5554                   24738643.6174
 -12737073.58648  -9911235.36346  21965462.9774                   21965459.1414
 -10900635.22346  -8483212.94544  24744529.0554                   24744526.4104
 -21188439.47748 -16500692.80547  20726211.1094                   20726208.0864
 -17699699.57447 -13784250.41845  21939238.9844                   21939235.8284
 -15466955.17248 -12046738.79746  22163868.8204                   22163864.3444
 11  9 25  2 29 30.0000000  0  7G29G22G18G05G15G26G21
 -25302384.46948 -19707307.92647  20697269.9224                   20697267.1914
   7157355.95746   5588573.16443  24720417.1024                   24720414.5004
 -12796385.97748  -9957452.78146  21954175.9694                   21954172.1024
 -10839250.22746  -8435380.50843  24756210.3204                   24756206.8874
 -21208560.83248 -16516371.76647  20722382.1884                   20722378.9574
 -17658203.84847 -13751916.08645  21947134.8594                   21947132.2584
 -15551860.78148 -12112898.99246  22147711.7344                   22147707.5314
 11  9 25  2 30  0.0000000  0  7G29G22G18G05G15G26G21
 -25280899.08648 -19690566.07047  20701358.1564                   20701355.5044
   7061720.08646   5514051.93843  24702219.0784                   24702215.6054
 -12855470.22748 -10003492.42646  21942932.5784                   21942928.6564
 -10777934.13346  -8387601.73443  24767877.6484                   24767873.8914
 -21228086.64548 -16531586.66447  20718666.6334                   20718663.2154
 -17616128.72347 -13719130.27345  21955141.8054                   21955138.5944
 -15636713.53148 -12179017.99246  22131564.6334                   22131560.3244
 11  9 25  2 30 30.0000000  0  7G29G22G18G05G15G26G21
 -25258890.36348 -19673416.41447  20705546.2344                   20705543.6054
   6966239.54747   5439651.71144  24684049.8594                   24684045.6804
 -12914328.15648 -10049355.73046  21931732.3364                   21931728.3754
 -10716688.57045  -8339877.91043  24779532.5554                   24779529.0124
 -21247017.98048 -16546338.34047  20715064.4534                   20715060.8794
 -17573477.68747 -13685895.70345  21963257.8524                   21963254.6254
 -15721512.91448 -12245095.40246  22115427.9224                   22115423.7154
 11  9 25  2 31  0.0000000  0  7G29G22G18G05G15G26G21
 -25236358.64148 -19655859.23447  20709833.8204                   20709831.3954
   6870915.02746   5365373.07444  24665910.2974                   24665905.8634
 -12972959.21948 -10095042.24246  21920575.2894                   21920570.8524
 -10655513.07046  -8292208.71943  24791173.8054                   24791170.5984
 -21265354.32448 -16560626.37947  20711574.8444                   20711571.4454
 -17530252.48847 -13652213.72745  21971483.6564                   21971480.5004
 -15806256.79748 -12311129.57046  22099301.5554                   22099297.4184
 11  9 25  2 31 30.0000000  0  7G29G22G18G05G15G26G21
 -25213306.07048 -19637896.19147  20714220.7424                   20714218.0984
   6775745.86346   5291215.46944  24647799.8134                   24647796.0514
 -13031364.91448 -10140553.14546  21909461.0164                   21909456.5164
 -10594409.35546  -8244595.42243  24802801.5944                   24802798.8054
 -21283097.33248 -16574452.08647  20708198.6414                   20708195.3134
 -17486456.37547 -13618086.89545  21979817.2274                   21979814.0944
 -15890944.68048 -12377120.10246  22083185.9304                   22083181.6454
 11  9 25  2 32  0.0000000  0  7G29G22G18G05G15G26G21
 -25189734.63348 -19619528.84047  20718706.2974                   20718703.5394
   6680731.72346   5217178.61744  24629719.2034                   24629715.0594
 -13089546.51248 -10185889.43446  21898389.2344                   21898385.0984
 -10533378.78946  -8197039.16443  24814415.3134                   24814413.0784
 -21300247.11748 -16587815.53147  20704934.9844                   20704931.5204
 -17442092.52347 -13583517.66045  21988259.5004                   21988256.5084
 -15975575.91848 -12443066.49246  22067081.3674                   22067076.9654
 11  9 25  2 32 30.0000000  0  7G29G22G18G05G15G26G21
 -25165644.80148 -19600757.54347  20723290.3524                   20723287.8054
   6585873.27746   5143263.12544  24611668.1094                   24611664.2814
 -13147503.77048 -10231050.89846  21887360.3524                   21887356.1764
 -10472420.78746  -8149539.48843  24826015.6254                   24826012.8444
 -21316803.56248 -16600716.63747  20701784.4064                   20701781.0124
 -17397162.66047 -13548507.37545  21996809.5084                   21996806.5514
 -16060148.19148 -12508966.93746  22050987.7034                   22050983.0864
 11  9 25  2 33  0.0000000  0  7G29G22G18G05G15G26G21
 -25141038.93448 -19581584.14147  20727972.8594                   20727970.2504
   6491170.03946   5069468.57444  24593646.8054                   24593642.5004
 -13205238.23848 -10276038.77046  21876374.1254                   21876369.9614
 -10411537.38746  -8102097.85543  24837601.3204                   24837598.2034
 -21332767.85248 -16613156.32847  20698746.2504                   20698742.9964
 -17351670.28147 -13513058.77345  22005466.2814                   22005463.3984
 -16144661.07447 -12574821.10946  22034905.3524                   22034901.0204
 11  9 25  2 33 30.0000000  0  7G29G22G18G05G15G26G21
 -25115915.18748 -19562007.19947  20732753.9614                   20732750.9774
   6396625.36347   4995797.52344  24575655.4844                   24575651.1214
 -13262747.52048 -10320851.16846  21865430.3444                   21865425.7624
 -10350726.07846  -8054712.41444  24849172.7584                   24849170.8984
 -21348137.55948 -16625132.70747  20695821.6174                   20695818.1564
 -17305614.69947 -13477171.28945  22014230.6254                   22014227.4534
 -16229110.05947 -12640625.48846  22018835.3914                   22018830.6484
 11  9 25  2 34  0.0000000  0  7G29G22G18G05G15G26G21
 -25090277.80148 -19542030.01647  20737632.4304                   20737629.4804
   6302236.46546   4922247.88744  24557693.6094                   24557689.7974
 -13320035.05148 -10365490.77346  21854528.5474                   21854524.8594
 -10289989.85246  -8007385.53544  24860731.1414                   24860728.8284
 -21362916.04748 -16636648.39847  20693009.3524                   20693006.0204
 -17259001.45347 -13440849.28145  22023100.6334                   22023097.8444
 -16313496.35248 -12706381.01246  22002777.0004                   22002772.5434
 11  9 25  2 34 30.0000000  0  7G29G22G18G05G15G26G21
 -25064126.85948 -19521652.66046  20742608.6884                   20742605.8484
   6208004.56646   4848820.57044  24539760.9774                   24539757.6844
 -13377100.05148 -10409956.98446  21843669.8134                   21843665.3954
 -10229328.27747  -7960116.77044  24872274.6884                   24872271.8554
 -21377102.32848 -16647702.62547  20690309.9064                   20690306.5554
 -17211832.11347 -13404093.94545  22032076.4064                   22032073.9924
 -16397817.45748 -12772085.74646  21986731.1884                   21986726.9064
 11  9 25  2 35  0.0000000  0  7G29G22G18G05G15G26G21
 -25037464.96148 -19500877.15647  20747682.0784                   20747679.3324
   6113928.38346   4775514.58643  24521858.9924                   24521854.8014
 -13433944.15248 -10454251.06246  21832852.4614                   21832848.3484
 -10168743.02346  -7912907.48844  24883803.0234                   24883800.9224
 -21390698.15648 -16658296.76247  20687722.8834                   20687719.0664
 -17164110.32847 -13366908.13345  22041157.9774                   22041155.2704
 -16482072.85948 -12837739.28546  21970698.0944                   21970693.8164
 11  9 25  2 35 30.0000000  0  7G29G22G18G05G15G26G21
 -25010291.91448 -19479703.35547  20752853.1804                   20752850.2304
   6020010.35546   4702331.85244  24503987.0944                   24503983.3324
 -13490566.77048 -10498372.55146  21822077.8364                   21822073.6454
 -10108232.91847  -7865756.77744  24895318.7274                   24895315.8484
 -21403702.29748 -16668429.84047  20685248.0164                   20685244.2584
 -17115837.10247 -13329292.62545  22050343.7814                   22050341.3874
 -16566259.82048 -12903339.48446  21954677.6804                   21954673.1644
 11  9 25  2 36  0.0000000  0  6G29G22G18G15G26G21
 -24982610.89148 -19458133.73447  20758120.5554                   20758117.8444
   5926248.56346   4629270.82043  24486144.9144                   24486139.8984
 -13546970.23048 -10542323.27346  21811344.2734                   21811340.4734
 -21416117.02348 -16678103.63747  20682885.5474                   20682882.2424
 -17067016.98847 -13291250.97745  22059633.9534                   22059631.1604
 -16650378.28548 -12968886.32046  21938670.3834                   21938666.4024
 11  9 25  2 36 30.0000000  0  6G29G22G18G15G26G21
 -24954422.39148 -19436168.66847  20763484.8834                   20763481.9064
   5832644.03546   4556332.37543  24468332.1174                   24468327.5744
 -13603153.69947 -10586102.57046  21800652.9304                   21800648.5704
 -21427942.01248 -16687317.89847  20680635.3364                   20680631.8834
 -17017651.25447 -13252784.17645  22069028.2584                   22069025.1884
 -16734425.77348 -13034377.85246  21922676.5474                   21922672.4184
 11  9 25  2 37  0.0000000  0  6G29G22G18G15G26G21
 -24925723.32848 -19413805.76647  20768945.9534                   20768943.1914
   5739201.38346   4483520.05143  24450550.2734                   24450545.7624
 -13659113.62948 -10629707.68446  21790004.2034                   21790000.0204
 -21439173.19548 -16696069.45347  20678498.4844                   20678494.9534
 -16967738.48047 -13213891.09845  22078526.2974                   22078523.2974
 -16818395.68448 -13099808.92246  21906697.7424                   21906693.7274
 11  9 25  2 37 30.0000000  0  6G29G22G18G15G26G21
 -24896511.72348 -19391043.48047  20774504.7664                   20774502.1604
   5645924.23046   4410836.73444  24432800.6254                   24432795.8954
 -13714847.05548 -10673136.30546  21779398.2664                   21779394.1254
 -21449807.86348 -16704356.19547  20676474.2344                   20676470.7774
 -16917277.77747 -13174571.06645  22088128.2274                   22088126.0904
 -16902284.15247 -13165176.53546  21890734.3134                   21890729.8874
 11  9 25  2 38  0.0000000  0  6G29G22G18G15G26G21
 -24866790.84448 -19367884.35947  20780160.5864                   20780157.7974
   5552810.91046   4338281.00043  24415081.2194                   24415076.9344
 -13770356.55547 -10716390.43446  21768835.5864                   21768831.1684
 -21459848.36748 -16712179.94547  20674563.9384                   20674560.3874
 -16866273.81247 -13134827.71545  22097833.9924                   22097831.5234
 -16986091.19947 -13230480.71146  21874786.1254                   21874781.6214
 11  9 25  2 38 30.0000000  0  6G29G22G18G15G26G21
 -24836563.08648 -19344330.26247  20785912.3524                   20785909.6174
   5459860.73846   4265852.44143  24397394.2734                   24397389.4614
 -13825643.53547 -10759471.16846  21758314.3834                   21758310.6994
 -21469296.07448 -16719541.78147  20672765.6884                   20672762.3364
 -16814729.78547 -13094663.54345  22107642.5314                   22107640.0824
 -17069815.48047 -13295720.39546  21858854.2114                   21858849.5234
 11  9 25  2 39  0.0000000  0  6G29G22G18G15G26G21
 -24805834.93048 -19320386.24646  20791759.9924                   20791757.2074
   5367068.95346   4193547.27343  24379735.5314                   24379731.7344
 -13880713.20348 -10802382.57046  21747834.9304                   21747830.7194
 -21478156.81248 -16726446.24247  20671080.1484                   20671075.9804
 -16762653.59447 -13054084.69545  22117552.6564                   22117550.1884
 -17153461.07447 -13360898.75046  21842936.5234                   21842932.5904
 11  9 25  2 39 30.0000000  0  6G29G22G18G15G26G21
 -24774608.98048 -19296054.34846  20797702.1094                   20797699.2894
   5274434.68046   4121364.89143  24362107.6484                   24362102.9454
 -13935567.41447 -10845126.09446  21737396.5704                   21737392.5864
 -21486432.07048 -16732894.47347  20669504.8674                   20669501.7034
 -16710048.78547 -13013093.93045  22127562.6174                   22127560.3054
 -17237026.73047 -13426014.82846  21827035.0704                   21827030.4184
 11  9 25  2 40  0.0000000  0  6G29G22G18G15G26G21
 -24742887.90248 -19271336.62546  20803738.6564                   20803735.6054
   5181956.75446   4049304.29744  24344510.0554                   24344504.9574
 -13990207.85947 -10887703.03946  21726998.6884                   21726994.6994
 -21494123.23448 -16738887.58647  20668041.2504                   20668037.8324
 -16656919.09447 -12971694.17245  22137673.1334                   22137670.1094
 -17320511.63347 -13491067.98046  21811148.3524                   21811143.4144
 11  9 25  2 40 30.0000000  0  6G29G22G18G15G26G21
 -24710673.14548 -19246234.21547  20809868.8364                   20809866.0124
   5089635.04347   3977365.43844  24326941.8134                   24326936.2274
 -14044635.53147 -10930114.18446  21716641.8984                   21716637.6054
 -21501231.70748 -16744426.64547  20666688.9064                   20666685.2424
 -16603267.94547 -12929888.08645  22147882.6334                   22147879.7154
 -17403915.65247 -13556058.10546  21795276.9694                   21795272.6254
 11  9 25  2 41  0.0000000  0  6G29G22G18G15G26G21
 -24677969.24648 -19220750.66446  20816092.1804                   20816089.6254
   4997467.10547   3905546.41844  24309402.6564                   24309397.9304
 -14098853.49247 -10972361.93046  21706324.4694                   21706319.9264
 -21507760.68448 -16749514.13747  20665446.1954                   20665442.7154
 -16549100.55147 -12887679.73045  22158190.7034                   22158187.9774
 -17487239.00447 -13620985.37146  21779421.1174                   21779416.3094
 11  9 25  2 41 30.0000000  0  6G29G22G18G15G26G21
 -24644775.21148 -19194885.19146  20822408.7974                   20822405.8954
   4905455.70747   3833849.35544  24291892.6954                   24291888.7304
 -14152859.86347 -11014444.78946  21696047.2974                   21696042.9884
 -21513708.53548 -16754148.81647  20664314.3594                   20664311.1334
 -16494417.12147 -12845069.26645  22168595.8914                   22168593.7894
 -17570477.65247 -13685846.64146  21763581.4694                   21763576.5904
 11  9 25  2 42  0.0000000  0  6G29G22G18G15G26G21
 -24611095.71948 -19168641.43746  20828817.6334                   20828814.8594
   4813597.51247   3762271.66444  24274413.1254                   24274408.4224
 -14206658.46547 -11056365.76246  21685809.4384                   21685805.2584
 -21519079.27048 -16758333.78947  20663292.5554                   20663289.1414
 -16439223.73047 -12802061.44145  22179099.1414                   22179096.5864
 -17653633.23047 -13750643.16846  21747756.9774                   21747752.7034
 11  9 25  2 42 30.0000000  0  7G29G22G09G18G15G26G21
 -24576933.23048 -19142021.32046  20835318.3754                   20835315.7304
   4721892.03547   3690812.98444  24256961.9534                   24256957.3094
   7717321.52056   6026161.36753  24882883.6484                   24882881.7234
 -14260251.02347 -11098126.17646  21675610.9614                   21675606.9344
 -21523874.51648 -16762070.32847  20662379.8444                   20662376.5514
 -16383523.80947 -12758658.91045  22189698.2894                   22189695.6764
 -17736704.30947 -13815373.85946  21731948.9534                   21731944.9494
 11  9 25  2 43  0.0000000  0  7G29G22G09G18G15G26G21
 -24542297.62148 -19115032.55546  20841909.4064                   20841906.7424
   4630331.55147   3619467.24244  24239538.6414                   24239533.4774
   7608513.37146   5941375.84843  24862177.8674                   24862175.8874
 -14313645.28147 -11139732.05546  21665450.8524                   21665446.4924
 -21528102.78148 -16765365.07447  20661575.4224                   20661571.8134
 -16327327.86347 -12714869.87945  22200392.2504                   22200389.9924
 -17819697.90648 -13880044.16846  21716156.1254                   21716151.6844
 11  9 25  2 43 30.0000000  0  7G29G22G09G18G15G26G21
 -24507194.30547 -19087679.32446  20848589.6334                   20848586.8324
   4538912.07846   3548231.41444  24222141.4144                   24222137.3984
   7499589.69146   5856500.29343  24841449.7734                   24841448.8714
 -14366846.11347 -11181187.23046  21655326.9304                   21655322.6174
 -21531768.77048 -16768221.67647  20660877.5164                   20660874.2584
 -16270642.90647 -12670699.77045  22211178.8914                   22211176.4344
 -17902616.28547 -13944655.86746  21700377.5164                   21700372.9924
 11  9 25  2 44  0.0000000  0  7G29G22G09G18G15G26G21
 -24471623.36347 -19059961.71946  20855358.5634                   20855355.6174
   4447635.06347   3477106.56344  24204772.2274                   24204767.9104
   7390554.91046   5771538.28943  24820701.4064                   24820700.2304
 -14419852.65247 -11222491.00046  21645239.6644                   21645235.6484
 -21534871.90648 -16770639.69547  20660286.8834                   20660283.6054
 -16213470.37547 -12626149.75045  22222058.7274                   22222055.7424
 -17985455.27348 -14009205.71146  21684613.6954                   21684609.0314
 11  9 25  2 44 30.0000000  0  7G29G22G09G18G15G26G21
 -24435584.09847 -19031879.17646  20862216.4694                   20862213.3834
   4356503.28546   3406094.87944  24187430.3204                   24187425.5474
   7281414.51246   5686493.90244  24799932.6254                   24799931.3794
 -14472662.99247 -11263641.89146  21635190.3754                   21635186.2304
 -21537410.90248 -16772618.12147  20659803.9304                   20659800.3794
 -16155810.53947 -12581220.02045  22233030.8834                   22233028.1764
 -18068210.86347 -14073690.56646  21668865.7424                   21668861.3554
 11  9 25  2 45  0.0000000  0  7G29G22G09G18G15G26G21
 -24399076.42647 -19003431.63746  20869163.6254                   20869160.9654
   4265518.47746   3335197.74244  24170116.2114                   24170111.6294
   7172173.19146   5601370.88343  24779145.0084                   24779142.7544
 -14525276.10248 -11304639.09446  21625178.6334                   21625174.3914
 -21539384.82048 -16774156.23047  20659428.2344                   20659424.4614
 -16097664.66047 -12535911.55545  22244096.1174                   22244093.3094
 -18150880.41448 -14138108.37546  21653134.0944                   21653129.4614
 11  9 25  2 45 30.0000000  0  7G29G22G09G18G15G26G21
 -24362101.96148 -18974620.37946  20876199.4304                   20876196.6804
   4174680.82046   3264415.23044  24152830.1334                   24152825.4964
   7062834.18846   5516171.71944  24758337.9694                   24758336.5864
 -14577692.48448 -11345483.00046  21615204.1724                   21615199.9064
 -21540794.06648 -16775254.33247  20659160.3674                   20659156.6564
 -16039035.29347 -12490226.32845  22255252.8594                   22255250.0984
 -18233461.37548 -14202457.15646  21637419.7114                   21637414.9494
 11  9 25  2 46  0.0000000  0  7G29G22G09G18G15G26G21
 -24324663.13348 -18945447.27046  20883324.3444                   20883321.5004
   4083989.88746   3193747.04744  24135572.2114                   24135568.0984
   6953399.95746   5430898.37143  24737513.2274                   24737511.6414
 -14629912.92647 -11386174.23446  21605266.9144                   21605262.8324
 -21541640.36348 -16775913.77747  20658999.2894                   20658995.7734
 -15979925.90647 -12444167.08245  22266500.1414                   22266497.6454
 -18315952.21548 -14266735.71546  21621721.9384                   21621717.5124
 11  9 25  2 46 30.0000000  0  7G29G22G09G18G15G26G21
 -24286760.12147 -18915912.45746  20890536.9844                   20890534.0864
   3993447.25046   3123194.44544  24118343.0704                   24118338.1094
   6843875.14846   5345554.45343  24716671.7974                   24716669.3134
 -14681937.13347 -11426712.54746  21595366.8364                   21595362.5084
 -21541923.18048 -16776134.14147  20658945.1884                   20658941.6724
 -15920337.69547 -12397734.70745  22277840.1724                   22277837.1254
 -18398350.46147 -14330942.12546  21606042.2034                   21606037.4224
 11  9 25  2 47  0.0000000  0  7G29G22G09G18G15G26G21
 -24248395.19947 -18886017.72346  20897837.6644                   20897834.6214
   3903052.50446   3052757.03944  24101141.3444                   24101136.9064
   6734262.36746   5260141.93043  24695812.7504                   24695810.1804
 -14733765.87547 -11467098.55946  21585504.2504                   21585499.7704
 -21541644.35248 -16775916.86347  20658998.2734                   20658994.6884
 -15860274.42247 -12350932.16445  22289269.6174                   22289266.5234
 -18480655.07048 -14395075.57046  21590379.8364                   21590375.3874
 11  9 25  2 47 30.0000000  0  7G29G22G09G18G15G26G21
 -24209570.11747 -18855764.41846  20905225.3284                   20905222.7464
   3812805.44946   2982434.74644  24083968.0704                   24083962.8914
   6624564.18846   5174662.89143  24674937.5864                   24674935.3484
 -14785399.78147 -11507332.74646  21575678.8834                   21575674.3134
 -21540804.58648 -16775262.49647  20659158.2034                   20659154.7154
 -15799738.64847 -12303761.43445  22300789.0554                   22300785.9494
 -18562863.35247 -14459133.95746  21574736.4844                   21574731.8054
 11  9 25  2 48  0.0000000  0  7G29G22G09G18G15G26G21
 -24170287.62547 -18825154.68746  20912700.6884                   20912698.2234
   3722705.74646   2912227.25844  24066822.6644                   24066817.9064
   6514783.55046   5089119.57043  24654047.0554                   24654045.0984
 -14836840.18447 -11547416.14846  21565890.0634                   21565885.8134
 -21539405.49648 -16774172.27747  20659424.3134                   20659420.9184
 -15738734.40247 -12256225.65644  22312397.9774                   22312394.8164
 -18644974.99647 -14523117.04746  21559110.6484                   21559106.3484
 11  9 25  2 48 30.0000000  0  7G29G22G09G18G15G26G21
 -24130550.24247 -18794190.50846  20920262.6564                   20920259.7424
   3632752.12146   2842133.59444  24049704.5234                   24049699.5514
   6404922.34046   5003513.53543  24633141.7034                   24633139.4534
 -14888088.87147 -11587350.16846  21556137.5314                   21556133.1764
 -21537449.22748 -16772647.91047  20659796.5234                   20659793.0314
 -15677265.39547 -12208327.74644  22324094.7894                   22324091.9734
 -18726988.83647 -14587023.91046  21543504.1954                   21543499.8404
 11  9 25  2 49  0.0000000  0  7G29G22G09G18G15G26G21
 -24090359.69948 -18762873.20746  20927910.7274                   20927907.9304
   3542945.12546   2772154.19144  24032614.8524                   24032609.9574
   6294983.95346   4917847.32043  24612220.4924                   24612218.3134
 -14939145.86347 -11627134.81646  21546421.6334                   21546417.5084
 -21534936.66048 -16770690.05547  20660274.8284                   20660271.5704
 -15615334.19947 -12160069.67244  22335879.8834                   22335877.2154
 -18808902.73447 -14650852.90646  21527916.5314                   21527912.1134
 11  9 25  2 49 30.0000000  0  7G29G22G09G18G15G26G21
 -24049719.23848 -18731205.32846  20935644.5784                   20935641.3524
   3453283.32046   2702287.94144  24015551.7664                   24015547.9144
   6184970.08645   4832122.27743  24591284.8204                   24591283.1134
 -14990013.31647 -11666771.76246  21536741.9844                   21536737.6724
 -21531870.33648 -16768300.70347  20660858.1724                   20660854.4924
 -15552945.25447 -12111454.93044  22347752.1954                   22347749.3364
 -18890716.62147 -14714603.97346  21512347.4384                   21512343.2194
 11  9 25  2 50  0.0000000  0  7G29G22G09G18G15G26G21
 -24008629.42248 -18699187.29746  20943463.3984                   20943460.5204
   3363768.23846   2632536.00844  23998518.1094                   23998513.5124
   6074885.14845   4746341.88343  24570336.8284                   24570334.1804
 -15040690.25047 -11706260.26646  21527098.6254                   21527093.9414
 -21528250.00048 -16765479.65246  20661547.3834                   20661543.3324
 -15490100.02347 -12062484.63744  22359711.8364                   22359708.5944
 -18972426.88748 -14778274.29346  21496798.8524                   21496794.2774
 11  9 25  2 50 30.0000000  0  7G29G22G09G18G15G26G21
 -23967092.25448 -18666820.68746  20951367.7114                   20951364.6644
   3274399.92247   2562898.42243  23981512.1254                   23981507.0234
   5964731.91845   4660508.29742  24549374.7344                   24549372.5124
 -15091177.57047 -11745601.02046  21517491.1334                   21517486.3634
 -21524076.66448 -16762227.68747  20662341.3524                   20662337.7074
 -15426801.60547 -12013161.19144  22371756.8524                   22371753.6954
 -19054031.56647 -14841862.34846  21481270.0004                   21481265.5164
 11  9 25  2 51  0.0000000  0  7G29G22G09G18G15G26G21
 -23925111.07048 -18634108.08246  20959356.2424                   20959353.8834
   3185176.60946   2493373.83244  23964533.9144                   23964528.8324
   5854512.42646   4574623.03543  24528401.0784                   24528399.5434
 -15141477.46547 -11784795.72346  21507919.3054                   21507914.8834
 -21519352.94948 -16758546.87147  20663240.5234                   20663236.3594
 -15363054.53947 -11963488.16844  22383887.2274                   22383884.5474
 -19135531.08647 -14905368.44146  21465761.0634                   21465756.5354
 11  9 25  2 51 30.0000000  0  7G29G22G09G18G15G26G21
 -23882687.26648 -18601050.58246  20967429.2424                   20967426.5044
   3096098.78547   2423962.60544  23947582.7734                   23947577.6054
   5744230.18045   4488688.91043  24507415.2424                   24507414.0744
 -15191590.21547 -11823844.60946  21498383.2584                   21498378.5044
 -21514080.14548 -16754438.18047  20664243.5944                   20664239.9024
 -15298861.57447 -11913467.69544  22396102.6094                   22396099.7664
 -19216922.67648 -14968790.45346  21450272.7194                   21450268.5944
 11  9 25  2 52  0.0000000  0  7G29G22G09G18G15G26G21
 -23839823.57048 -18567650.31246  20975586.1094                   20975583.2154
   3007165.94947   2354664.39544  23930658.9454                   23930654.4494
   5633887.46146   4402707.61743  24486417.8204                   24486415.6294
 -15241517.02047 -11862748.60246  21488881.9774                   21488878.0434
 -21508259.97748 -16749902.97347  20665351.1804                   20665347.3954
 -15234225.88346 -11863102.24644  22408402.7114                   22408400.1684
 -19298205.38748 -15032127.60946  21434805.1954                   21434800.5234
 11  9 25  2 52 30.0000000  0  8G29G22G09G06G18G15G26G21
 -23796524.49648 -18533910.78546  20983825.8444                   20983822.9924
   2918375.37147   2285476.96544  23913762.4384                   23913757.9884
   5523485.34046   4316680.06343  24465409.1254                   24465406.7114
   7715762.73455   6025044.75053  24747274.3054                   24747272.2854
 -15291260.89147 -11901510.03546  21479415.8674                   21479411.6374
 -21501896.01648 -16744944.03546  20666562.0704                   20666558.4454
 -15169153.41046 -11812396.43044  22420785.7894                   22420782.5204
 -19379379.73847 -15095380.34046  21419358.3284                   21419353.7194
 11  9 25  2 53  0.0000000  0  8G29G22G09G06G18G15G26G21
 -23752798.23448 -18499838.38346  20992146.4924                   20992143.7034
   2829721.14147   2216395.82444  23896892.1414                   23896887.3484
   5413020.56346   4230603.70344  24444388.2974                   24444386.3674
   7606815.01645   5940150.48843  24726542.0394                   24726540.0634
 -15340828.52347 -11940134.15646  21469983.8674                   21469979.3874
 -21494995.20747 -16739566.77346  20667875.0784                   20667871.5394
 -15103653.00447 -11761357.16444  22433250.0864                   22433247.1724
 -19460449.72747 -15158551.73846  21403931.1024                   21403926.6174
 11  9 25  2 53 30.0000000  0  8G29G22G09G06G18G15G26G21
 -23708647.58248 -18465435.28546  21000548.0314                   21000545.1914
   2741202.17647   2147420.07044  23880048.2114                   23880043.0084
   5302495.20346   4144480.11344  24423356.1804                   24423353.6484
   7498104.57446   5855441.12543  24705854.7424                   24705851.6374
 -15390221.91048 -11978622.49646  21460584.5784                   21460580.4804
 -21487560.56248 -16733773.54347  20669290.5084                   20669286.3634
 -15037729.01247 -11709987.84844  22445795.0164                   22445791.7544
 -19541414.88747 -15221641.47346  21388524.1094                   21388519.5474
 11  9 25  2 54  0.0000000  0  8G29G22G09G06G18G15G26G21
 -23664073.86748 -18430702.53146  21009030.2664                   21009027.4804
   2652819.09847   2078550.23044  23863229.1644                   23863223.9964
   5191913.15646   4058312.35944  24402312.8754                   24402310.9064
   7389634.85246   5770919.35943  24685213.3364                   24685210.6134
 -15439440.44148 -12016974.59046  21451218.8754                   21451214.4184
 -21479592.37947 -16727564.55546  20670806.6094                   20670802.7504
 -14971383.43747 -11658289.99244  22458419.8204                   22458416.7664
 -19622272.00447 -15284646.99646  21373137.2114                   21373132.5514
 11  9 25  2 54 30.0000000  0  8G29G22G09G06G18G15G26G21
 -23619076.97748 -18395640.02746  21017593.0394                   21017590.1334
   2564573.99647   2009787.89144  23846436.6174                   23846431.3094
   5081279.99646   3972104.80144  24381259.9064                   24381257.9104
   7281410.41045   5686588.63743  24664618.8444                   24664616.7664
 -15488482.57047 -12055189.21546  21441886.0234                   21441881.5824
 -21471089.68048 -16720939.06646  20672424.5864                   20672420.6454
 -14904617.32046 -11606264.45744  22471125.4064                   22471122.3014
 -19703017.59447 -15347565.62146  21357771.7504                   21357767.3874
 11  9 25  2 55  0.0000000  0  8G29G22G09G06G18G15G26G21
 -23573656.59848 -18360247.53146  21026235.8674                   21026233.3204
   2476469.30147   1941134.95744  23829670.5314                   23829666.1484
   4970601.38746   3885861.80143  24360198.0164                   24360195.8204
   7173436.14546   5602452.92243  24644072.2734                   24644069.2974
 -15537347.25847 -12093265.57846  21432587.4064                   21432583.3094
 -21462051.60948 -16713896.40646  20674144.3674                   20674140.5004
 -14837431.41446 -11553911.81644  22483910.2034                   22483907.2384
 -19783647.25048 -15410393.90646  21342428.7734                   21342423.9574
 11  9 25  2 55 30.0000000  0  8G29G22G09G06G18G15G26G21
 -23527814.04348 -18324526.06646  21034959.3754                   21034956.6024
   2388505.78947   1872592.03144  23812931.9304                   23812926.8794
   4859881.07046   3799586.30944  24339128.2894                   24339127.2664
   7065715.20746   5518514.59843  24623573.2734                   24623571.6564
 -15586033.94147 -12131203.24246  21423322.4064                   21423318.5704
 -21452478.69548 -16706436.98846  20675966.3134                   20675962.5204
 -14769827.72746 -11501233.63344  22496775.2424                   22496772.1684
 -19864158.27748 -15473129.75446  21327107.7734                   21327103.1764
 11  9 25  2 56  0.0000000  0  8G29G22G09G06G18G15G26G21
 -23481550.98448 -18288476.94146  21043763.1724                   21043760.4964
   2300683.83647   1804159.40644  23796219.7584                   23796214.9534
   4749122.80946   3713281.25443  24318052.0004                   24318050.2704
   6958250.31646   5434775.75043  24603123.7344                   24603121.4494
 -15634543.02047 -12169002.51646  21414091.8914                   21414087.6844
 -21442372.46947 -16698561.99246  20677889.0394                   20677885.4344
 -14701809.38746 -11448232.34044  22509718.4304                   22509715.2584
 -19944548.55547 -15535771.51646  21311810.0084                   21311805.3404
 11  9 25  2 56 30.0000000  0  8G29G22G09G06G18G15G26G21
 -23434868.48848 -18252100.98446  21052646.6884                   21052643.8204
   2213004.39547   1735837.86744  23779534.8364                   23779529.7504
   4638330.71146   3626949.83243  24296969.1254                   24296967.9654
   6851045.11346   5351239.29343  24582723.3444                   24582721.0744
 -15682874.00847 -12206663.00046  21404894.7664                   21404890.4144
 -21431732.69947 -16690271.25446  20679913.6954                   20679909.9064
 -14633378.00046 -11394909.19544  22522740.7814                   22522737.9264
 -20024814.66047 -15598316.51646  21296535.7504                   21296531.1524
 11  9 25  2 57  0.0000000  0  8G29G22G09G06G18G15G26G21
 -23387770.19148 -18215401.02746  21061609.0704                   21061606.1994
   2125465.63747   1667625.92244  23762876.4694                   23762871.4104
   4527506.46145   3540593.34843  24275879.4304                   24275877.9614
   6744100.18446   5267905.65243  24562371.3364                   24562369.6564
 -15731028.82047 -12244186.21546  21395731.2344                   21395726.8874
 -21420562.33647 -16681567.07447  20682039.1644                   20682035.5824
 -14564538.37547 -11341267.94944  22535840.2894                   22535837.3094
 -20104956.55947 -15660764.72746  21281285.2424                   21281280.7074
 11  9 25  2 57 30.0000000  0  8G29G22G09G06G18G15G26G21
 -23340256.68448 -18178377.53146  21070650.7274                   21070648.1414
   2038069.38347   1599525.02344  23746245.5004                   23746240.2734
   4416655.01646   3454215.67643  24254785.5704                   24254783.0124
   6637419.79346   5184778.14543  24542071.6804                   24542069.8404
 -15779006.97748 -12281571.77746  21386600.9614                   21386597.1134
 -21408861.47748 -16672449.50846  20684265.8834                   20684262.2974
 -14495292.02747 -11287309.77044  22549017.2584                   22549014.5084
 -20184970.93748 -15723113.58246  21266059.1954                   21266054.6214
 11  9 25  2 58  0.0000000  0  8G29G22G09G06G18G15G26G21
 -23292329.59048 -18141031.75846  21079770.9304                   21079768.1884
   1950815.75047   1531535.27044  23729641.6254                   23729636.5824
   4305779.96546   3367819.59843  24233686.7034                   24233683.9224
   6531006.64846   5101858.91843  24521821.3054                   24521819.6764
 -15826808.25048 -12318819.50846  21377504.6254                   21377500.6994
 -21396631.12548 -16662919.35946  20686593.2814                   20686589.5784
 -14425641.64847 -11233036.75044  22562271.4454                   22562268.6644
 -20264855.18048 -15785361.02346  21250857.8134                   21250853.0864
 11  9 25  2 58 30.0000000  0  8G29G22G09G06G18G15G26G21
 -23243990.88348 -18103365.25046  21088969.4224                   21088966.8754
   1863705.04747   1463656.88344  23713064.9924                   23713060.1054
   4194884.83646   3281407.87543  24212583.1724                   24212580.7544
   6424863.50846   5019150.02743  24501623.3914                   24501621.7464
 -15874433.44947 -12355930.03146  21368442.2034                   21368437.9264
 -21383872.35548 -16652977.46147  20689021.2974                   20689017.6604
 -14355590.02047 -11178451.07844  22575601.9224                   22575599.2624
 -20344607.07048 -15847505.34046  21235681.4224                   21235676.7624
 11  9 25  2 59  0.0000000  0  8G29G22G09G06G18G15G26G21
 -23195243.42248 -18065380.23846  21098245.6564                   21098243.0824
   1776736.31347   1395889.10544  23696514.9064                   23696510.1484
   4083971.89546   3194982.25843  24191477.9534                   24191475.1054
   6318991.76646   4936652.66443  24481476.9064                   24481474.6414
 -15921883.87947 -12392904.36746  21359412.4304                   21359408.2934
 -21370587.65248 -16642625.74647  20691549.3364                   20691545.4804
 -14285141.02746 -11123555.77044  22589007.3674                   22589005.4414
 -20424225.34448 -15909545.53946  21220530.5944                   21220525.7154
 11  9 25  2 59 30.0000000  0  8G29G22G09G06G18G15G26G21
 -23146089.98048 -18027078.86746  21107599.2584                   21107597.0204
   1689909.53147   1328231.94144  23679992.9534                   23679987.4654
   3973044.43846   3108545.35243  24170369.1024                   24170366.3284
   6213393.72746   4854368.51643  24461382.2114                   24461379.9654
 -15969160.52348 -12429743.29746  21350416.3134                   21350411.7734
 -21356779.08648 -16631865.81646  20694176.9384                   20694173.2664
 -14214298.35246 -11068353.70344  22602489.0394                   22602486.4224
 -20503708.41048 -15971480.38346  21205405.7894                   21205400.5394
 11  9 25  3  0  0.0000000  0  8G29G22G09G06G18G15G26G21
 -23096532.66848 -17988462.78946  21117029.8134                   21117027.1024
   1603223.98047   1260684.85244  23663496.5004                   23663492.0594
   3862105.11346   3022099.18444  24149258.3914                   24149255.7624
   6108071.27746   4772299.15643  24441339.8444                   24441337.0784
 -16016264.21147 -12466447.44946  21341452.6414                   21341448.3094
 -21342448.23848 -16620698.91846  20696903.8364                   20696900.3634
 -14143065.20346 -11012847.36744  22616044.0784                   22616041.3914
 -20583054.73448 -16033308.67646  21190306.5164                   21190301.4924
 11  9 25  3  0 30.0000000  0  8G29G22G09G06G18G15G26G21
 -23046572.34448 -17949532.68746  21126536.8984                   21126534.3524
   1516680.99247   1193248.82844  23647027.6954                   23647023.3834
   3751159.16847   2935647.84844  24128145.8674                   24128143.5274
   6003028.58246   4690447.76243  24421350.6564                   24421348.1644
 -16063193.94948 -12503016.05946  21332522.4224                   21332518.1214
 -21327594.91048 -16609124.89546  20699730.4534                   20699727.0514
 -14071442.99246 -10957037.87944  22629673.2344                   22629670.2664
 -20662260.55148 -16095027.48046  21175233.9224                   21175229.3674
 11  9 25  3  1  0.0000000  0  8G29G22G09G06G18G15G26G21
 -22996213.50848 -17910292.05146  21136120.1414                   21136117.3054
   1430278.20747   1125922.05544  23630586.3834                   23630581.1724
   3640207.47347   2849192.03944  24107031.7194                   24107030.2624
   5898265.69146   4608814.41444  24401414.7814                   24401412.3324
 -16109952.59448 -12539451.35246  21323623.9454                   21323620.1214
 -21312223.24248 -16597146.96546  20702655.6024                   20702651.9574
 -13999437.30547 -10900929.55544  22643375.9384                   22643372.7424
 -20741325.96148 -16156636.87946  21160188.0554                   21160183.5904
 11  9 25  3  1 30.0000000  0  8G29G22G09G06G18G15G26G21
 -21370036.44948 -16643141.11346  21445570.8754                   21445568.3524
   2919442.32047   2286309.76644  23913964.5084                   23913959.0044
   5104680.66447   3990340.02043  24385711.9384                   24385709.5314
   7369212.07846   5755006.50443  24681326.7424                   24681324.0394
 -14581115.94548 -11348150.04746  21614552.0084                   21614547.7624
 -19720911.60548 -15357163.87146  21005471.9694                   21005468.5354
 -12351629.98846  -9616923.87944  22956942.6644                   22956939.8134
 -19244823.10248 -14990530.74646  21444963.1414                   21444958.7504
 11  9 25  3  2  0.0000000  0  8G29G22G09G06G18G15G26G21
 -21318879.85248 -16603278.84046  21455305.7974                   21455303.4184
   2833327.48447   2219207.34044  23897577.3834                   23897572.5434
   4993734.71547   3903888.70344  24364599.6804                   24364597.8794
   7265023.32846   5673820.53543  24661499.7584                   24661498.1214
 -14627527.62148 -11384314.96146  21605720.3204                   21605715.7344
 -19704500.44548 -15344375.95346  21008594.8204                   21008591.4844
 -12278858.97347  -9560219.21544  22970790.8594                   22970788.0704
 -19323594.95348 -15051911.40246  21429973.4384                   21429968.2934
 11  9 25  3  2 30.0000000  0  8G29G22G09G06G18G15G26G21
 -21267328.17248 -16563108.71946  21465115.9774                   21465113.1134
   2747355.72747   2152216.43444  23881217.4774                   23881212.1024
   4882796.10246   3817443.08644  24343488.8204                   24343486.7114
   7161124.40246   5592860.39543  24641728.5474                   24641726.4654
 -14673766.89148 -11420345.54346  21596921.3834                   21596916.7034
 -19687572.79348 -15331185.56646  21011816.0554                   21011812.7664
 -12205710.87547  -9503220.70344  22984710.5004                   22984708.0084
 -19402217.56248 -15113175.76246  21415012.1414                   21415007.1954
 11  9 25  3  3  0.0000000  0  8G29G22G09G06G18G15G26G21
 -21215383.91048 -16522632.67646  21475000.7194                   21474997.6914
   2661527.16847   2085337.09444  23864884.8834                   23864879.5084
   4771868.04346   3731005.72344  24322379.6414                   24322377.7854
   7057517.91846   5512128.12544  24622013.5784                   24622011.0704
 -14719834.80948 -11456242.60246  21588155.1334                   21588150.5704
 -19670130.05948 -15317593.82846  21015135.3444                   21015131.9344
 -12132188.76247  -9445930.76644  22998701.1954                   22998698.9614
 -19480688.97348 -15174322.30946  21400079.6174                   21400074.7854
 11  9 25  3  3 30.0000000  0  8G29G22G09G06G18G15G26G21
 -21163049.33648 -16481852.50446  21484959.3914                   21484956.5904
   2575841.86347   2018569.40244  23848579.5084                   23848574.1454
   4660953.95346   3644579.21144  24301273.6254                   24301271.0004
   6954206.37946   5431625.69143  24602353.3984                   24602350.7234
 -14765731.90248 -11492006.55946  21579420.9064                   21579416.3954
 -19652173.86748 -15303601.98846  21018552.3914                   21018548.9454
 -12058295.47347  -9388351.58644  23012763.1414                   23012759.8834
 -19559006.52348 -15235348.96546  21385176.2504                   21385171.3524
 11  9 25  3  4  0.0000000  0  8G29G22G09G06G18G15G26G21
 -21110325.43748 -16440768.95346  21494992.3674                   21494989.8754
   2490300.06647   1951913.51244  23832301.3364                   23832295.9454
   4550057.81646   3558166.73044  24280170.7424                   24280168.0784
   6851192.82446   5351355.43843  24582750.6334                   24582747.8754
 -14811457.89848 -11527637.18446  21570719.5784                   21570715.2074
 -19633705.33248 -15289210.92246  21022066.8594                   21022063.3594
 -11984033.52747  -9330485.12544  23026893.8834                   23026891.1884
 -19637168.18048 -15296254.14146  21370302.5234                   21370297.7934
 11  9 25  3  4 30.0000000  0  8G29G22G09G06G18G15G26G21
 -21057215.50848 -16399384.60546  21505099.2734                   21505096.0704
   2404901.04347   1885368.89544  23816050.5314                   23816045.8054
   4439182.73846   3471770.62544  24259071.9844                   24259069.4734
   6748479.05946   5271318.75843  24563204.4304                   24563202.0354
 -14857014.20348 -11563135.58646  21562050.2274                   21562045.9184
 -19614726.44548 -15274422.17646  21025678.6884                   21025675.0124
 -11909406.48447  -9272334.19544  23041095.2194                   23041092.3634
 -19715172.16048 -15357036.45346  21355458.6334                   21355454.3204
 11  9 25  3  5  0.0000000  0  8G29G22G09G06G18G15G26G21
 -21003721.30548 -16357700.82446  21515278.7974                   21515275.7934
   2319645.74647   1818936.24644  23799826.8754                   23799821.6604
   4328332.55946   3385393.90243  24237977.5004                   24237975.2274
   6646068.03146   5191518.02343  24543717.4304                   24543714.2894
 -14902400.62948 -11598501.60946  21553413.4144                   21553409.2424
 -19595238.57048 -15259236.82046  21029386.8364                   21029383.7304
 -11834417.14147  -9213900.94144  23055365.1094                   23055362.7854
 -19793015.72748 -15417693.77046  21340645.7344                   21340640.9734
 11  9 25  3  5 30.0000000  0  8G29G22G09G06G18G15G26G21
 -20949844.52748 -16315718.93046  21525530.9064                   21525527.8874
   2234534.09447   1752615.53144  23783631.1484                   23783625.2384
   4217511.15646   3299039.64143  24216888.7664                   24216886.3554
   6543962.46546   5111955.29343  24524286.4924                   24524284.1564
 -14947617.39548 -11633735.43446  21544809.3284                   21544804.9224
 -19575242.83648 -15243655.72746  21033191.8984                   21033188.6214
 -11759068.04346  -9155187.38744  23069703.4774                   23069700.8134
 -19870696.46948 -15478224.20346  21325863.3594                   21325859.0354
 11  9 25  3  6  0.0000000  0  8G29G22G09G06G18G15G26G21
 -20895589.33248 -16273442.17646  21535855.4614                   21535852.4654
   2149564.59047   1686405.59844  23767461.8524                   23767455.9344
   4106719.92647   3212708.84843  24195805.8364                   24195803.9804
   6442162.91846   5032631.05543  24504914.1254                   24504911.4264
 -14992667.11748 -11668839.09846  21536236.4064                   21536232.2734
 -19554742.78548 -15227681.66046  21037093.0314                   21037089.5904
 -11683364.22746  -9096197.42244  23084109.2274                   23084106.8054
 -19948214.11348 -15538627.55546  21311112.5004                   21311107.5084
 11  9 25  3  6 30.0000000  0  8G29G22G09G06G18G15G26G21
 -20840956.70348 -16230871.31246  21546252.0864                   21546248.9454
   2064738.00847   1620307.00444  23751319.6254                   23751314.3524
   3995963.57847   3126405.24643  24174730.0944                   24174727.0664
   6340673.08646   4953548.09843  24485601.8134                   24485598.9224
 -15037549.11348 -11703812.06646  21527695.8594                   21527691.2114
 -19533739.02348 -15211315.09846  21041089.8754                   21041086.5164
 -11607307.37146  -9036932.35244  23098582.3754                   23098580.0124
 -20025565.40648 -15598901.27746  21296392.7664                   21296388.3404
 11  9 25  3  7  0.0000000  0  8G29G22G09G06G18G15G26G21
 -20785949.33648 -16188008.44146  21556719.3204                   21556716.4924
   1980053.97347   1554319.48444  23735204.6414                   23735199.1524
   3885245.58647   3040131.50844  24153660.5314                   24153657.7664
   6239494.91046   4874708.03943  24466347.7424                   24466345.4414
 -15082264.02748 -11738654.83646  21519186.5634                   21519182.3204
 -19512234.01248 -15194557.93746  21045182.3914                   21045178.6564
 -11530900.91846  -8977394.89144  23113121.9924                   23113119.8404
 -20102748.35948 -15659043.83246  21281705.4454                   21281700.7034
 11  9 25  3  7 30.0000000  0  8G29G22G09G06G18G15G26G21
 -20730568.62148 -16144854.64846  21567257.9774                   21567255.4224
   1895513.57047   1488443.89544  23719117.4064                   23719111.4494
   3774570.11747   2953890.91043  24132600.2344                   24132597.4344
   6138631.82446   4796113.47743  24447154.4774                   24447152.5984
 -15126811.67648 -11773367.28546  21510709.4844                   21510705.1764
 -19490227.73848 -15177410.18746  21049369.9384                   21049366.5044
 -11454147.31246  -8917586.89844  23127727.8594                   23127725.5004
 -20179759.84448 -15719052.77746  21267050.7894                   21267045.8754
 11  9 25  3  8  0.0000000  0  8G29G22G09G06G18G15G26G21
 -20674817.31248 -16101412.09046  21577867.0394                   21577864.0394
   1811115.89147   1422679.52744  23703057.0164                   23703051.0664
   3663940.07847   2867685.74244  24111547.5004                   24111545.5314
   6038085.70346   4717765.91044  24428021.1094                   24428018.6414
 -15171192.93048 -11807950.05946  21502264.0784                   21502259.9104
 -19467722.78148 -15159873.86347  21053652.5554                   21053648.6604
 -11377050.02746  -8857511.09844  23142399.0004                   23142396.4024
 -20256598.34448 -15778926.92646  21252428.7584                   21252424.2304
 11  9 25  3  8 30.0000000  0  8G29G22G09G06G18G15G26G21
 -20618697.69148 -16057682.52346  21588546.0634                   21588543.3524
   1726861.09447   1357026.47344  23687023.3364                   23687017.5204
   3553359.09847   2781518.77744  24090504.8594                   24090503.0784
   5937858.97346   4639667.25843  24408949.0864                   24408945.9654
 -15215408.33648 -11842403.60546  21493850.3524                   21493845.8094
 -19444720.70748 -15141950.15646  21058029.5474                   21058025.8524
 -11299611.82047  -8797169.66844  23157135.3674                   23157132.8674
 -20333261.32848 -15838664.30546  21237840.3364                   21237836.0314
 11  9 25  3  9  0.0000000  0  8G29G22G09G06G18G15G26G21
 -20562212.64548 -16013668.21946  21599295.0394                   21599292.2664
   1642748.67247   1291484.38744  23671016.8594                   23671011.8634
   3442830.06347   2695392.30144  24069471.7034                   24069469.6174
   5837953.52347   4561818.89143  24389937.2034                   24389934.9304
 -15259459.10548 -11876728.87146  21485467.3524                   21485463.2734
 -19421223.88348 -15123640.94546  21062500.9454                   21062497.2854
 -11221836.50447  -8736565.55144  23171935.2974                   23171932.9064
 -20409747.45748 -15898263.86746  21223285.4534                   21223280.7584
 11  9 25  3  9 30.0000000  0  8G29G22G09G06G18G15G26G21
 -20505363.00848 -15969369.82046  21610113.2274                   21610110.5784
   1558779.93047   1226054.24644  23655038.7664                   23655033.4964
   3332358.02047   2609310.23444  24048449.6954                   24048447.4844
   5738373.31346   4484223.96943  24370987.5004                   24370984.3984
 -15303343.93048 -11910924.82446  21477116.4614                   21477111.9534
 -19397232.48848 -15104946.34446  21067066.2734                   21067062.5904
 -11143725.34047  -8675699.72744  23186799.8834                   23186796.4104
 -20486052.72748 -15957722.52046  21208765.1174                   21208760.0824
 11  9 25  3 10  0.0000000  0  8G29G22G09G06G18G15G26G21
 -20448152.45348 -15924790.17246  21621000.0784                   21620997.1804
   1474953.30547   1160734.85244  23639087.1094                   23639081.5904
   3221945.30947   2523274.43044  24027438.1954                   24027436.1174
   5639119.13747   4406883.10943  24352100.3984                   24352097.3094
 -15347065.50848 -11944993.57446  21468796.5234                   21468792.0004
 -19372750.07048 -15085869.14146  21071725.2424                   21071721.5124
 -11065283.26246  -8614576.02344  23201726.1254                   23201723.7814
 -20562176.69948 -16017039.88746  21194279.1024                   21194274.6414
 11  9 25  3 10 30.0000000  0  8G29G22G09G06G18G15G26G21
 -20390583.88348 -15879931.55946  21631954.9614                   21631952.0314
   1391268.51647   1095525.98044  23623162.1884                   23623156.8554
   3111594.59446   2437286.90244  24006439.4924                   24006437.2974
   5540192.91447   4329797.79344  24333274.2194                   24333272.3164
 -15390624.30148 -11978935.48046  21460507.4224                   21460503.0474
 -19347779.11748 -15066411.25046  21076476.9454                   21076473.2814
 -10986513.62547  -8553197.12544  23216715.4614                   23216713.0634
 -20638117.43748 -16076214.47746  21179828.1644                   21179823.3444
 11  9 25  3 11  0.0000000  0  8G29G22G09G06G18G15G26G21
 -20332658.75048 -15834795.10246  21642977.5084                   21642975.1564
   1307726.03147   1030427.98444  23607264.8204                   23607258.9924
   3001310.44146   2351351.26644  23985452.5634                   23985451.1254
   5441597.95346   4252970.62543  24314512.6884                   24314510.2504
 -15434019.94548 -12012750.25446  21452249.3364                   21452245.3164
 -19322319.91048 -15046572.89846  21081321.7114                   21081317.9534
 -10907418.64147  -8491564.66844  23231767.0234                   23231764.6254
 -20713871.85548 -16135243.88346  21165412.7274                   21165407.7974
 11  9 25  3 11 30.0000000  0  8G29G22G09G06G18G15G26G21
 -20274380.04748 -15789383.14146  21654067.6884                   21654065.2704
   1224324.98847    965440.21544  23591393.8914                   23591388.2344
   2891095.40246   2265469.48044  23964479.4614                   23964477.7854
   5343335.57846   4176402.59043  24295815.0084                   24295811.1954
 -15477253.95348 -12046439.08246  21444022.4064                   21444017.9304
 -19296375.59448 -15026356.54746  21086258.9144                   21086254.9224
 -10828002.31247  -8429681.83644  23246879.4774                   23246877.2734
 -20789438.61348 -16194127.05946  21151032.3054                   21151027.6884
 11  9 25  3 12  0.0000000  0  8G29G22G09G06G18G15G26G21
 -20215750.10548 -15743697.49246  21665224.8204                   21665222.2194
   1141065.46547    900562.70744  23575549.4774                   23575544.5274
   2780953.18846   2179644.45744  23943520.4774                   23943518.2704
   5245408.40646   4100095.75444  24277180.0944                   24277176.9104
 -15520326.57848 -12080002.15646  21435825.9534                   21435821.7704
 -19269947.77048 -15005763.43446  21091287.7814                   21091283.7974
 -10748267.47746  -8367550.81644  23262052.4844                   23262050.0394
 -20864815.44148 -16252862.24646  21136688.8834                   21136684.2464
 11  9 25  3 12 30.0000000  0  8G29G22G09G06G18G15G26G21
 -20156770.91847 -15697739.70346  21676448.1414                   21676445.6054
   1057947.99247    835795.89544  23559733.0164                   23559728.0084
   2670888.22747   2093879.60944  23922576.1334                   23922573.7664
   5147819.35246   4024052.37944  24258608.8134                   24258606.2854
 -15563237.89148 -12113439.53546  21427660.3134                   21427655.5164
 -19243037.47348 -14984794.36746  21096408.5704                   21096404.7504
 -10668216.74247  -8305173.63743  23277286.0004                   23277282.8834
 -20939999.31648 -16311447.07446  21122381.6334                   21122377.0234
 11  9 25  3 13  0.0000000  0  8G29G22G09G06G18G15G26G21
 -20097444.48848 -15651511.33246  21687737.6644                   21687735.0704
    974973.17247    771140.24244  23543943.4384                   23543937.9844
   2560904.17647   2008177.78944  23901646.6414                   23901644.2114
   5050570.84047   3948274.37143  24240102.9924                   24240099.9144
 -15605988.44548 -12146751.63746  21419525.1954                   21419520.7154
 -19215646.64148 -14963450.85946  21101620.7734                   21101617.1564
 -10587852.90246  -8242552.49644  23292578.6414                   23292575.8244
 -21014988.04348 -16369879.84046  21108112.0634                   21108107.1094
 11  9 25  3 13 30.0000000  0  8G29G22G09G06G18G15G26G21
 -20037773.26247 -15605014.28546  21699092.7584                   21699089.5204
    892140.10247    706595.04345  23528181.1094                   23528175.2974
   2451004.69947   1922541.87944  23880733.0864                   23880731.0474
   4953665.53946   3872763.79343  24221662.1884                   24221659.7464
 -15648578.13748 -12179938.39546  21411420.5314                   21411416.2624
 -19187776.91448 -14941734.18746  21106924.2034                   21106920.4804
 -10507178.79347  -8179689.55944  23307930.6954                   23307927.6884
 -21089779.24248 -16428158.68446  21093879.9614                   21093875.0434
 11  9 25  3 14  0.0000000  0  8G29G22G09G06G18G15G26G21
 -19977758.91048 -15558249.85946  21710512.9774                   21710510.1954
    809449.26247    642160.66445  23512445.2974                   23512440.1254
   2341193.94947   1836975.09844  23859836.6804                   23859834.3674
   4857106.07447   3797522.69543  24203287.3054                   24203284.7074
 -15691007.63748 -12213000.33246  21403346.3134                   21403342.1374
 -19159430.07848 -14919645.74246  21112318.8054                   21112314.8634
 -10426197.33247  -8116587.13744  23323341.0944                   23323337.7464
 -21164370.03148 -16486281.36346  21079685.6564                   21079680.6564
 11  9 25  3 14 30.0000000  0  8G29G22G09G06G18G15G26G21
 -19917404.84047 -15511220.73046  21721997.9144                   21721995.1524
    726900.11347    577836.70345  23496736.9144                   23496731.3054
   2231474.54347   1751479.47744  23838958.2504                   23838955.6094
   4760894.01246   3722552.30144  24184979.4224                   24184976.7704
 -15733277.95348 -12245938.23446  21395302.4064                   21395298.4264
 -19130608.57448 -14897187.42646  21117802.7894                   21117799.1174
 -10344912.03547  -8053247.94544  23338808.7814                   23338806.1994
 -21238758.84448 -16544246.66446  21065529.6564                   21065525.0514
 11  9 25  3 15  0.0000000  0  8G29G22G09G06G18G15G26G21
 -19856715.10247 -15463930.03146  21733546.8834                   21733544.1804
    644490.96147    513621.82044  23481055.0004                   23481049.5904
   2121848.29747   1666056.47344  23818096.8984                   23818093.9844
   4665029.85547   3647853.01643  24166736.6254                   24166734.2344
 -15775391.03148 -12278753.61346  21387288.7894                   21387284.3594
 -19101316.10548 -14874362.12546  21123377.2194                   21123373.6294
 -10263327.90647  -7989675.92643  23354334.0704                   23354331.1684
 -21312945.48448 -16602054.43046  21051412.4384                   21051407.7424
 11  9 25  3 15 30.0000000  0  8G29G22G09G06G18G15G26G21
 -19795690.73847 -15416378.59446  21745159.3914                   21745156.5664
    562222.63747    449516.68045  23465399.5474                   23465394.0904
   2012319.90647   1580709.69144  23797254.3754                   23797250.8984
   4569516.98446   3573427.45344  24148560.8984                   24148558.7584
 -15817346.84448 -12311446.43746  21379304.8444                   21379300.5634
 -19071553.44947 -14851170.44546  21129040.6804                   21129037.0204
 -10181446.82047  -7925872.50044  23369915.8524                   23369912.5394
 -21386926.40648 -16659701.89546  21037334.4384                   21037329.7504
 11  9 25  3 16  0.0000000  0  8G29G22G09G06G18G15G26G21
 -19734335.21547 -15368569.11346  21756835.0164                   21756832.1804
    480094.43847    385520.71945  23449771.2274                   23449765.1054
   1902892.46947   1495441.60943  23776430.3444                   23776428.0634
   4474357.27046   3499277.05143  24130452.6094                   24130449.5084
 -15859145.99248 -12344017.19146  21371350.6884                   21371346.1884
 -19041323.12547 -14827614.34446  21134793.5864                   21134789.5474
 -10099272.37547  -7861840.47743  23385552.4144                   23385550.1134
 -21460699.68748 -16717187.56246  21023295.5004                   21023290.7894
 11  9 25  3 16 30.0000000  0  8G29G22G09G06G18G15G26G21
 -19672651.53547 -15320503.92246  21768573.3204                   21768570.8244
    398105.73047    321633.46945  23434169.0784                   23434163.4694
   1793568.94547   1410254.46143  23755627.2274                   23755623.9064
   4379552.27046   3425403.06644  24112411.9144                   24112409.2194
 -15900789.50048 -12376466.66046  21363426.1884                   21363421.7704
 -19010627.76648 -14803695.88346  21140634.2584                   21140630.7624
 -10016808.02347  -7797582.57444  23401245.0634                   23401242.2774
 -21534263.43748 -16774509.95346  21009296.8444                   21009292.4304
 11  9 25  3 17  0.0000000  0  8G29G22G09G06G18G15G26G21
 -19610640.31247 -15272183.50846  21780373.6334                   21780371.1954
    316258.09447    257856.12144  23418594.4064                   23418588.3284
   1684354.83646   1325152.61344  23734844.2814                   23734841.9694
   4285106.21546   3351808.78544  24094439.6414                   24094436.2854
 -15942276.32048 -12408794.04746  21355531.3594                   21355527.1094
 -18979467.39548 -14779415.07846  21146564.2734                   21146560.6454
  -9934055.46147  -7733100.06643  23416992.1644                   23416989.5314
 -21607614.61348 -16831666.70746  20995338.5084                   20995334.0784
 11  9 25  3 17 30.0000000  0  8G29G22G09G06G18G15G26G21
 -19548304.13347 -15223609.88346  21792235.9694                   21792232.9774
    234551.06347    194188.33645  23403045.5474                   23403039.8014
   1575253.62546   1240138.73044  23714082.5704                   23714080.7114
   4191021.01246   3278495.66443  24076535.7424                   24076533.0784
 -15983607.30548 -12440999.98846  21347666.3834                   21347662.3674
 -18947844.27348 -14754773.68746  21152581.9454                   21152578.0204
  -9851017.57046  -7668395.24643  23432793.6564                   23432790.9694
 -21680750.40648 -16888655.62946  20981421.4534                   20981416.8284
 11  9 25  3 18  0.0000000  0  8G29G22G09G06G18G15G26G21
 -19485647.94147 -15174786.88346  21804158.7034                   21804156.4494
    152982.14147    130628.18445  23387523.5704                   23387517.5234
   1466266.15647   1155213.49644  23693343.1884                   23693341.2854
   4097296.34047   3205463.50444  24058699.8444                   24058698.0274
 -16024785.44148 -12473086.84046  21339830.7894                   21339826.4884
 -18915763.14148 -14729775.40646  21158686.5634                   21158682.8404
  -9767700.10247  -7603472.56244  23448648.7974                   23448646.2854
 -21753671.10548 -16945476.94546  20967544.9614                   20967540.5004
 11  9 25  3 18 30.0000000  0  8G29G22G09G06G18G15G26G21
 -19422672.05547 -15125714.78546  21816142.6484                   21816139.9344
     71553.53947     67177.37144  23372028.1254                   23372022.9104
   1357398.35547   1070381.49244  23672626.1254                   23672623.4414
   4003936.80147   3132715.84444  24040934.4844                   24040931.9804
 -16065808.73448 -12505053.02746  21332024.1804                   21332019.5664
 -18883223.62948 -14704419.94146  21164878.7814                   21164875.1724
  -9684104.03147  -7538332.78544  23464555.7584                   23464553.5394
 -21826372.01648 -17002126.99246  20953710.7504                   20953706.0234
 11  9 25  3 19  0.0000000  0  8G29G22G09G06G18G15G26G21
 -19359380.45348 -15076396.67246  21828186.5474                   21828183.8984
     -9736.71947      3834.34444  23356559.2584                   23356553.4224
   1248652.30147    985644.35544  23651932.8674                   23651930.4494
   3910942.99247   3060253.16044  24023238.5634                   24023235.3834
 -16106679.54348 -12536900.40246  21324246.7274                   21324242.4064
 -18850229.64548 -14678710.34846  21171157.3444                   21171153.5904
  -9600233.64847  -7472979.27343  23480516.9534                   23480513.5044
 -21898852.60548 -17058605.37146  20939918.1564                   20939913.3364
 11  9 25  3 19 30.0000000  0  8G29G22G09G06G18G15G26G21
 -19295777.41447 -15026835.88346  21840290.0554                   21840286.9924
    -90890.20347    -59402.10944  23341116.3054                   23341110.2384
   1140029.93847    901003.58644  23631262.9304                   23631260.4734
   3818315.28147   2988075.74643  24005612.3524                   24005609.1724
 -16147400.02347 -12568630.62946  21316497.6884                   21316493.2624
 -18816784.37948 -14652649.10946  21177522.0554                   21177518.0984
  -9516093.96947  -7407415.91043  23496527.7664                   23496525.4494
 -21971112.33648 -17114911.65646  20926167.2814                   20926162.7384
 11  9 25  3 20  0.0000000  0  8G29G22G09G06G18G15G26G21
 -19231863.03147 -14977032.48446  21852452.3444                   21852449.9304
   -171904.93047   -122530.41844  23325699.8444                   23325694.1804
   1031537.05147    816463.71545  23610617.4774                   23610615.0634
   3726058.37946   2916187.25843  23988056.1024                   23988052.8874
 -16187968.32848 -12600242.28146  21308778.0864                   21308773.7074
 -18782887.97748 -14626236.32846  21183972.1094                   21183968.4804
  -9431685.52747  -7341643.14143  23512590.1414                   23512588.2704
 -22043146.39848 -17171042.08646  20912459.8204                   20912455.1214
 11  9 25  3 20 30.0000000  0  8G29G22G09G06G18G15G26G21
 -19167640.61748 -14926989.05946  21864673.6024                   21864670.9344
   -252781.78147   -185551.30944  23310309.1094                   23310303.1054
    923176.89547    732027.26644  23589997.2814                   23589994.5514
   3634173.65247   2844588.79344  23970571.0474                   23970568.2934
 -16228385.46947 -12631736.14546  21301086.6254                   21301082.4414
 -18748542.87548 -14599473.91446  21190507.7034                   21190504.2384
  -9347012.12146  -7275663.89143  23528703.2114                   23528700.4414
 -22114953.44547 -17226995.62146  20898795.4774                   20898790.5354
 11  9 25  3 21  0.0000000  0  8G29G22G09G06G18G15G26G21
 -19103113.33247 -14876708.06646  21876952.7114                   21876949.9534
   -333521.58247   -248465.40245  23294945.2504                   23294939.2734
    814952.25447    647696.41044  23569402.2034                   23569400.3524
   3542662.49647   2773281.40644  23953157.1804                   23953153.8524
 -16268652.63347 -12663113.14846  21293423.9224                   21293419.4064
 -18713752.32448 -14572364.39846  21197128.4454                   21197124.6914
  -9262077.77346  -7209481.29743  23544866.0234                   23544862.5554
 -22186532.09848 -17282771.18746  20885174.3594                   20885169.4844
